GFSSE_500_spd_000.txt.gz
Wind_Speed
14 19 20 18 17 19 18 20 18 17 14 15 16 16 15 18 18 17 17 16 11 9 9 11 13 11 10 10 11 12 12 13 13 12 11 12 11 13 13 14 14 14 14
14 14 14 17 21 21 20 19 16 15 16 17 17 16 16 16 17 18 17 16 12 12 11 10 10 10 9 10 11 12 12 12 13 11 11 11 12 12 10 13 14 14 14
16 15 16 19 20 18 18 17 17 18 18 16 16 16 16 15 15 16 17 15 13 13 10 7 7 9 8 8 11 11 11 12 11 13 12 11 13 14 13 10 9 9 10
20 20 20 20 20 18 17 17 17 18 16 15 15 15 16 16 15 14 13 11 10 9 9 10 10 10 9 7 9 10 8 10 9 7 9 9 9 12 10 9 10 7 8
19 20 20 19 17 15 16 16 15 16 15 13 14 15 12 12 10 9 10 9 9 8 10 11 11 10 8 8 7 8 8 10 9 11 6 10 9 9 8 6 10 9 7
18 17 16 15 14 14 13 14 14 14 13 11 11 10 10 9 9 10 11 11 9 9 9 9 10 9 5 5 5 5 7 7 9 8 3 6 7 6 7 6 5 8 7
16 15 14 13 13 12 12 13 12 11 10 9 9 10 10 8 9 9 11 12 8 7 7 9 8 7 6 3 2 3 3 5 7 7 6 1 2 5 5 4 5 5 6
14 13 11 12 11 11 12 12 11 10 9 12 11 9 8 9 9 8 8 8 7 5 5 8 7 6 4 2 1 2 3 5 4 6 7 4 4 1 3 2 5 5 5
7 7 6 6 8 8 10 10 8 8 9 11 9 8 8 11 9 9 9 7 6 3 3 5 5 5 3 1 1 1 3 4 6 6 8 9 3 3 0 1 3 5 4
2 4 4 6 6 7 8 8 7 8 10 11 10 9 9 11 12 11 10 9 7 4 2 3 4 5 6 4 3 3 5 6 7 7 11 10 7 9 5 2 1 2 4
5 5 6 8 9 11 11 10 7 9 8 9 9 8 8 9 9 8 9 9 8 7 6 6 6 7 8 8 8 7 7 7 8 10 11 13 13 10 8 8 4 3 1
4 7 9 10 11 10 8 7 7 7 7 8 9 8 8 8 8 7 7 8 8 10 10 11 10 9 9 9 11 10 9 10 9 11 11 13 14 13 11 12 9 6 5
9 10 12 11 10 9 8 7 7 6 8 8 9 8 6 6 7 9 10 11 12 11 10 10 11 10 8 7 9 10 12 13 9 9 8 10 14 16 14 14 14 11 9
12 13 12 11 11 11 9 9 8 8 7 7 7 6 6 6 7 9 12 13 13 12 10 9 8 8 8 8 7 7 8 10 13 9 10 10 12 14 17 16 16 16 14
14 14 13 10 11 11 9 9 8 7 8 7 7 7 6 7 7 8 9 11 13 12 10 11 11 10 10 11 11 11 9 10 11 11 11 11 11 12 16 17 16 15 16
15 13 13 12 11 9 8 9 8 9 9 8 7 8 8 6 7 7 8 10 12 13 13 12 12 11 11 10 11 13 13 12 12 13 11 12 13 13 15 18 19 17 17
12 12 11 10 8 6 6 7 7 8 8 7 6 6 7 7 6 5 6 7 9 10 11 12 13 13 12 13 12 13 15 15 13 11 13 14 14 15 16 19 22 21 20
9 9 9 7 8 6 4 3 3 5 5 7 5 7 6 5 7 8 7 7 8 9 10 11 12 13 15 15 14 14 15 15 16 14 12 14 15 17 16 20 21 24 23
8 7 6 6 6 5 4 2 2 1 3 4 3 4 4 5 6 8 8 9 9 9 11 11 13 14 16 17 17 16 16 17 17 16 15 15 14 15 18 20 23 24 25
8 7 8 7 5 4 3 2 1 1 2 4 5 3 5 7 9 10 10 11 11 11 12 13 14 14 16 18 19 18 17 18 17 17 17 16 16 14 15 20 23 26 25
9 9 9 7 6 5 4 3 2 3 5 6 7 7 7 8 9 11 11 12 13 13 14 15 15 14 15 18 20 19 19 19 19 19 19 17 17 18 16 15 20 24 28
7 8 10 10 9 7 6 5 4 4 5 6 7 9 9 10 12 14 15 16 16 17 17 16 15 13 14 16 19 22 20 20 20 22 22 20 18 17 17 18 17 20 27
11 11 11 10 10 10 8 8 7 6 7 9 10 12 13 15 16 16 18 18 18 18 17 18 18 18 17 17 18 20 23 23 23 21 21 22 21 19 18 17 20 20 23
12 13 12 12 13 13 11 11 12 12 12 14 17 19 19 21 21 21 19 18 17 18 19 19 20 19 19 20 21 20 19 22 25 27 24 22 22 21 20 20 22 25 25
16 15 15 17 17 16 16 16 17 19 21 24 26 23 23 25 25 23 21 19 18 18 18 19 20 20 21 23 24 24 24 23 22 25 28 27 24 21 22 24 25 25 28
20 18 19 21 22 20 19 21 23 27 30 27 23 22 24 26 27 24 22 19 19 18 18 20 21 23 24 25 27 29 29 28 24 22 24 26 26 25 24 25 26 27 28

GFSSE_500_spd_003.txt.gz
Wind_Speed
20 20 23 18 21 21 22 23 22 19 17 19 16 19 19 20 19 16 14 12 9 9 9 9 10 11 10 10 11 12 10 11 11 11 12 11 12 14 14 14 13 12 12
13 18 22 24 23 22 22 20 20 18 17 16 16 18 18 17 18 15 13 11 9 9 8 8 10 10 10 11 10 11 11 11 11 11 10 10 10 12 14 14 14 14 11
12 15 19 23 21 21 21 20 19 18 16 17 16 16 16 17 15 13 11 9 11 10 9 9 9 10 10 10 9 10 12 13 12 10 12 13 12 12 11 13 9 10 10
18 19 20 21 20 19 19 17 15 16 14 14 14 15 15 14 11 11 9 8 8 11 11 9 8 9 10 10 8 8 9 10 11 9 8 10 9 11 10 11 9 7 9
17 19 18 17 15 15 14 13 12 11 12 12 13 12 10 9 10 10 9 7 7 9 10 10 8 8 9 9 7 7 8 7 8 10 7 8 8 7 7 7 8 8 7
17 16 15 14 12 12 12 12 12 12 12 10 10 9 9 9 11 12 10 8 7 8 10 9 8 6 6 7 7 6 5 3 5 8 7 7 7 6 5 6 6 8 9
14 14 13 13 12 12 12 11 11 11 10 9 10 10 8 8 10 11 11 7 7 8 9 9 7 6 5 4 4 5 3 3 2 1 3 3 4 4 3 4 3 6 7
12 12 9 9 10 11 11 10 10 10 11 10 9 7 7 7 10 10 8 5 5 6 6 6 7 6 5 2 1 3 4 4 5 3 2 3 1 2 2 1 2 4 5
6 5 5 6 9 9 8 9 10 11 11 10 9 10 15 13 12 10 8 6 4 4 5 5 4 4 4 2 2 1 3 4 5 5 6 4 3 3 1 1 1 2 4
2 4 5 8 10 9 9 12 11 12 12 10 10 11 13 12 12 12 11 10 9 6 5 5 6 4 3 2 4 4 5 5 5 7 8 9 7 7 5 4 2 2 3
2 4 6 8 11 12 10 11 10 11 11 11 11 11 10 10 11 10 10 9 9 9 7 8 8 7 6 6 6 7 7 7 8 10 10 12 12 11 10 10 7 5 5
3 6 10 12 12 11 9 9 9 9 10 10 10 9 9 9 9 10 10 10 11 11 10 9 8 7 7 7 7 8 9 8 9 9 12 14 16 14 15 13 11 8 7
7 10 11 11 11 10 8 7 7 7 8 9 8 8 8 8 9 11 11 12 12 12 12 11 11 10 9 8 9 9 9 10 9 10 11 12 14 16 16 16 15 13 10
11 12 12 12 10 10 9 7 7 6 7 8 7 8 7 8 8 10 11 12 12 11 12 12 12 11 10 10 10 10 10 10 10 8 10 13 13 16 17 19 15 19 14
12 13 12 12 10 9 9 8 7 7 7 7 6 6 6 6 6 8 10 11 12 12 13 14 13 12 12 12 13 12 12 12 12 10 9 9 11 13 16 18 17 16 20
13 13 12 11 9 8 9 8 7 7 6 6 6 5 6 6 6 6 8 9 10 12 12 12 12 12 11 11 11 13 13 13 11 11 9 8 8 12 14 16 18 19 18
14 13 12 10 8 7 6 7 7 6 6 5 6 6 5 4 4 5 5 6 9 10 10 10 10 11 11 10 11 12 12 14 14 12 12 11 11 11 13 15 17 19 21
12 11 10 8 7 5 3 4 4 3 4 5 3 4 4 4 6 7 5 6 7 9 9 9 9 10 12 11 11 13 14 14 15 13 14 13 13 12 14 17 18 19 19
9 9 8 8 9 7 5 2 3 2 1 4 3 4 6 7 9 11 11 10 9 9 8 8 8 9 11 12 13 13 15 16 15 15 15 15 14 14 13 14 19 20 22
9 10 10 9 9 9 8 5 2 3 2 2 3 4 6 7 8 10 10 11 12 12 11 12 11 11 13 13 13 13 14 14 15 15 15 15 16 15 14 13 13 18 21
10 10 11 11 10 7 6 4 4 4 5 5 5 6 6 8 8 9 11 13 14 14 14 13 12 13 14 16 15 14 14 16 15 16 17 17 16 16 15 13 12 14 17
11 13 12 11 11 9 8 7 6 6 6 6 6 8 9 10 11 13 14 15 16 15 14 14 12 13 14 15 16 16 15 15 15 15 16 19 19 18 17 15 13 12 15
10 12 13 13 11 11 11 9 7 8 9 10 11 12 14 16 16 16 18 18 17 15 14 13 13 14 14 13 15 18 19 17 16 17 17 17 17 18 18 17 17 15 15
12 13 14 14 14 14 13 12 11 12 14 16 18 20 25 24 20 20 20 20 17 15 14 13 13 13 13 13 15 17 19 21 22 20 19 19 19 19 19 21 20 20 19
16 16 16 16 17 17 16 16 17 18 20 22 25 28 23 22 22 21 21 20 19 17 17 16 14 14 13 15 17 18 20 21 22 23 23 23 22 21 19 19 21 24 24
17 20 20 19 19 19 20 21 21 23 27 27 24 24 24 22 21 21 22 24 22 20 18 16 16 16 17 18 19 21 22 21 21 20 22 25 25 24 24 27 26 27 28

GFSSE_500_spd_006.txt.gz
Wind_Speed
20 20 20 21 23 25 26 24 18 17 20 20 20 19 17 16 14 12 10 9 8 8 9 8 10 11 11 10 10 11 11 12 11 11 10 11 10 12 13 13 12 12 12
15 14 16 16 19 19 18 21 20 20 19 18 17 15 14 13 11 8 9 8 7 8 7 8 10 11 12 10 9 10 10 10 11 11 9 11 11 10 12 13 13 11 10
15 17 16 17 19 19 22 20 19 17 15 14 15 14 13 11 9 7 8 10 10 9 8 8 10 11 11 10 9 9 11 7 10 11 10 10 10 10 13 12 12 12 10
15 17 16 17 18 19 18 16 14 12 13 13 14 12 10 9 7 5 6 9 9 10 9 8 9 9 9 9 7 7 9 9 11 7 9 9 9 9 8 9 7 7 8
14 15 15 15 15 16 16 13 11 12 12 12 12 8 7 7 8 6 6 8 9 8 8 8 8 8 9 8 5 7 6 6 10 8 8 8 6 7 7 7 6 5 7
13 14 13 12 13 12 12 12 11 12 11 10 8 7 7 7 6 5 6 9 9 7 8 8 7 6 8 7 5 5 5 4 5 7 7 8 5 5 4 5 7 6 7
12 12 12 11 11 11 11 11 11 11 9 9 9 7 6 7 7 5 5 7 8 8 8 6 7 6 5 5 4 3 2 3 6 5 2 3 2 3 3 1 2 6 6
10 8 7 8 10 11 12 12 11 10 9 8 9 9 9 8 8 5 4 4 4 6 7 7 6 5 4 3 3 3 3 3 2 4 1 0 0 1 2 1 2 5 5
5 5 6 8 9 11 11 12 11 11 10 11 12 13 14 11 9 7 6 5 4 4 5 5 4 3 2 2 0 1 3 5 5 6 3 3 6 4 2 1 2 3 5
3 4 7 8 9 11 13 13 12 11 11 11 10 10 10 10 10 10 10 9 10 7 7 7 6 4 3 2 4 5 4 6 6 7 8 8 6 6 6 5 3 3 4
4 6 7 9 12 13 12 12 11 11 10 10 9 9 9 11 11 12 11 11 10 7 6 5 7 6 5 4 4 4 6 7 8 9 11 10 10 11 11 10 9 6 6
4 6 11 13 12 11 11 10 10 10 9 9 9 8 10 11 12 12 12 13 13 13 12 11 10 8 8 8 8 7 5 5 7 10 10 12 13 14 14 15 13 11 8
5 9 11 11 10 9 8 8 8 8 9 8 8 9 10 11 13 14 13 14 14 14 14 13 13 12 12 12 12 11 10 9 6 7 9 10 12 11 13 17 18 15 13
10 11 11 10 9 9 8 7 7 8 8 8 8 8 8 10 12 12 12 13 14 14 14 15 15 14 13 13 13 12 11 10 9 8 7 8 9 10 12 14 18 18 17
13 13 12 10 10 8 7 8 7 8 7 7 6 6 6 8 8 9 10 12 12 12 13 13 12 11 10 11 12 12 13 12 12 10 9 8 7 8 9 12 13 16 19
12 12 11 10 9 8 7 7 7 7 6 5 5 5 5 6 6 7 7 8 8 9 10 11 11 11 11 11 11 11 11 12 12 12 11 10 9 9 10 12 14 16 16
12 10 10 8 6 5 4 5 5 6 7 6 5 5 4 3 4 4 5 6 6 7 8 8 9 10 10 10 10 11 12 11 10 10 10 10 11 11 11 13 15 17 17
11 9 8 7 5 4 2 2 2 2 3 3 3 2 3 4 4 5 4 5 6 7 7 8 11 12 13 12 11 12 12 12 12 11 11 10 9 9 11 10 13 15 17
9 10 9 8 9 7 5 3 4 3 1 2 3 3 2 4 4 5 6 7 9 9 8 9 11 13 14 13 14 13 12 12 12 12 13 14 13 10 8 10 11 12 14
10 10 10 9 9 9 9 7 5 3 2 0 3 3 5 5 7 6 7 9 10 10 11 10 13 13 13 13 14 14 13 13 13 13 12 14 15 13 12 11 14 13 11
11 12 12 11 10 9 8 7 4 4 4 4 6 4 6 7 10 11 11 12 13 14 12 12 13 12 12 13 13 15 13 13 13 12 13 15 16 15 14 13 11 13 14
12 12 12 12 12 12 11 9 8 6 5 6 6 7 7 10 13 15 15 15 15 15 14 13 13 11 11 13 13 13 13 13 13 12 13 14 17 15 17 17 15 14 15
10 12 13 13 13 13 13 10 8 8 8 8 10 11 12 16 22 23 22 19 18 17 17 15 15 14 13 13 13 12 13 14 12 12 13 14 16 16 17 21 19 19 17
13 12 13 13 14 14 12 12 13 13 13 14 15 16 19 24 22 21 21 21 19 18 19 18 18 18 15 15 14 13 14 16 16 15 14 13 15 17 19 18 19 22 23
14 14 14 15 16 16 16 16 17 17 18 20 21 23 26 23 21 20 21 20 19 18 18 18 18 20 18 16 15 16 16 19 20 19 18 14 15 16 16 18 20 21 25
17 17 18 18 19 18 18 18 20 21 21 23 25 22 20 19 19 19 20 21 21 21 19 17 19 20 20 19 18 19 19 19 23 22 21 21 20 20 23 23 24 26 28

GFSSE_500_spd_009.txt.gz
Wind_Speed
18 17 19 20 23 24 20 13 15 15 16 17 15 13 11 10 8 8 7 6 7 6 6 7 7 7 7 8 10 11 12 11 11 10 10 9 9 10 11 11 10 10 10
14 14 15 19 11 14 10 13 17 16 17 16 14 11 9 8 7 7 7 6 4 3 5 7 7 8 8 8 9 8 11 12 10 10 10 10 10 9 10 11 10 9 9
14 14 11 9 13 14 15 16 16 15 15 14 11 9 7 6 6 5 6 6 6 5 5 8 8 7 9 7 7 6 7 7 9 9 8 6 8 8 10 12 10 8 8
15 15 15 15 16 16 15 14 14 12 11 11 11 8 6 4 4 3 5 4 5 7 8 8 9 7 7 6 5 6 8 9 8 7 8 7 7 6 5 7 5 5 5
13 14 14 14 14 14 12 11 10 9 9 9 8 6 4 4 2 3 4 4 5 7 7 7 7 6 5 4 5 5 4 8 7 5 5 6 6 6 4 2 3 3 2
12 11 12 11 11 11 10 10 10 8 8 7 5 4 4 4 3 4 4 6 6 8 6 4 4 5 5 3 3 4 2 5 5 5 6 7 6 5 4 2 0 2 4
11 11 9 8 8 8 9 10 8 7 7 6 5 4 5 5 4 5 5 6 8 8 6 4 3 2 3 3 1 1 1 1 3 1 3 3 3 1 2 1 0 2 3
10 8 6 6 8 9 9 9 8 7 8 8 7 7 6 6 5 3 3 3 6 6 6 5 4 2 1 1 1 2 3 3 1 4 1 2 3 2 1 1 2 3 4
6 6 7 8 9 9 10 9 9 9 10 11 11 11 10 8 6 6 6 4 3 4 3 3 2 1 1 1 2 2 3 6 7 6 6 4 7 6 4 1 2 3 4
5 7 9 8 8 10 11 11 11 10 10 10 11 11 11 10 10 8 7 7 6 5 5 5 3 2 1 1 1 2 3 5 7 8 9 6 6 6 5 5 5 4 4
5 7 8 10 11 12 11 10 10 10 9 10 11 13 13 12 11 11 10 10 8 7 8 6 6 6 6 5 4 4 4 5 6 8 10 11 9 7 8 9 10 10 7
5 7 11 13 12 11 10 9 8 9 9 11 13 13 14 13 14 14 15 14 13 12 12 12 11 11 11 10 9 8 6 4 4 5 7 7 10 12 12 12 11 12 12
9 12 12 11 11 10 9 9 7 8 10 11 12 13 13 13 13 13 13 14 13 13 14 14 13 13 12 12 11 10 10 10 8 7 6 7 7 7 6 10 13 15 15
12 12 11 10 10 9 9 9 8 8 9 10 10 10 11 11 11 11 10 13 17 11 13 13 12 12 11 11 11 12 12 11 10 9 9 9 7 7 7 8 12 15 18
13 12 11 9 8 8 9 9 9 8 8 7 6 7 9 9 9 8 8 10 10 8 10 10 10 9 8 8 9 10 10 11 11 11 10 9 9 7 7 8 10 12 13
13 12 10 9 8 8 8 8 8 8 5 5 3 4 6 7 6 5 5 5 6 6 6 7 8 8 10 10 11 10 11 11 10 9 10 11 10 9 8 8 10 11 15
13 11 10 9 7 7 6 6 5 5 6 4 3 3 3 3 4 3 3 4 5 6 6 7 8 8 10 11 12 12 12 12 11 11 9 8 10 10 10 9 10 11 13
11 10 9 8 6 4 3 2 2 2 3 3 3 3 2 2 3 4 4 4 6 7 8 9 10 12 13 13 14 14 14 13 13 13 12 10 9 9 9 9 9 9 10
8 8 8 7 5 5 3 2 3 3 2 2 2 2 1 2 2 3 5 7 9 11 11 11 13 13 14 14 15 15 13 13 14 13 12 12 9 9 9 12 11 10 11
8 8 7 7 7 8 7 7 6 4 2 1 1 3 3 1 4 4 6 8 10 12 14 14 15 14 14 14 15 15 15 13 13 14 14 13 13 12 9 9 12 14 12
10 10 10 10 9 8 7 6 3 3 4 4 5 4 5 6 8 9 11 13 13 14 16 16 15 14 14 14 14 15 14 14 13 13 14 16 15 15 15 14 14 15 14
13 12 12 11 10 9 9 8 7 7 6 6 7 8 8 9 11 16 18 17 17 16 16 16 17 15 15 15 15 15 14 12 14 13 14 16 17 16 15 13 15 17 14
12 13 13 11 11 11 10 10 9 9 9 9 10 12 12 14 17 22 19 17 18 19 17 16 18 17 17 17 18 17 16 15 13 13 15 16 17 19 17 14 15 16 15
14 12 12 12 13 12 11 12 13 11 12 14 15 17 19 20 22 22 20 19 18 20 18 18 18 19 20 19 20 20 19 18 17 15 14 14 15 17 19 17 17 17 18
14 14 15 13 15 15 14 14 14 14 16 18 21 22 23 24 21 20 19 19 19 20 21 21 21 19 19 20 22 22 22 22 21 20 20 17 14 15 16 18 20 19 20
16 16 17 17 18 19 18 16 16 17 19 20 22 24 21 21 20 19 19 20 21 22 23 24 24 23 20 21 23 24 24 25 26 25 24 22 20 16 15 16 19 23 24

GFSSE_500_spd_012.txt.gz
Wind_Speed
16 19 23 24 15 14 17 12 11 11 12 11 12 10 7 6 5 3 3 5 5 7 7 6 6 8 9 10 12 13 13 14 12 11 11 11 11 11 10 10 10 10 9
13 13 5 11 12 10 14 12 12 13 13 11 10 9 6 5 3 5 5 6 6 6 5 6 6 8 8 8 9 12 13 11 12 10 13 13 11 11 11 11 10 8 7
11 9 11 12 11 13 15 13 12 12 11 10 8 7 4 3 4 6 7 8 9 6 4 6 7 7 7 6 7 8 7 9 10 9 10 8 9 9 11 11 9 7 5
13 13 15 14 14 13 12 11 11 11 9 8 7 4 2 2 4 6 7 9 9 6 4 5 7 7 5 6 5 6 9 6 9 8 7 6 4 5 7 7 7 7 4
15 14 13 13 12 11 10 10 10 8 7 6 4 1 1 2 5 7 9 9 7 6 5 6 4 5 5 5 4 2 7 5 3 7 6 3 6 4 3 4 3 2 2
12 10 11 10 10 9 9 9 9 8 6 5 2 2 3 4 5 8 11 9 7 6 6 5 4 2 2 3 4 5 2 3 5 3 5 7 5 4 5 5 3 1 1
11 9 7 8 8 8 8 7 8 7 6 4 2 3 3 4 6 9 9 8 8 8 7 5 4 2 1 1 1 2 1 2 4 7 4 5 6 5 5 3 2 1 1
8 6 6 8 8 7 6 7 9 9 8 6 6 6 6 7 6 6 6 5 5 5 6 5 5 3 2 0 1 2 5 3 2 2 8 4 6 5 6 5 3 2 2
5 6 7 7 7 6 8 9 10 9 10 10 10 11 10 9 8 8 7 6 4 3 3 2 2 2 3 3 3 2 6 4 6 6 11 1 2 8 7 5 4 5 3
4 6 7 7 6 8 9 10 10 10 11 11 11 11 11 10 9 9 8 6 4 4 4 5 5 6 6 5 3 2 7 9 9 10 3 6 4 3 6 5 3 4 6
5 7 8 8 9 10 9 10 10 10 11 11 12 13 13 14 14 12 10 9 11 9 10 10 10 11 8 7 7 5 4 7 9 9 8 6 4 3 5 8 8 6 5
7 8 10 10 11 10 10 10 10 11 12 12 13 13 16 6 13 12 14 15 15 18 15 12 14 12 12 12 12 11 9 10 10 8 7 7 5 5 6 11 12 9 8
8 12 12 11 9 9 9 9 11 12 12 12 13 14 14 14 9 13 9 13 7 13 15 11 14 14 12 13 14 15 14 14 14 13 10 8 5 5 6 6 10 11 11
13 13 11 10 10 10 9 10 11 11 11 12 11 10 13 12 9 15 12 13 10 17 1 9 12 10 10 10 11 12 12 12 13 15 15 13 9 6 4 5 7 6 10
15 13 12 11 11 11 10 10 10 9 10 9 9 9 9 11 8 13 8 8 7 7 8 11 11 9 9 9 9 11 10 10 10 11 12 13 12 9 6 4 6 8 9
15 13 13 13 11 11 10 9 7 6 6 7 6 7 7 7 5 5 5 5 5 7 9 9 7 8 9 11 11 11 11 12 11 10 10 10 11 11 11 8 6 7 8
13 12 12 11 10 9 8 8 7 4 4 4 5 5 3 4 3 4 4 6 7 8 8 8 9 10 10 12 13 13 13 12 11 11 10 10 10 11 12 11 9 9 9
11 10 10 9 7 6 5 5 5 5 4 3 3 2 2 2 2 3 3 5 6 9 9 11 11 11 12 11 12 12 12 12 12 12 12 11 10 11 12 11 10 11 10
10 8 7 5 3 2 2 2 2 2 2 2 3 2 1 0 3 3 6 7 7 10 12 13 13 15 15 16 14 13 12 12 12 13 12 11 10 9 13 12 12 10 10
9 7 6 4 2 3 3 3 3 1 2 3 2 1 2 1 3 4 6 9 12 13 14 14 15 15 15 17 15 15 15 12 12 13 12 12 11 11 11 13 12 14 13
8 7 5 4 4 4 4 2 2 2 2 2 1 2 3 5 7 8 10 15 16 16 16 17 14 15 16 16 16 16 16 15 13 12 12 11 11 11 12 10 10 13 14
8 7 8 8 7 6 4 4 5 5 4 5 5 6 7 9 11 14 18 19 18 17 18 18 17 16 15 17 16 16 15 14 16 14 15 14 12 10 11 11 11 11 14
10 12 11 9 9 8 7 7 6 6 6 7 8 10 12 14 17 19 21 20 20 19 20 20 20 20 17 17 18 17 17 18 17 14 16 19 17 14 11 11 14 10 10
12 12 12 13 12 11 10 10 9 8 9 10 11 14 16 19 20 20 19 18 19 19 19 19 19 22 23 21 19 21 19 20 21 20 17 17 19 24 19 13 15 14 11
15 15 16 15 13 14 14 13 12 11 13 13 14 17 18 19 18 19 18 19 19 22 23 24 24 24 25 25 24 21 23 22 23 23 24 21 21 16 19 26 19 16 19
21 17 15 16 18 17 17 16 17 17 15 15 17 16 19 18 17 14 15 17 18 18 20 23 24 25 26 26 26 26 26 24 24 26 26 26 25 25 21 19 21 21 20

GFSSE_500_spd_015.txt.gz
Wind_Speed
11 20 22 20 10 6 15 12 10 8 8 8 10 10 7 6 6 8 6 5 4 7 9 9 9 12 12 12 13 13 13 13 14 13 15 15 14 12 11 11 9 11 11
18 16 8 14 12 14 14 12 11 10 10 11 9 8 7 7 8 7 7 5 4 7 9 7 9 9 11 11 11 12 11 14 14 14 15 15 15 14 14 13 11 12 10
13 11 13 16 16 16 13 11 10 11 9 8 8 7 7 7 5 6 8 6 7 8 9 7 8 8 9 9 10 10 9 13 14 10 11 12 12 13 14 13 10 9 8
15 14 16 15 14 13 10 10 10 10 8 7 7 5 6 5 4 7 7 7 8 9 8 7 8 7 7 7 7 9 6 12 11 9 10 10 7 8 8 10 9 9 7
15 14 14 14 12 10 9 9 10 8 6 5 5 5 5 4 7 9 8 9 9 8 7 7 7 7 5 5 5 4 4 5 8 6 8 5 8 8 7 6 6 4 4
13 12 12 12 11 9 8 10 9 7 5 5 4 5 5 6 8 9 9 10 10 9 8 8 7 5 3 3 4 3 3 3 3 4 7 6 7 8 8 8 5 3 2
11 9 10 10 10 9 10 10 8 7 6 5 5 6 6 7 7 9 11 9 9 9 10 9 6 3 1 1 2 3 2 2 5 8 6 6 8 8 6 8 6 4 1
8 9 9 9 9 9 10 10 9 9 9 9 10 9 9 8 9 8 8 7 8 9 9 7 6 4 3 2 2 4 4 5 10 6 10 10 6 8 6 7 6 6 3
7 9 9 9 9 10 11 11 11 12 13 13 11 10 11 11 10 11 11 10 9 9 8 8 7 6 5 6 6 7 6 8 13 16 7 11 5 1 3 4 6 6 6
7 9 9 10 10 13 12 12 12 13 13 11 11 13 12 10 10 13 11 11 11 9 11 10 7 6 7 7 7 8 10 8 10 14 20 7 2 1 2 3 3 2 3
7 10 11 12 13 13 12 13 13 13 13 12 15 14 12 13 17 13 14 17 16 15 16 15 15 12 11 11 11 13 15 15 15 12 10 5 1 2 2 4 3 1 2
8 11 14 13 13 13 13 13 14 14 13 12 14 13 10 16 16 13 16 16 18 16 14 14 12 16 12 11 14 14 17 11 16 16 14 6 5 2 3 6 6 4 5
10 13 14 13 10 12 13 14 14 15 13 12 13 11 12 13 10 13 16 15 15 13 8 13 14 15 13 11 11 14 15 16 17 17 16 15 11 7 5 3 3 4 7
13 15 12 11 11 11 14 14 13 14 12 10 11 13 11 9 9 7 14 13 11 11 10 11 12 13 10 10 12 12 12 13 14 15 16 16 15 12 7 5 4 3 6
14 13 12 13 13 13 13 13 12 10 10 9 9 10 9 10 10 8 11 12 9 8 11 9 11 12 11 10 10 11 11 11 12 12 12 12 12 11 11 8 6 5 6
12 13 14 13 14 13 12 10 9 8 8 7 6 7 8 7 7 7 7 6 7 10 12 13 12 10 9 10 11 12 11 11 12 10 10 10 11 10 9 9 8 7 7
12 14 14 13 12 12 11 9 8 8 8 7 5 3 4 5 5 5 6 8 11 13 13 12 11 10 10 10 9 9 9 9 10 10 10 8 8 8 8 8 8 8 9
13 13 13 12 12 10 9 8 8 7 7 6 4 3 3 4 4 5 6 7 8 9 11 13 13 14 14 11 10 8 8 8 8 9 7 9 8 8 9 9 8 7 9
14 12 10 8 7 8 8 7 5 4 5 5 5 3 2 2 3 4 6 7 9 10 12 12 13 14 15 16 13 12 10 8 7 6 7 5 7 10 9 9 9 8 9
11 11 10 7 5 5 3 3 3 4 5 5 3 2 1 2 4 6 7 10 13 15 15 15 14 15 14 16 16 15 11 10 8 7 6 5 6 8 8 9 7 7 9
7 6 6 6 2 1 3 2 3 4 4 5 4 2 3 4 6 9 12 16 17 17 16 16 16 17 17 15 14 17 16 13 11 9 8 8 6 6 5 9 10 9 8
7 6 5 3 3 3 4 3 2 3 3 3 2 1 5 8 11 14 16 19 18 18 18 17 16 17 17 17 15 15 14 15 14 16 15 12 9 10 7 6 9 10 10
9 9 6 6 6 6 5 5 4 6 5 4 3 5 7 9 13 15 15 15 15 15 14 15 15 15 16 18 18 18 16 16 15 13 16 16 16 13 12 12 8 10 14
10 8 8 9 9 8 8 9 8 8 9 6 5 6 10 12 13 14 14 11 12 12 14 15 18 19 18 18 19 21 20 19 19 18 16 16 18 20 16 18 16 10 13
12 12 13 11 10 12 11 11 11 12 11 10 9 8 8 13 11 12 11 10 12 12 13 17 20 22 22 20 19 19 21 22 23 23 20 20 19 18 21 22 17 19 14
16 16 16 17 15 15 14 15 15 15 15 14 12 10 11 13 8 8 8 7 9 14 19 21 23 25 26 21 19 18 19 22 23 24 25 25 25 23 23 20 20 21 22

GFSSE_500_spd_018.txt.gz
Wind_Speed
13 17 17 11 9 12 14 10 9 7 6 5 5 8 8 9 10 10 8 9 8 7 9 9 10 10 12 12 12 11 10 10 10 11 12 14 15 14 14 12 11 11 10
22 12 10 12 11 13 12 10 9 8 7 7 8 8 7 9 11 9 8 8 6 6 7 9 10 10 12 11 10 10 9 11 12 12 13 16 17 16 16 16 14 12 10
14 14 14 13 15 13 11 11 9 8 7 7 7 6 7 9 9 7 7 8 6 7 8 8 8 8 9 11 10 8 8 9 9 9 11 14 14 15 14 15 15 13 11
15 15 15 14 15 13 11 9 8 7 7 7 6 5 7 8 7 7 6 7 8 7 7 6 6 8 8 7 7 7 8 7 6 7 9 10 10 9 9 12 14 13 10
15 15 14 13 13 11 10 8 6 6 5 4 4 6 8 8 9 9 8 7 6 7 6 5 4 5 8 7 5 3 4 3 3 4 9 7 7 7 5 7 9 10 9
15 13 12 13 12 10 8 7 6 5 3 4 6 6 8 10 10 10 10 8 8 7 5 4 4 4 4 4 5 3 4 1 8 5 7 7 6 7 8 6 6 7 7
13 11 11 11 11 10 9 8 5 5 6 6 6 7 10 9 9 10 10 9 8 7 8 8 7 6 5 5 6 5 5 8 12 2 10 9 4 6 7 7 5 5 6
11 11 10 10 11 11 9 8 8 8 8 10 11 12 10 11 12 13 11 9 8 9 8 7 7 9 9 7 7 10 8 10 18 24 18 12 7 3 5 6 6 5 6
8 10 11 11 12 11 10 11 11 11 12 13 12 13 13 15 18 16 12 12 12 10 10 12 12 11 10 9 11 11 10 9 10 20 11 16 8 2 1 3 6 6 5
7 10 12 12 13 12 12 13 12 12 12 12 13 13 15 17 19 16 16 18 12 14 15 16 15 14 14 16 16 13 12 15 15 11 13 5 6 2 3 4 4 3 3
7 11 13 14 14 13 13 13 12 13 14 15 15 15 19 19 18 20 21 17 16 16 15 16 16 15 16 17 19 17 18 19 17 14 8 3 2 3 5 5 5 3 1
9 12 14 14 14 13 14 14 14 13 14 15 11 13 17 17 15 20 17 15 14 15 15 15 15 13 14 14 16 16 17 18 17 16 15 9 5 2 4 4 6 6 4
13 14 15 15 14 14 15 14 14 14 13 13 12 14 13 17 16 14 15 17 13 16 10 12 13 12 13 14 11 14 13 12 13 12 11 11 11 6 5 3 1 3 3
16 15 14 14 14 15 15 14 13 13 11 12 12 14 12 12 13 13 15 12 12 11 11 12 12 11 10 10 12 11 10 9 10 10 10 10 9 8 6 5 3 3 4
17 15 14 14 14 14 14 14 13 12 12 12 11 11 12 13 11 9 11 10 10 10 11 11 10 9 8 9 10 12 12 8 8 8 9 9 8 8 7 5 4 4 4
14 14 15 14 14 14 12 11 11 9 10 11 11 10 8 8 6 6 9 8 10 8 7 8 8 9 11 12 13 12 12 9 9 8 7 7 7 8 7 6 5 5 6
14 15 15 13 13 12 11 9 9 9 8 8 7 7 7 5 7 7 8 7 8 7 9 10 10 11 13 12 11 12 11 9 8 8 8 7 7 7 8 8 7 7 7
15 15 14 13 13 11 10 9 10 10 7 7 5 4 4 4 7 6 7 8 9 11 11 11 12 13 12 11 11 10 9 10 8 8 8 7 6 5 5 5 5 6 7
17 15 15 14 13 13 10 9 9 9 9 6 5 4 5 5 6 6 7 8 12 13 13 13 15 15 14 12 9 9 9 9 10 8 7 8 7 7 6 5 4 4 6
15 14 13 11 10 9 8 6 6 7 7 5 3 3 4 4 5 7 8 11 15 16 15 15 14 14 14 14 13 9 7 8 7 9 7 7 9 8 8 7 5 6 6
13 10 9 9 7 7 7 6 6 7 7 5 4 2 3 4 5 8 11 15 16 14 13 13 13 14 12 12 13 12 10 10 8 8 6 6 8 10 9 9 9 8 8
12 10 8 6 6 6 5 4 6 6 6 6 3 2 1 4 7 10 12 13 13 10 9 12 13 15 17 14 12 12 12 12 14 11 9 10 9 7 10 12 12 12 11
12 12 11 8 5 5 7 6 5 6 6 6 4 2 2 6 9 9 10 12 12 13 13 15 18 20 20 20 18 16 13 12 12 14 14 13 14 16 13 9 13 15 15
7 7 8 9 9 8 7 7 7 6 7 6 4 5 6 7 10 9 11 11 12 12 14 14 17 20 22 21 19 18 16 14 12 12 14 14 17 16 18 18 15 15 19
5 6 7 6 6 6 8 9 9 10 9 8 9 8 9 10 12 12 12 9 9 9 10 11 14 19 22 22 17 16 14 14 14 14 14 14 15 19 21 20 22 19 16
7 10 11 12 12 10 10 12 12 12 11 12 12 12 11 12 13 13 10 7 7 10 13 18 19 19 21 21 11 12 13 13 14 16 15 16 18 18 19 22 22 21 23

GFSSE_500_spd_021.txt.gz
Wind_Speed
10 15 15 10 10 12 11 9 7 9 9 7 7 7 11 10 9 9 8 8 8 7 7 8 9 9 10 10 9 8 6 6 10 11 10 10 12 12 13 14 14 13 13
14 11 9 8 11 9 9 9 9 8 8 7 5 9 7 9 9 10 7 7 8 7 6 7 7 6 8 9 9 8 7 8 9 12 14 14 14 14 14 14 13 13 12
11 10 10 12 10 10 9 10 9 7 7 5 7 8 9 9 9 8 7 7 7 7 7 8 7 5 5 7 7 7 7 6 7 9 12 15 15 13 14 14 13 10 8
15 13 13 12 11 11 9 10 8 6 6 8 9 9 10 10 8 6 7 7 6 7 6 7 6 5 4 5 5 4 6 5 5 6 6 10 11 12 12 12 11 9 7
13 13 12 11 11 11 9 8 5 5 7 8 9 10 10 10 9 8 8 8 7 7 6 6 6 5 6 5 6 7 2 3 3 2 6 5 4 5 10 11 10 8 7
12 11 11 10 9 10 8 6 5 6 7 8 10 9 10 10 10 10 10 12 12 10 8 8 8 7 5 4 6 8 8 5 12 7 4 7 6 4 7 9 9 8 5
11 10 8 8 8 9 7 6 7 7 8 10 10 10 11 10 9 9 10 11 11 10 11 10 9 9 6 7 9 8 7 8 10 6 9 8 8 4 6 7 8 8 7
10 10 8 9 9 9 8 8 8 10 11 12 12 13 12 11 10 11 11 10 11 12 12 11 9 9 9 10 7 7 6 7 9 7 18 11 9 7 5 4 5 5 7
6 11 9 9 9 10 10 11 13 13 13 13 14 13 13 11 13 14 14 17 17 17 17 16 15 17 14 12 14 14 13 11 13 9 21 14 8 6 6 4 4 4 4
6 9 10 10 10 12 13 13 14 14 14 15 14 15 14 16 17 17 20 22 20 20 20 18 18 18 17 16 18 17 15 15 13 15 8 15 6 4 2 3 2 4 4
6 10 10 11 12 13 13 13 15 15 16 17 16 17 16 18 18 19 19 20 17 17 19 19 17 18 17 17 16 17 17 16 16 11 7 6 4 0 1 2 3 3 3
8 11 11 12 13 14 14 14 14 13 14 16 15 16 14 15 17 16 15 18 16 15 16 14 14 14 13 13 13 13 13 13 12 12 11 7 6 7 1 4 7 6 6
12 12 13 12 14 16 15 14 14 13 13 14 13 15 18 13 14 15 16 14 13 13 13 13 12 12 12 12 12 11 10 11 10 11 12 10 7 5 4 2 1 4 5
14 15 14 13 15 16 15 15 13 12 14 14 15 12 12 12 12 13 12 14 12 11 12 12 12 13 13 12 9 9 8 8 9 9 9 9 9 5 4 4 2 2 1
16 16 13 14 16 15 15 14 13 12 13 14 13 14 13 9 9 9 10 11 9 8 9 9 11 12 11 10 9 9 9 8 7 7 8 7 7 6 5 2 3 3 2
15 15 15 14 15 15 14 14 13 12 11 11 10 10 10 9 8 8 8 9 9 9 11 11 10 9 7 7 8 10 9 10 8 7 7 7 7 6 6 5 4 2 2
16 16 15 15 15 13 12 13 12 13 11 10 8 9 8 9 9 6 7 7 8 11 11 11 10 10 7 5 6 6 7 8 10 10 9 7 6 4 3 4 4 5 5
16 15 15 14 14 12 11 11 11 12 11 10 8 7 7 8 6 4 4 7 11 12 11 11 11 10 8 8 5 3 3 5 7 9 9 9 7 7 7 6 3 4 6
18 16 13 13 15 13 11 12 11 11 9 7 7 7 5 5 4 4 4 7 10 12 10 11 10 10 10 8 6 3 3 3 4 6 8 8 9 9 8 8 7 6 7
15 15 12 12 13 12 10 8 8 6 6 5 5 5 5 4 2 2 4 9 12 12 11 12 12 13 14 14 11 7 5 4 3 3 6 6 7 7 8 9 9 10 10
13 13 13 13 11 9 9 8 9 10 8 6 5 5 5 4 1 5 8 11 11 11 13 15 16 17 16 15 14 13 12 8 6 5 6 7 8 8 8 9 9 10 11
14 14 12 11 10 9 9 8 9 9 8 7 5 4 2 1 4 8 11 12 13 13 13 15 16 17 20 21 18 13 12 13 10 8 7 7 7 8 10 10 12 12 12
12 11 13 13 11 9 9 8 7 8 8 7 6 4 3 6 7 9 13 12 13 13 13 12 15 19 22 21 22 15 11 11 13 10 8 10 10 10 11 12 14 14 15
14 14 12 12 10 9 8 8 8 7 9 8 7 6 6 7 10 14 13 12 13 11 10 12 13 18 24 22 16 10 10 9 9 10 10 10 11 12 14 15 16 16 16
13 15 15 12 9 7 8 9 10 10 9 9 10 10 10 10 14 16 13 12 9 7 10 12 15 13 20 20 15 11 8 9 9 8 9 12 13 16 16 17 18 18 20
13 11 9 10 11 10 10 10 10 12 11 12 13 12 12 13 16 15 14 8 7 9 10 11 15 14 14 16 16 15 12 10 11 12 12 12 12 15 18 20 20 21 19

GFSSE_500_spd_024.txt.gz
Wind_Speed
15 16 12 10 12 10 9 8 9 10 11 12 10 9 11 11 10 10 10 11 10 12 9 9 10 12 13 13 12 11 12 11 12 13 8 7 7 10 14 18 16 14 13
15 9 11 11 11 8 7 8 10 10 11 10 9 10 10 11 11 11 11 10 9 10 10 8 9 10 11 11 11 8 10 11 12 15 11 11 10 12 14 16 15 13 11
10 9 11 12 8 8 8 9 9 11 11 10 9 10 12 12 11 10 11 10 10 9 8 8 8 9 10 10 9 8 6 8 9 12 14 13 12 12 14 15 14 12 9
10 11 13 9 7 8 8 9 11 10 10 10 11 13 14 13 13 12 12 12 11 11 9 7 9 8 6 7 7 5 4 4 6 6 10 13 12 10 11 12 12 10 8
10 13 9 8 7 8 9 10 10 9 10 12 13 15 15 14 14 14 14 13 12 12 10 8 7 7 6 8 7 6 0 3 3 4 6 6 9 9 9 10 11 10 9
10 10 9 7 6 8 9 10 9 10 10 12 15 15 13 14 13 13 14 14 13 12 11 10 9 8 7 7 6 5 6 1 4 5 6 7 10 9 8 8 8 8 8
10 8 8 7 7 8 10 10 10 10 12 15 15 12 12 12 11 11 11 12 13 13 12 12 11 10 9 7 7 6 6 6 6 11 10 8 8 10 7 7 7 6 7
7 8 7 7 8 10 10 10 10 13 16 16 14 12 13 12 10 9 11 13 14 15 16 16 14 12 10 11 11 9 9 7 5 9 12 9 7 7 8 6 5 6 7
4 8 8 9 11 11 12 13 14 17 16 16 15 14 14 12 11 16 19 20 19 21 21 19 18 19 17 16 14 13 14 14 14 11 13 10 8 5 6 5 5 5 6
5 7 9 11 12 12 14 14 16 17 16 15 16 18 17 18 19 20 21 21 22 21 21 19 18 17 17 16 16 16 17 18 16 14 11 6 4 2 2 3 3 3 5
6 7 10 12 13 13 14 15 16 17 16 17 19 19 19 19 19 19 21 21 21 20 17 16 14 13 14 14 14 13 14 16 14 8 8 7 11 4 4 3 3 3 2
8 10 11 12 14 14 14 16 16 17 17 19 17 18 17 17 16 16 15 17 17 16 14 13 12 11 12 12 12 13 13 14 13 12 9 5 6 4 3 2 3 5 5
8 11 13 12 14 15 16 16 15 14 16 16 19 17 15 15 17 15 14 15 16 15 14 14 12 11 11 12 13 12 11 11 11 9 9 6 3 3 3 3 2 1 4
10 12 13 14 15 15 15 15 15 15 16 17 14 15 14 14 13 14 13 14 14 13 12 11 11 11 12 13 13 13 10 9 9 9 8 7 7 4 5 4 4 3 1
12 15 13 15 16 14 14 14 15 15 16 14 14 12 11 12 11 12 12 12 12 12 9 9 9 9 9 8 8 8 10 11 11 9 8 7 6 7 5 4 4 5 3
14 14 15 16 16 15 13 12 14 15 14 13 12 10 9 10 10 10 10 10 10 10 10 9 8 7 8 7 6 6 8 9 11 11 10 8 7 6 5 5 4 3 4
14 14 15 18 17 15 15 13 11 11 12 12 11 9 8 9 9 9 9 9 10 10 9 8 8 7 7 7 5 4 3 4 7 10 10 9 9 7 6 6 5 4 3
14 16 16 17 16 14 14 13 12 10 9 10 9 7 7 6 7 7 7 7 9 11 11 9 8 7 6 5 5 5 5 2 3 4 7 8 8 7 6 5 5 5 6
18 17 18 18 16 14 14 15 14 12 11 9 9 8 7 6 3 4 4 8 11 12 10 10 10 9 8 7 6 6 6 6 2 1 2 5 6 6 6 6 6 7 8
18 18 16 16 15 13 12 13 14 12 10 10 10 7 6 4 2 2 5 10 11 13 12 11 10 11 11 10 9 7 7 6 7 7 3 2 3 5 6 6 6 7 9
17 15 15 15 16 14 13 12 11 12 11 10 8 6 4 1 2 4 7 10 11 12 12 12 14 14 15 15 10 10 9 8 8 9 10 7 4 4 6 6 6 7 9
17 16 15 14 14 13 10 10 11 10 10 8 7 5 3 2 5 8 10 12 13 12 12 12 14 15 18 21 18 10 7 8 8 9 9 10 9 8 8 9 9 9 9
13 11 10 11 11 11 11 10 10 9 10 9 7 5 5 4 6 9 12 12 12 10 10 11 13 19 21 22 17 6 4 4 5 7 10 10 10 11 11 12 12 12 12
14 13 10 9 9 9 11 11 10 9 8 9 9 7 7 7 8 11 12 11 11 8 8 10 15 17 21 21 19 13 7 4 6 6 7 9 11 12 14 14 15 17 17
13 12 13 13 13 12 13 13 11 11 11 11 11 10 9 9 10 12 13 12 10 6 8 11 14 13 15 18 19 17 13 9 6 6 8 10 11 12 14 15 17 18 19
16 14 12 12 13 13 15 16 15 14 12 12 12 11 11 11 13 13 13 12 10 7 7 10 14 11 11 11 13 14 13 10 10 10 10 11 12 15 18 18 19 19 19

GFSSE_500_spd_030.txt.gz
Wind_Speed
12 11 10 7 9 10 11 13 13 12 13 14 13 12 13 15 14 14 16 15 15 14 14 15 14 13 11 10 10 10 10 8 6 7 5 7 12 17 20 18 15 14 12
9 7 7 9 9 9 11 12 12 13 13 13 12 13 14 15 15 16 15 14 13 13 13 13 11 11 11 9 8 10 9 10 9 8 6 8 12 18 20 18 16 13 11
11 8 8 9 9 9 10 11 11 12 12 12 13 14 15 16 17 17 16 14 14 13 12 11 10 10 9 7 6 6 8 9 10 10 9 11 13 17 17 16 14 13 10
8 7 8 7 8 9 10 10 10 11 12 13 14 15 15 16 16 16 16 14 13 12 12 9 8 7 5 3 2 4 5 6 8 10 10 11 14 16 15 14 12 9 7
11 10 7 6 8 9 9 10 10 12 13 15 16 16 16 16 15 14 14 13 13 11 11 8 6 6 3 3 3 3 10 6 6 8 10 9 13 12 12 11 9 7 5
11 7 6 6 9 9 9 9 11 12 14 16 17 19 18 18 16 14 14 13 12 11 10 8 7 5 5 5 7 9 5 7 6 6 7 7 9 11 9 7 6 4 3
8 8 7 8 9 9 9 9 13 13 15 17 18 18 17 17 16 15 15 15 13 12 11 10 9 9 10 8 9 8 5 2 9 8 8 9 8 8 8 7 5 3 2
7 9 9 9 9 8 9 12 15 15 16 19 19 17 15 16 16 17 17 16 16 16 16 15 16 16 16 15 15 13 10 2 7 12 10 10 9 7 7 7 5 4 3
6 10 11 11 9 9 12 14 15 16 19 20 19 18 19 19 20 20 20 20 19 19 17 16 15 15 15 15 16 18 18 16 11 15 9 8 8 7 5 4 3 3 2
8 9 11 11 11 12 14 16 17 18 19 20 20 21 21 21 22 21 19 19 17 15 14 14 13 13 13 14 15 18 20 20 17 12 11 8 5 6 5 3 4 4 3
9 10 11 11 13 14 16 17 18 20 21 21 21 21 21 20 20 19 17 15 14 13 12 12 12 12 12 13 16 16 16 12 9 5 6 5 4 3 2 2 3 3 2
10 11 11 12 14 15 17 18 20 20 20 20 20 21 21 19 18 15 14 13 12 11 10 11 11 11 12 12 13 15 13 10 9 6 2 3 6 7 3 3 3 4 4
11 12 13 13 14 16 18 19 20 20 18 17 18 18 16 15 14 13 12 12 11 10 9 11 11 11 10 10 12 12 13 10 9 8 6 4 3 8 5 4 5 6 7
12 13 14 15 16 16 17 19 18 16 17 15 16 15 14 14 13 11 10 9 8 7 7 9 9 8 9 9 8 9 10 11 10 10 9 8 7 7 3 3 2 1 2
13 15 15 17 17 16 16 17 17 16 17 15 14 13 13 13 12 10 9 9 8 8 6 5 5 6 5 7 7 7 8 8 9 10 10 9 7 5 3 3 2 2 1
15 16 17 18 17 16 15 16 18 16 16 15 14 13 12 11 11 10 8 7 7 5 3 4 3 3 4 5 5 6 7 6 7 9 8 9 8 6 4 2 1 2 3
18 18 19 18 18 16 15 16 17 15 15 14 13 13 13 11 11 8 6 6 6 5 3 5 5 3 2 2 3 3 4 6 7 5 7 7 7 6 5 4 3 1 3
20 19 19 18 18 17 16 16 15 13 12 11 11 12 10 9 9 4 5 6 7 6 6 5 4 4 4 5 3 3 3 3 4 6 5 5 4 4 4 3 2 2 4
22 20 19 19 18 17 16 15 14 13 11 10 10 10 8 6 5 3 5 7 7 7 6 6 6 7 7 7 6 4 4 4 4 4 6 6 6 6 6 6 7 7 8
19 21 21 20 18 17 15 14 13 13 12 10 10 8 6 5 4 4 7 7 7 8 9 8 10 9 7 7 5 5 5 5 5 5 5 7 8 9 10 10 10 11 11
20 18 19 19 16 13 14 15 14 13 12 11 10 8 7 4 4 6 7 5 6 7 7 7 9 12 11 6 5 4 5 5 4 5 5 6 7 9 10 10 11 12 13
21 20 19 18 17 15 14 15 12 11 11 11 11 8 6 5 6 7 6 7 7 7 7 9 11 15 14 11 8 3 1 1 2 3 4 5 7 8 10 10 10 11 11
22 20 20 20 18 16 14 13 12 12 12 13 11 7 5 4 5 6 6 7 7 5 6 8 10 13 13 16 16 12 8 5 4 3 4 4 5 6 8 9 10 11 13
24 23 22 22 20 16 14 13 14 14 13 13 10 10 8 4 1 2 4 8 9 6 5 6 9 8 10 13 14 15 14 11 8 5 5 5 5 5 6 8 9 11 12
26 24 22 21 20 17 16 17 15 14 14 15 16 14 11 7 4 3 3 5 9 7 5 7 7 8 9 10 11 11 11 10 9 8 7 7 8 9 9 9 10 11 13
22 22 21 20 20 19 19 17 15 16 15 16 17 15 11 9 8 7 7 4 6 6 2 3 5 7 8 7 7 8 8 7 7 6 5 6 6 8 9 9 10 11 12

GFSSE_500_spd_033.txt.gz
Wind_Speed
21 24 15 16 15 14 13 13 13 12 12 14 13 13 13 12 13 15 15 15 14 14 14 14 12 10 8 8 7 8 8 7 6 5 4 7 11 15 17 14 13 12 10
13 17 14 13 14 14 12 11 11 12 13 12 12 12 12 12 14 14 14 14 13 12 12 13 11 10 8 6 7 6 7 8 10 8 6 9 12 17 17 15 14 11 9
7 12 11 12 12 12 11 10 10 11 12 11 11 11 12 13 14 14 12 12 11 11 11 11 9 7 7 5 4 5 7 8 9 7 8 10 15 18 16 14 13 10 7
1 10 11 10 10 10 10 9 9 10 11 11 11 11 11 12 13 13 13 12 10 10 10 7 6 6 6 5 2 1 4 7 7 9 11 10 16 16 14 13 12 9 6
5 6 7 7 8 8 8 8 9 11 12 12 12 12 12 12 12 12 12 11 10 9 8 7 6 6 6 7 10 2 8 5 6 10 11 12 12 12 11 9 8 6 3
7 5 5 6 7 6 7 9 10 13 13 14 15 15 13 13 12 12 11 11 10 10 9 8 8 7 7 8 8 6 8 9 7 8 9 9 10 10 9 7 6 3 2
5 5 5 6 6 6 7 9 12 14 15 15 15 15 14 13 14 13 13 13 12 12 12 12 12 13 14 15 12 9 3 8 8 8 9 9 8 7 6 6 5 4 3
5 5 6 7 6 7 9 12 14 14 15 16 15 14 14 15 16 16 16 17 17 16 16 15 16 15 15 16 17 15 6 5 15 10 9 8 6 5 4 4 3 2 3
6 6 7 7 8 8 11 14 15 16 16 16 16 18 18 19 19 20 20 20 18 16 15 15 14 14 14 15 16 19 20 13 10 14 10 8 7 5 2 2 1 1 1
8 8 7 7 9 11 13 16 18 18 19 19 20 21 21 21 19 18 18 16 15 14 13 12 13 14 15 16 18 21 20 18 15 10 9 6 9 3 3 3 1 1 1
10 10 8 9 11 13 16 16 18 20 20 21 21 21 17 17 17 16 14 12 12 12 11 11 12 13 14 15 16 17 15 11 8 6 6 6 5 1 3 3 2 1 1
12 11 10 10 13 15 16 18 20 21 20 20 21 21 13 14 16 13 12 11 11 11 11 12 12 11 13 12 13 14 14 11 9 6 2 1 3 6 2 3 3 4 5
13 14 12 12 13 15 16 18 20 18 19 19 19 20 10 13 13 10 10 10 10 11 13 4 13 12 10 13 12 10 12 13 9 7 7 5 0 6 3 3 4 6 8
13 14 14 14 15 15 16 18 18 16 16 17 13 13 12 11 11 15 6 7 8 8 9 12 9 9 11 10 10 10 9 9 10 10 9 11 8 5 3 2 1 3 5
14 14 15 16 17 17 18 15 14 14 13 13 13 12 12 10 9 9 7 6 5 7 7 7 7 8 9 9 8 8 9 10 10 10 10 10 9 6 4 4 4 5 6
15 16 17 18 18 16 16 15 14 14 11 11 10 9 9 8 8 7 6 4 5 5 5 4 5 5 6 6 6 6 7 9 9 9 10 10 9 8 6 5 4 4 6
17 18 18 19 18 17 16 16 14 13 11 9 9 8 8 7 7 6 3 5 5 4 4 4 4 4 4 5 6 5 5 6 7 9 10 9 9 7 6 5 5 6 6
18 19 19 20 18 17 18 17 15 12 11 9 8 8 7 6 4 3 3 4 4 4 4 5 6 5 6 6 5 3 3 3 4 6 7 9 10 9 9 8 8 8 7
20 20 20 19 19 17 18 17 14 13 11 10 9 8 6 4 2 2 2 3 4 4 5 6 6 6 6 6 4 3 2 1 1 2 4 6 7 8 9 9 9 8 9
21 21 21 19 18 18 17 16 15 13 12 11 10 8 5 3 2 1 2 3 6 7 8 9 10 8 7 7 7 3 4 3 2 3 3 3 5 5 6 8 10 11 12
21 21 21 20 18 18 18 17 17 14 11 9 8 7 6 5 4 2 4 5 7 7 9 11 12 13 10 8 4 2 3 2 3 3 4 5 6 7 8 8 9 11 12
22 23 22 21 19 20 20 19 16 14 12 10 10 8 7 6 4 3 5 5 6 7 8 11 11 16 17 15 12 7 5 4 3 1 2 3 4 5 7 8 10 9 10
22 22 23 22 22 20 18 17 17 15 15 14 13 10 9 8 4 3 5 6 7 7 6 9 10 12 13 16 16 13 10 7 6 4 6 6 7 7 7 8 9 11 12
25 25 24 24 23 19 18 18 18 17 15 13 11 10 10 7 3 1 2 5 6 7 6 7 8 9 8 10 12 14 13 11 8 7 8 9 8 9 10 10 12 13 15
26 25 24 25 23 21 20 18 16 15 14 14 15 14 10 8 5 4 2 3 5 6 5 6 6 8 7 7 8 9 8 7 6 6 7 7 9 11 11 12 11 12 12
25 24 22 21 22 21 20 19 17 17 15 16 17 15 11 8 7 6 5 5 5 3 2 5 3 5 5 6 6 7 6 6 7 8 8 7 6 8 9 10 11 12 12

GFSSE_500_spd_036.txt.gz
Wind_Speed
18 18 13 13 14 15 15 13 12 11 11 11 11 10 11 12 15 15 14 14 15 15 13 12 9 8 8 7 6 7 7 7 5 5 5 7 10 12 14 12 11 11 8
21 14 14 12 13 14 12 12 11 10 10 11 10 10 9 10 13 13 12 12 13 12 11 11 9 7 7 7 6 6 7 7 7 6 6 7 11 15 14 11 10 9 7
14 11 12 9 13 13 11 10 10 9 9 9 9 8 8 10 12 13 12 11 10 10 9 9 10 9 7 5 3 4 5 7 9 7 8 9 11 14 12 10 10 8 5
8 10 10 9 12 11 11 9 9 9 9 8 8 7 9 10 11 11 10 10 9 8 8 9 9 8 8 9 3 1 1 6 10 10 10 11 13 13 10 9 7 6 3
8 9 9 9 10 9 10 9 9 10 10 9 9 9 11 11 11 9 10 9 8 8 10 10 10 10 8 7 8 1 7 4 8 12 12 14 12 11 8 7 6 4 3
6 7 6 8 9 8 9 9 10 11 11 11 12 13 12 12 12 10 11 11 10 11 11 11 13 14 13 11 9 7 10 6 8 11 12 11 11 8 7 5 4 2 2
4 5 5 8 8 7 9 10 11 11 12 13 13 14 15 16 13 13 13 13 13 14 15 16 16 16 16 16 13 4 5 10 6 7 10 10 10 7 6 4 3 2 2
5 3 5 8 8 8 10 12 12 11 12 13 14 15 17 17 17 18 18 18 18 18 17 16 16 16 17 18 20 13 10 12 8 10 9 9 8 6 5 4 2 1 1
5 4 4 7 11 10 12 12 12 12 12 14 18 17 18 21 21 20 19 18 16 15 15 15 16 17 18 20 21 25 17 15 14 12 12 6 8 7 4 2 2 2 2
6 6 5 9 12 12 12 13 13 13 15 20 22 21 20 21 21 18 15 14 13 15 15 14 15 17 18 19 20 22 20 19 13 10 9 10 8 6 6 4 4 3 2
8 8 7 11 14 13 14 14 15 16 19 21 21 19 22 16 20 15 13 13 13 14 15 15 15 15 18 18 19 17 16 13 8 6 6 5 4 1 5 5 5 5 4
10 9 9 11 14 15 15 15 17 16 20 19 20 15 17 17 16 14 13 12 13 15 14 16 14 13 18 17 16 16 16 12 10 8 3 1 1 3 4 5 5 6 7
10 11 11 12 14 15 16 17 17 15 16 14 11 12 12 11 13 12 10 12 13 13 10 12 9 11 11 14 15 16 13 13 11 14 13 6 5 2 3 4 5 6 7
10 11 12 13 14 16 17 18 15 14 13 10 11 7 13 15 6 5 11 14 12 12 9 8 9 12 13 15 14 14 12 13 14 13 13 12 9 7 6 6 6 7 8
10 11 13 14 15 17 17 17 15 12 11 6 8 12 9 10 10 11 9 10 10 10 9 8 10 11 14 12 11 11 11 12 14 14 12 12 9 7 5 4 4 6 8
11 11 13 15 15 17 17 16 14 12 10 8 5 7 8 9 8 9 10 10 9 9 9 12 12 11 10 9 9 8 9 10 11 11 12 10 9 7 5 5 7 7 8
12 13 13 15 15 15 16 15 15 11 9 8 6 4 5 6 6 6 7 7 8 8 10 10 9 8 7 7 6 6 5 5 7 9 11 10 8 8 7 8 9 10 11
13 15 14 15 15 16 18 16 15 12 9 7 7 6 5 4 2 5 7 8 8 8 8 8 8 7 5 4 5 3 2 3 4 5 6 7 8 8 10 9 10 11 12
15 16 16 16 15 17 18 17 15 13 10 8 8 7 6 4 3 4 6 7 8 9 8 8 11 8 6 3 2 2 1 2 2 3 4 6 7 9 10 11 12 12 13
19 18 19 18 17 16 18 16 14 12 9 8 8 7 5 4 3 4 6 8 8 8 10 11 10 10 8 4 2 1 2 2 2 3 4 5 6 8 9 9 10 12 14
20 20 20 19 18 16 18 17 14 11 9 8 7 6 6 4 4 5 6 8 10 11 13 12 13 16 15 10 5 5 4 5 5 6 6 9 8 6 6 9 9 11 13
21 22 21 21 20 19 18 18 15 12 10 8 7 6 6 5 4 6 7 7 9 9 11 13 12 15 17 16 13 9 10 9 8 9 9 9 10 9 11 10 12 11 13
20 22 22 22 22 22 20 17 15 13 12 11 10 8 7 6 6 5 5 6 7 6 8 10 10 10 12 15 14 13 12 11 12 10 9 10 10 11 11 11 10 9 11
20 22 23 22 23 23 20 18 17 17 14 9 9 11 10 7 5 4 4 6 6 5 6 8 7 7 7 8 10 11 13 12 12 8 6 6 8 10 11 11 12 11 11
20 21 23 22 23 22 20 21 20 16 13 11 13 13 11 7 4 1 2 4 5 4 2 4 5 5 4 7 6 6 6 6 6 3 4 5 7 11 10 10 11 10 10
20 21 22 21 21 21 22 20 18 17 15 15 14 12 10 7 4 3 2 3 4 4 3 3 3 4 3 4 5 5 6 5 5 3 4 4 4 5 9 9 7 10 14

GFSSE_500_spd_039.txt.gz
Wind_Speed
13 13 10 9 9 10 11 12 11 11 11 11 10 10 11 11 13 15 15 14 13 12 10 9 6 6 6 6 7 8 7 6 5 5 4 5 7 8 9 9 9 8 7
14 11 10 10 7 10 10 10 10 10 10 10 10 9 9 11 12 13 14 12 12 11 11 9 8 6 6 6 6 8 8 7 6 6 6 6 7 10 9 9 8 6 5
13 12 9 9 9 9 10 10 10 10 10 10 10 9 9 11 11 11 11 10 10 10 10 9 8 7 7 4 4 6 8 9 7 8 9 10 11 10 9 10 7 6 5
12 9 9 11 10 9 10 11 11 10 10 10 9 10 10 12 11 11 10 9 9 10 9 8 8 7 8 10 4 4 6 10 10 11 11 12 12 10 9 9 8 6 6
10 8 10 12 11 9 10 10 11 11 11 10 12 12 12 12 12 12 11 10 10 9 10 11 11 10 11 9 5 6 8 9 12 14 14 15 13 9 10 8 7 6 6
8 8 10 11 10 9 10 10 12 12 11 13 15 14 13 13 13 13 12 12 11 13 15 16 15 14 13 11 6 6 10 12 13 15 15 13 11 8 7 6 5 5 5
6 8 8 10 9 10 11 12 12 11 12 15 17 17 15 15 15 15 15 15 17 17 17 16 16 15 16 15 8 9 13 11 13 14 13 12 11 8 7 5 5 5 5
4 8 6 9 10 11 11 13 12 11 14 17 18 17 17 18 18 20 21 19 17 16 15 15 17 19 20 22 18 13 15 12 10 11 11 11 10 8 6 5 4 4 3
4 8 6 7 12 12 13 13 12 12 18 20 18 19 20 20 20 20 20 19 17 15 16 17 18 20 21 24 24 19 19 12 13 13 13 11 9 8 6 4 4 5 4
6 8 7 9 13 13 11 13 12 17 21 20 20 20 20 18 17 17 18 19 17 17 16 16 17 19 21 21 23 23 23 16 14 14 12 10 10 9 8 7 6 6 5
8 9 9 11 13 12 12 14 18 21 21 21 20 17 16 13 15 19 17 17 19 17 17 16 17 17 19 20 19 18 17 11 10 7 6 6 4 4 5 5 5 6 6
8 10 11 12 13 13 13 18 21 21 20 21 15 11 12 12 14 20 18 15 16 13 15 15 15 16 18 17 18 15 16 15 12 6 5 6 4 2 5 6 7 7 7
7 10 12 13 13 14 15 18 22 19 15 14 10 11 11 10 14 16 18 16 16 13 15 14 14 14 16 16 17 15 17 14 14 12 11 9 8 4 5 8 9 10 10
6 9 11 13 12 14 16 18 20 18 13 10 15 9 8 11 12 13 17 15 14 13 12 13 10 11 11 11 13 14 16 14 13 14 13 12 12 10 10 10 10 11 11
7 9 11 13 13 15 16 16 17 16 11 8 10 8 11 12 14 14 18 15 14 11 12 10 9 8 10 8 10 13 13 13 14 16 13 14 11 11 11 11 11 13 13
9 10 11 13 13 14 15 16 14 13 11 9 8 9 10 13 15 16 17 14 12 10 10 11 8 9 10 9 8 10 10 11 14 15 14 13 12 13 12 10 11 12 13
9 11 12 13 14 15 13 14 13 12 10 10 8 6 9 12 13 12 14 12 11 8 10 10 7 7 7 7 8 6 9 8 11 12 12 11 12 12 13 13 14 14 14
9 13 15 14 14 14 13 15 12 10 9 7 7 6 8 9 9 10 12 12 9 8 9 8 7 6 5 6 5 6 7 5 9 8 8 10 10 11 12 11 13 13 15
13 14 16 14 13 13 15 15 13 9 8 7 6 7 6 6 9 11 10 12 9 9 9 11 13 11 6 3 1 5 6 6 6 6 7 8 8 8 10 12 13 13 14
17 17 18 16 14 14 15 14 12 9 7 7 5 5 6 7 9 11 10 12 12 10 13 15 15 15 12 6 6 6 6 7 7 6 6 7 6 10 11 13 11 11 10
20 18 19 19 16 15 16 16 13 10 8 7 5 4 4 6 8 10 8 8 10 14 13 14 17 20 19 12 10 8 8 8 9 10 11 10 10 9 11 9 9 10 10
23 21 20 19 19 18 19 17 14 11 10 9 8 6 4 6 7 7 8 8 9 10 12 14 13 19 22 14 11 11 9 9 10 12 12 11 10 9 10 10 10 10 10
18 19 19 20 20 20 21 18 14 11 11 10 8 6 6 7 7 6 7 6 6 7 9 11 11 12 16 15 14 12 11 11 11 9 9 8 9 9 9 8 9 10 11
17 18 18 18 20 20 19 18 16 15 13 10 9 9 8 8 7 5 6 5 5 6 7 9 8 9 8 9 9 8 6 7 7 6 10 8 9 9 10 12 11 11 10
15 17 18 19 20 20 19 18 17 15 12 12 12 11 9 7 6 4 4 4 5 5 6 5 6 7 5 6 6 3 3 5 7 8 7 6 6 9 9 8 9 10 13
16 15 16 17 19 18 19 18 17 15 14 14 12 10 9 8 5 3 2 3 4 3 3 5 5 5 3 4 5 5 5 5 8 10 8 8 6 5 6 6 7 13 16

GFSSE_500_spd_042.txt.gz
Wind_Speed
9 9 10 10 8 8 8 8 9 9 9 9 9 10 10 12 12 13 13 13 11 10 8 7 6 5 5 6 8 7 6 4 3 5 6 5 5 7 9 9 9 10 9
10 9 9 10 8 7 8 8 9 10 10 10 9 9 9 11 11 12 13 12 11 10 9 8 6 4 4 5 6 7 7 5 5 6 7 8 7 9 10 9 8 7 6
9 10 10 9 8 8 9 9 10 11 10 10 10 9 9 9 9 10 11 10 9 9 7 6 5 5 4 2 4 7 9 6 6 9 10 11 11 8 11 9 8 7 5
9 10 9 9 9 9 10 11 12 11 11 11 10 11 10 9 10 10 10 9 8 8 7 5 5 3 4 4 4 8 10 10 9 11 14 15 13 9 11 9 7 6 6
8 10 10 10 10 10 11 13 12 12 10 11 11 12 11 11 11 11 10 9 9 10 9 10 11 9 7 4 6 10 11 12 12 15 16 16 14 11 11 8 7 6 6
8 9 10 10 11 11 12 13 13 11 11 12 13 12 12 12 12 11 12 13 15 15 13 12 12 11 8 4 8 13 13 16 16 16 15 15 13 10 8 7 6 6 6
8 9 8 10 11 12 13 13 13 12 13 15 14 14 13 13 13 15 18 18 16 14 14 14 15 16 12 10 11 15 15 15 16 15 13 12 11 9 7 6 6 5 6
7 9 7 9 11 13 13 14 12 14 17 17 16 16 16 17 19 19 17 16 16 15 15 18 20 20 20 15 15 18 15 14 15 14 12 11 11 9 7 6 6 7 7
6 9 7 9 13 14 13 13 14 19 19 19 20 19 20 18 17 15 16 15 15 15 17 19 20 22 23 20 13 19 16 14 16 16 13 11 10 9 7 6 7 7 7
8 8 8 10 13 14 14 14 19 22 22 20 21 20 19 17 13 12 15 17 17 16 18 19 19 21 22 21 19 16 12 13 12 10 11 11 11 10 8 8 8 8 7
7 8 9 11 13 14 15 18 22 25 24 22 20 17 16 16 14 15 12 16 18 17 16 18 18 19 19 18 16 14 10 10 11 9 6 6 6 7 8 7 7 7 7
7 8 10 11 13 14 17 21 24 25 20 19 17 16 16 16 13 13 11 11 12 16 16 16 16 17 18 16 16 12 12 10 10 9 4 3 3 6 9 9 10 10 10
7 9 11 12 14 17 19 22 25 23 17 15 16 15 13 13 12 12 12 10 11 12 13 12 14 16 15 15 15 15 13 14 15 16 13 12 10 9 10 11 11 12 12
6 9 11 13 14 18 19 22 21 17 12 14 9 7 15 10 11 11 11 9 12 13 13 11 11 14 14 14 13 15 16 15 16 15 15 14 13 11 10 12 12 12 12
7 9 12 13 14 18 18 20 18 16 13 13 11 10 12 11 11 11 10 11 12 14 13 14 12 11 12 9 11 13 15 14 15 16 15 15 13 12 11 11 10 10 10
9 10 12 13 14 17 18 19 18 13 14 12 12 10 10 11 13 12 13 13 14 11 10 9 9 10 10 10 8 11 11 13 13 14 13 15 11 11 10 9 10 10 10
9 11 13 13 14 15 15 17 17 17 17 11 9 9 9 11 11 11 10 10 10 9 8 7 6 3 7 11 10 6 9 9 11 12 12 13 12 10 9 9 10 11 11
9 13 13 14 15 14 14 15 15 15 16 11 8 8 9 11 10 10 9 11 9 9 10 9 7 4 6 9 10 6 8 8 8 10 8 9 10 10 9 10 11 10 12
12 13 15 15 16 14 13 13 13 12 13 11 10 8 8 10 10 11 9 10 10 10 13 14 10 7 5 8 9 8 9 7 7 7 6 7 9 9 9 11 10 10 13
17 16 18 18 16 15 14 15 13 12 13 11 10 9 10 10 8 10 10 12 14 16 16 14 15 11 10 11 9 10 8 8 8 8 8 6 10 9 9 11 9 9 11
20 18 19 18 17 17 17 16 14 12 10 9 7 9 9 10 8 10 10 12 13 16 15 14 18 13 15 14 10 12 9 10 10 10 9 8 10 9 9 10 8 8 8
23 21 21 21 19 20 19 16 14 12 9 8 8 8 8 8 8 8 9 10 12 14 14 13 17 16 15 16 11 13 11 9 10 11 11 9 8 10 10 8 8 9 10
20 21 22 21 20 20 19 16 12 10 10 9 8 7 7 7 6 7 9 9 10 11 12 12 12 12 15 16 13 13 13 10 9 9 7 8 8 9 10 8 8 10 11
18 19 20 20 20 19 18 16 15 13 11 8 8 8 7 7 5 6 6 8 8 8 9 9 10 9 8 9 11 10 7 5 6 3 4 9 8 9 8 7 9 12 13
16 19 20 20 20 19 19 18 16 13 10 9 9 7 8 8 6 4 4 4 6 5 6 7 8 9 8 7 6 5 4 4 5 7 8 6 5 5 6 8 9 12 13
16 18 19 18 18 19 19 18 16 14 13 12 10 8 9 7 5 4 2 2 4 4 4 5 6 7 6 5 3 5 4 5 8 10 9 7 5 8 9 9 11 12 12

GFSSE_500_spd_045.txt.gz
Wind_Speed
6 6 7 6 6 6 7 8 10 10 9 8 9 10 11 12 12 12 12 11 9 9 7 5 5 6 6 7 8 7 7 5 6 7 8 9 10 13 12 11 12 11 9
6 5 7 6 7 6 8 10 12 11 10 9 10 11 11 11 12 12 12 12 10 9 7 6 6 5 4 4 6 7 6 6 7 8 9 11 11 12 11 10 9 9 8
5 6 6 7 7 7 9 10 11 11 10 10 10 10 10 10 9 10 10 9 8 8 6 7 6 4 2 1 5 8 8 8 9 10 12 13 12 15 11 10 9 8 8
4 7 7 7 7 8 9 10 10 10 10 9 9 8 10 9 8 8 8 8 9 9 8 8 6 2 2 2 6 7 10 12 13 13 15 14 14 15 13 10 9 8 9
4 9 7 8 7 9 10 11 10 10 9 9 9 10 10 9 8 9 9 9 9 11 10 8 6 4 4 5 9 9 11 15 17 17 16 16 16 14 12 11 8 9 9
5 9 8 8 8 10 11 11 11 10 9 10 10 10 10 9 9 10 10 11 11 10 10 10 10 7 3 9 14 13 15 18 19 17 16 16 15 12 9 8 7 7 8
8 8 8 8 9 11 12 13 12 11 10 11 13 11 10 10 11 12 13 11 10 12 12 13 14 10 8 14 16 16 16 17 17 16 15 15 14 10 8 7 7 7 7
10 9 8 9 11 13 13 14 11 12 13 13 15 14 13 15 15 14 12 11 11 14 17 17 17 19 15 16 17 15 16 17 16 15 13 13 12 10 8 7 7 7 7
7 10 8 10 12 14 14 13 15 15 16 17 19 20 17 17 16 13 12 11 13 15 18 18 19 21 19 18 15 14 14 16 15 14 12 11 11 9 8 7 7 7 7
7 8 10 11 14 14 14 15 18 18 18 20 20 20 15 17 16 14 12 13 14 14 16 18 20 21 21 19 15 12 12 13 14 12 12 12 12 11 9 7 7 7 6
6 8 11 13 14 14 15 19 21 19 20 20 19 17 15 15 16 15 14 14 12 12 14 17 19 21 17 14 14 11 9 9 10 10 8 7 8 9 8 7 7 7 8
8 9 11 14 15 16 19 21 23 20 18 18 17 16 14 13 13 14 9 12 10 11 13 16 18 19 17 14 14 12 10 7 5 8 6 4 6 8 9 9 9 8 8
8 11 12 13 15 20 23 24 24 20 16 20 17 14 13 13 12 13 9 9 9 9 12 12 14 18 17 15 15 15 15 12 11 12 11 9 10 10 10 10 9 10 11
8 10 13 14 18 21 23 24 18 17 13 14 14 11 10 10 11 11 10 11 10 8 11 12 11 13 15 15 14 14 15 14 13 13 13 11 11 10 9 9 10 10 10
9 11 14 16 19 22 23 21 14 15 14 14 11 5 8 8 11 12 11 10 9 10 11 12 11 11 13 14 13 13 14 13 12 12 12 11 11 10 8 8 10 10 11
9 12 14 17 18 21 21 21 15 14 13 14 14 12 7 8 12 11 10 9 10 9 7 8 10 9 10 12 12 13 11 12 11 10 9 9 11 7 7 9 11 11 11
10 13 14 18 19 19 21 18 17 16 15 13 13 10 6 8 10 10 10 9 8 6 5 4 7 8 6 9 11 12 9 9 8 9 7 8 8 9 9 10 11 11 10
9 13 15 19 20 18 17 16 16 16 15 14 12 8 6 7 9 10 8 8 6 8 8 6 6 10 8 9 9 9 7 7 6 6 6 7 8 11 8 11 12 10 11
13 14 17 19 21 19 18 17 16 15 12 13 11 8 7 7 10 9 9 7 8 11 14 11 9 12 12 11 12 9 6 5 5 5 7 7 9 10 9 9 8 9 12
18 19 19 22 22 18 17 18 14 12 11 9 7 6 8 7 8 8 10 12 12 15 19 16 14 14 14 11 9 9 8 7 7 7 10 9 10 11 8 7 8 11 14
23 20 21 21 20 18 19 18 16 13 10 9 7 7 8 7 8 8 10 14 14 16 20 19 16 17 13 10 10 9 9 9 8 9 10 9 9 9 8 8 9 10 12
23 25 24 22 22 22 21 21 17 15 13 11 10 8 8 6 8 9 10 12 14 15 18 18 16 15 12 13 10 10 10 11 10 10 11 10 10 8 7 8 10 10 12
21 24 24 22 22 22 21 19 16 14 14 13 11 11 9 7 7 8 10 11 12 13 16 17 13 13 11 13 11 12 10 8 8 9 8 10 9 8 8 9 10 11 13
23 26 26 25 23 23 21 20 19 18 14 12 11 10 9 7 6 7 7 9 9 11 12 13 10 9 8 6 8 9 7 5 7 8 7 8 8 8 8 10 12 13 13
20 26 24 24 24 24 23 22 21 17 12 11 10 9 8 7 4 4 6 6 7 8 9 9 6 7 7 7 6 7 8 9 9 8 7 9 8 9 9 9 12 15 14
18 23 23 24 22 23 25 22 18 17 14 12 11 11 9 8 5 2 4 4 6 7 6 5 4 5 6 5 4 6 8 9 10 11 11 10 7 7 8 10 12 15 15

GFSSE_500_spd_048.txt.gz
Wind_Speed
7 6 6 4 4 5 7 9 10 10 10 12 13 13 13 13 12 11 10 8 7 6 6 6 6 6 5 7 8 7 7 7 8 9 10 11 13 14 15 13 13 12 10
7 6 7 6 5 7 8 10 10 11 11 11 12 13 12 13 13 12 11 9 7 6 6 5 5 5 4 6 8 9 10 10 10 11 13 14 15 14 13 11 11 10 10
4 7 9 7 7 9 10 11 11 12 11 11 13 12 11 11 12 11 10 8 7 7 6 5 5 5 4 5 7 8 10 11 13 14 16 17 14 13 12 11 10 10 10
4 8 9 7 8 10 13 13 12 12 12 13 14 11 11 11 9 10 10 9 8 8 8 7 5 3 6 6 8 11 11 14 16 17 18 19 18 14 12 11 10 10 11
5 8 9 7 9 11 12 13 13 11 12 13 13 12 11 10 10 11 11 11 10 10 8 7 4 3 7 10 12 13 15 18 19 19 19 20 18 15 12 10 10 10 9
6 7 8 7 9 11 11 13 13 12 13 13 12 12 12 13 12 13 14 13 14 14 12 10 7 6 10 14 16 18 19 20 19 19 17 17 16 13 10 9 8 7 9
8 7 8 7 9 11 10 12 12 12 13 11 12 14 13 13 14 15 15 16 16 15 14 13 11 13 16 17 19 17 19 19 16 17 15 14 14 12 9 7 6 6 8
9 9 8 8 10 11 10 11 12 13 13 12 13 16 15 16 16 15 15 16 14 15 17 17 17 18 22 20 22 16 16 17 15 14 13 13 12 9 8 7 7 7 7
8 9 9 10 13 12 11 12 13 16 15 15 17 20 18 16 17 15 14 14 15 17 18 20 17 19 23 19 18 16 15 16 15 12 12 14 11 9 9 8 8 8 7
7 7 10 12 13 12 13 16 17 20 19 17 18 18 16 15 17 17 14 16 15 15 17 18 21 21 19 19 16 15 15 14 14 14 14 12 11 8 8 7 7 7 7
7 7 11 14 14 12 16 18 20 21 19 16 17 17 15 15 15 17 15 14 13 12 16 16 18 19 15 13 15 13 10 8 11 11 10 8 9 9 8 9 10 9 9
8 9 11 14 14 16 19 20 22 21 18 15 16 16 14 13 12 10 14 11 12 10 14 15 17 15 16 13 13 12 10 7 5 5 5 5 8 10 10 10 10 11 11
9 11 13 12 13 20 22 22 22 20 19 16 15 14 13 12 11 12 8 12 12 10 11 12 15 15 14 13 13 13 14 13 10 9 9 7 8 10 11 9 11 11 12
9 12 12 13 17 22 23 20 19 20 16 14 15 13 11 10 9 12 11 10 12 11 9 10 12 13 13 14 13 12 13 14 13 11 10 9 8 9 10 9 11 11 12
10 12 13 16 20 24 23 19 19 16 13 15 12 12 10 8 9 11 11 10 11 11 10 9 9 13 11 12 12 12 13 13 12 11 9 8 8 9 10 11 13 13 15
10 13 14 18 21 24 21 18 19 16 15 13 15 12 9 8 9 9 10 10 8 9 9 9 8 11 10 11 11 10 10 12 10 9 9 8 8 10 13 12 15 14 14
14 14 17 20 21 22 19 18 19 16 15 14 14 11 8 7 8 8 8 9 8 7 6 4 6 10 9 10 9 10 8 8 8 8 8 8 9 12 14 13 14 13 14
15 16 18 21 19 20 18 15 18 18 16 15 13 9 9 6 7 9 11 12 12 9 6 6 6 9 10 8 8 8 6 7 6 7 9 9 9 12 13 13 14 13 13
16 17 19 22 20 18 16 14 16 16 13 12 11 10 9 8 10 11 11 14 14 11 8 9 10 9 12 10 8 9 7 7 8 10 9 9 8 11 10 12 13 14 15
16 18 21 24 22 18 17 17 15 15 14 11 11 10 9 9 10 11 11 15 17 16 16 14 13 13 10 10 11 11 10 11 11 11 9 9 8 9 11 12 15 16 17
18 18 20 22 22 18 19 18 17 15 15 13 12 10 9 9 12 12 12 13 17 17 17 19 17 12 10 10 11 11 12 12 12 11 9 9 8 9 11 14 14 15 17
23 21 20 22 23 23 21 20 17 16 14 13 13 10 10 8 10 12 12 15 16 16 15 15 13 11 13 11 11 11 12 12 11 11 10 9 8 9 11 13 14 15 16
25 22 22 23 23 24 22 18 15 13 12 11 12 11 10 9 10 11 12 12 14 11 12 13 14 12 11 11 12 12 11 9 8 8 10 11 11 11 11 14 15 14 15
24 27 26 26 24 25 22 19 18 18 15 13 13 13 11 9 8 11 10 10 10 9 10 11 11 9 8 7 6 8 8 8 8 9 10 10 8 10 12 14 15 15 15
22 29 27 27 24 24 24 23 21 17 14 14 14 14 13 11 8 10 10 9 8 7 6 6 6 7 8 7 7 8 11 10 8 10 9 8 10 10 11 11 12 13 14
18 29 29 28 26 25 24 24 20 17 16 16 16 16 16 12 9 8 9 8 7 6 6 3 5 4 5 5 6 8 10 11 11 12 11 8 8 9 9 10 11 13 14

GFSSE_500_spd_051.txt.gz
Wind_Speed
8 7 6 5 5 7 10 11 12 13 14 15 16 18 17 15 13 13 12 9 8 5 4 4 4 5 6 6 6 6 6 8 8 10 11 13 15 15 14 13 11 9 8
10 7 6 7 7 9 11 12 12 13 15 15 16 17 17 16 15 13 11 9 8 6 5 5 4 4 5 5 6 7 8 9 10 12 14 16 16 14 12 11 10 8 7
7 9 7 8 9 11 11 12 12 13 15 15 14 14 14 13 11 10 8 6 6 5 3 4 5 6 8 7 7 9 12 13 14 15 17 18 15 13 11 10 8 8 8
7 9 8 9 10 11 11 12 12 14 14 14 14 13 12 11 10 9 8 7 10 7 4 4 3 4 8 8 11 11 14 16 17 18 17 17 14 12 11 9 9 8 7
8 10 10 9 10 11 12 12 12 14 14 16 15 13 11 11 10 11 11 10 10 8 7 4 4 8 11 12 12 15 16 19 18 18 22 17 14 12 10 9 8 8 8
9 10 10 10 12 13 12 12 14 16 16 17 16 14 13 13 15 14 13 15 15 13 10 7 9 13 16 14 17 19 19 19 19 19 18 15 13 10 8 8 7 7 8
10 10 10 10 12 13 13 13 14 16 17 17 15 15 16 17 16 16 17 17 16 15 15 14 18 19 20 21 20 20 19 17 16 15 14 12 11 9 8 6 6 6 7
10 11 11 11 12 13 13 14 15 16 17 16 15 18 18 17 17 17 17 18 18 20 19 19 22 22 22 21 20 19 18 16 15 14 12 11 10 9 8 7 7 6 6
8 9 11 11 11 12 15 15 17 18 18 17 19 19 17 17 17 17 18 17 19 19 21 20 23 20 20 18 18 18 17 16 15 13 14 13 10 10 8 8 6 6 5
8 9 10 11 10 13 16 17 20 22 21 18 17 18 17 16 15 16 16 15 17 17 20 21 21 17 16 15 17 17 16 15 15 14 13 13 12 9 8 7 8 9 9
8 10 11 11 11 16 19 20 22 22 20 17 16 17 17 15 15 13 15 16 17 15 17 19 16 14 14 13 14 13 12 11 11 10 12 13 10 10 10 9 10 12 12
10 11 11 10 13 19 21 21 21 21 19 17 16 16 15 12 10 12 12 12 14 14 15 15 14 12 11 11 12 13 12 9 7 9 10 11 10 12 11 10 11 12 13
12 12 13 10 16 20 21 21 19 20 19 15 14 13 13 12 10 8 10 9 11 12 13 14 14 13 13 13 12 13 12 11 10 9 11 11 10 11 10 10 14 13 13
13 14 13 13 19 21 21 20 20 18 18 17 13 13 12 12 9 10 9 8 9 9 11 13 13 12 12 13 13 13 12 13 12 10 12 12 10 11 11 13 16 14 14
15 15 14 17 22 22 21 19 18 17 18 15 13 13 12 12 10 9 9 9 8 8 10 10 11 11 13 12 12 13 12 12 12 10 12 13 8 11 13 16 15 14 14
14 15 15 20 24 21 20 17 17 17 14 14 13 12 12 11 11 8 7 7 7 8 9 11 9 10 12 12 11 11 11 10 10 9 12 12 8 13 13 14 15 14 15
15 15 19 23 26 21 17 18 18 17 16 15 13 12 11 10 10 7 6 6 6 6 8 10 9 9 10 10 10 10 10 9 10 11 13 14 12 14 14 14 13 11 12
16 17 20 23 25 20 15 15 16 17 15 14 13 11 10 11 11 9 8 7 6 7 9 11 10 9 9 8 7 9 9 9 10 11 12 13 12 12 14 12 13 12 12
17 18 21 23 24 20 14 14 13 15 14 12 12 10 11 12 13 12 11 9 8 9 9 11 12 10 9 8 9 10 10 11 11 12 13 13 11 13 14 12 16 16 14
18 19 21 23 23 20 14 15 13 12 14 12 10 11 12 14 13 13 13 14 13 12 11 13 13 12 13 11 11 13 12 13 12 12 12 12 12 12 14 17 18 20 16
21 19 21 22 22 19 18 17 15 14 13 13 12 13 13 13 14 13 16 19 18 17 14 14 13 13 12 11 12 12 13 13 12 11 10 11 11 13 15 17 19 22 24
24 23 23 23 22 22 21 21 18 14 12 12 12 14 14 12 14 16 17 19 17 15 14 13 12 12 11 10 11 13 13 12 10 9 8 9 12 14 14 15 17 18 18
26 25 25 26 25 24 22 19 17 15 13 14 14 13 14 13 13 14 15 15 16 15 14 15 14 12 11 10 10 10 9 8 8 9 8 10 12 14 16 15 14 14 15
29 29 28 29 28 25 23 20 19 21 19 17 16 14 12 12 13 12 13 14 13 13 12 11 11 11 11 7 5 6 8 8 7 9 9 9 9 11 12 12 12 12 12
32 32 31 30 29 24 22 22 21 18 14 14 15 15 14 11 12 12 11 11 9 8 9 7 7 8 9 7 6 7 9 9 8 8 10 10 8 8 8 9 9 10 11
26 33 33 31 29 25 23 24 22 17 15 15 15 15 15 13 12 12 11 10 8 6 6 6 4 5 7 8 8 9 10 10 10 10 9 9 9 9 8 9 12 11 10

GFSSE_500_spd_054.txt.gz
Wind_Speed
6 6 5 6 7 10 12 13 14 16 17 17 17 16 15 14 13 12 10 8 7 7 7 6 6 6 5 5 5 6 7 8 9 10 11 13 13 13 12 10 7 6 5
7 7 6 7 8 11 13 14 15 16 18 18 18 17 15 14 13 10 8 6 6 5 5 5 6 5 4 4 5 6 8 9 10 11 13 14 13 11 9 9 8 6 5
7 8 7 8 10 12 13 13 15 16 17 17 16 15 14 12 10 8 6 3 2 2 3 4 4 6 6 5 5 6 10 12 13 13 15 14 11 9 8 7 6 6 6
8 8 8 10 10 12 14 13 15 16 16 15 15 13 11 10 8 8 6 5 3 2 3 4 5 5 8 8 9 9 11 12 13 14 14 12 10 9 7 7 7 6 7
8 9 8 10 11 12 13 14 15 15 15 14 13 11 11 10 10 10 8 6 4 3 3 5 7 8 7 14 12 12 13 14 14 14 13 10 9 8 7 6 6 6 7
9 9 9 11 11 11 11 13 15 15 15 13 13 12 12 12 12 12 11 9 7 6 7 10 12 13 13 12 14 14 15 14 14 15 14 10 8 7 5 4 5 5 6
9 9 9 11 11 11 11 13 15 15 15 15 13 13 14 14 15 15 16 15 16 14 16 19 19 17 18 17 17 18 17 16 16 14 11 8 7 5 4 4 5 4 4
10 10 10 12 11 11 12 14 16 15 15 16 17 16 15 15 16 17 18 17 19 18 22 23 23 23 23 18 18 18 17 15 14 12 9 7 6 6 6 6 5 4 4
9 8 10 13 13 13 14 15 16 16 16 18 19 16 16 16 16 16 18 18 20 20 24 22 21 20 18 19 18 17 16 16 15 13 10 9 9 9 8 7 6 6 6
9 9 11 12 13 16 16 17 18 20 19 18 17 16 16 16 14 15 17 18 19 20 20 17 17 17 15 17 17 16 15 17 14 12 10 10 10 10 10 10 9 7 6
10 11 12 12 17 18 20 22 22 21 19 18 16 16 15 15 13 15 15 16 18 18 17 15 14 12 12 15 14 14 13 13 11 9 11 10 10 11 12 11 11 10 10
12 13 13 14 20 21 22 22 21 21 20 17 16 15 14 11 13 13 13 12 16 17 16 14 14 13 12 10 10 12 10 9 8 8 11 10 10 12 14 11 11 11 12
14 14 14 17 21 21 22 21 20 20 19 16 14 12 10 12 8 10 10 10 12 15 15 14 15 16 15 14 12 11 10 12 10 9 11 10 11 12 12 12 13 12 13
14 15 16 20 22 20 20 20 18 18 17 16 14 12 10 12 11 9 7 10 10 12 13 14 15 15 16 16 15 13 10 11 11 9 10 10 12 12 13 13 12 11 12
16 16 17 23 23 21 20 19 17 17 15 14 13 12 11 11 11 9 7 8 8 10 11 11 14 15 14 14 13 13 11 11 12 9 10 12 13 13 12 11 11 12 13
17 17 19 24 24 21 19 17 17 17 14 13 13 12 12 11 9 8 6 7 8 7 8 10 11 13 13 13 12 11 10 11 13 10 11 12 12 13 12 11 10 11 13
18 18 22 26 24 20 19 15 17 14 15 13 12 11 11 10 9 6 5 5 5 7 8 8 9 10 11 11 10 10 10 11 13 12 14 14 14 13 13 12 10 8 12
18 20 25 27 23 20 18 17 18 16 16 14 12 10 10 10 10 8 6 5 7 8 9 9 9 9 10 9 8 9 10 11 12 13 13 14 13 12 12 12 11 9 9
20 22 26 29 24 17 17 15 16 15 14 14 11 10 11 11 11 10 7 7 9 11 12 11 10 10 10 9 7 9 10 11 13 14 14 14 13 13 15 15 14 12 11
20 22 25 28 25 18 14 15 14 14 13 12 11 11 12 13 15 12 12 12 12 13 13 14 12 12 13 12 10 11 12 12 11 13 13 14 14 15 17 21 22 19 15
21 21 23 24 23 20 16 17 16 14 13 11 11 12 12 12 15 15 18 16 16 14 13 15 14 13 13 13 11 11 11 10 10 10 12 12 14 15 18 19 21 20 19
23 23 23 23 23 23 21 20 18 15 13 13 11 12 14 15 17 18 18 16 15 15 14 13 14 12 11 11 11 10 8 8 7 9 10 11 12 14 15 17 16 15 14
25 24 25 24 25 23 21 19 17 15 15 15 13 12 14 16 17 18 18 16 15 13 12 12 12 11 11 10 8 6 5 6 7 9 9 10 11 11 11 12 13 12 11
27 28 28 28 26 24 21 19 19 20 20 17 14 13 13 14 16 16 16 15 16 14 13 12 12 11 10 8 5 3 4 6 6 8 8 9 8 8 9 9 9 9 9
34 31 30 30 29 25 23 21 21 20 16 15 15 14 13 13 13 13 13 13 12 11 10 9 8 8 8 7 6 6 5 7 7 7 7 8 7 7 7 7 7 7 7
31 34 33 31 31 27 24 23 21 18 16 17 17 16 15 13 13 12 11 11 10 9 8 7 6 6 6 6 7 8 8 7 7 8 8 9 8 7 7 7 7 6 4

GFSSE_500_spd_057.txt.gz
Wind_Speed
5 6 7 9 10 12 12 13 15 15 16 17 18 17 15 14 12 10 9 7 5 4 4 4 4 4 3 2 4 7 7 7 7 7 8 9 10 9 8 7 5 6 6
4 6 7 8 11 11 12 14 15 15 17 17 16 14 13 12 10 9 7 5 4 3 3 2 2 3 3 2 3 5 6 8 8 8 10 11 9 8 7 6 6 6 6
4 5 8 9 11 10 12 13 14 15 15 15 15 14 11 9 8 8 5 2 3 2 1 2 2 3 4 3 4 6 7 8 10 10 10 10 7 6 6 6 6 6 6
5 5 8 10 10 9 11 13 14 13 13 13 12 11 9 9 8 7 5 5 3 1 1 3 3 4 5 6 6 7 10 10 10 10 11 8 7 5 5 5 6 6 7
5 6 9 10 10 10 11 13 13 12 11 11 11 10 9 10 9 7 7 5 2 1 2 3 4 4 11 8 7 8 9 9 9 12 11 7 5 4 4 5 6 7 7
6 7 9 10 10 10 12 13 13 12 11 11 11 11 12 10 10 10 10 6 1 3 5 8 9 10 13 12 12 11 11 10 9 10 7 6 4 3 3 5 6 6 7
7 7 9 10 9 9 12 11 13 12 12 12 12 13 12 12 13 13 13 11 10 12 14 15 15 15 16 16 16 15 15 14 12 10 7 5 3 4 5 5 6 6 8
7 8 9 10 9 9 11 12 12 12 12 12 14 13 12 13 14 16 17 16 18 21 21 20 21 19 19 19 18 16 15 13 11 9 6 5 4 6 7 7 7 7 8
7 8 8 9 8 10 11 12 12 13 12 15 14 13 11 13 14 16 19 20 20 22 21 21 20 18 18 18 16 15 14 12 10 9 8 7 8 9 9 8 8 8 8
8 7 9 8 8 11 11 13 13 14 15 16 14 12 12 12 13 17 19 20 20 19 19 19 17 16 17 17 16 13 12 11 12 10 8 10 10 10 11 10 10 10 10
9 9 10 9 12 12 14 15 17 18 17 15 14 12 11 13 15 17 17 18 17 17 17 16 14 14 13 14 14 13 10 10 11 11 11 13 11 12 12 12 12 11 11
11 11 11 13 14 14 16 19 18 18 17 15 14 12 11 13 13 15 16 15 14 14 15 15 14 12 11 11 12 11 7 7 9 10 13 13 12 11 11 11 11 11 11
13 14 13 16 16 19 20 19 18 16 15 14 12 9 11 9 12 13 14 14 13 14 14 16 14 11 10 10 10 10 8 7 9 10 12 13 11 10 10 10 11 10 10
15 16 17 19 19 19 19 18 18 18 15 13 11 10 9 10 12 12 11 11 13 13 13 14 14 12 13 11 12 12 9 8 10 11 12 13 12 11 10 10 11 11 11
16 17 20 22 21 20 18 17 15 15 14 12 10 10 9 8 11 11 11 8 10 12 12 14 13 12 13 12 11 13 9 10 11 12 11 12 12 12 11 10 10 10 11
17 18 22 23 22 19 17 16 15 14 14 12 11 10 10 9 10 9 11 9 9 9 11 11 12 13 13 11 10 12 9 10 11 11 11 12 11 11 11 11 10 9 11
18 20 24 24 22 20 17 12 14 12 13 12 11 10 10 8 8 7 7 8 8 9 10 10 10 10 9 9 9 11 10 10 12 13 12 12 12 11 11 11 9 9 12
18 21 26 25 21 19 18 13 12 13 13 12 10 8 9 8 7 7 6 5 7 8 8 9 9 9 8 8 8 9 11 11 12 13 12 12 12 12 12 12 10 10 12
19 22 28 25 21 19 17 15 14 14 13 12 9 7 7 8 8 8 8 8 8 9 9 8 7 6 6 7 7 8 10 12 13 13 14 14 15 17 16 16 15 13 13
19 23 28 25 18 18 17 17 15 14 12 10 9 8 8 9 9 11 10 12 12 12 10 9 10 8 7 9 9 9 11 10 11 12 13 14 17 19 19 18 17 13 12
18 20 24 25 18 16 17 17 16 14 14 11 9 9 10 10 11 14 14 14 14 13 13 10 10 9 7 9 9 9 10 10 10 10 11 13 14 15 16 16 16 15 13
19 20 22 25 21 17 19 18 16 15 13 12 10 9 9 12 15 15 17 17 16 15 12 11 10 10 9 8 8 8 8 8 9 9 11 10 12 12 12 14 14 14 13
21 21 23 24 23 20 18 17 15 14 15 14 12 10 12 14 16 16 15 15 15 15 14 12 10 9 8 7 6 5 5 6 7 8 11 10 9 9 9 11 11 12 12
24 25 25 25 24 23 18 17 16 16 16 15 13 13 12 13 15 14 14 12 12 11 11 10 8 8 8 5 3 3 4 5 8 7 8 10 9 7 9 9 9 9 10
29 27 27 27 25 23 20 19 20 17 16 14 14 14 14 14 14 13 13 11 9 9 9 9 8 7 5 5 3 3 4 4 5 8 6 8 7 7 6 6 7 7 7
27 30 30 29 28 24 22 21 19 18 17 17 17 15 15 14 12 12 12 10 7 6 5 5 6 5 4 5 5 5 5 5 5 5 5 6 5 5 5 5 5 6 4

GFSSE_500_spd_060.txt.gz
Wind_Speed
8 9 11 10 11 13 13 13 14 15 16 16 15 14 13 11 9 7 6 5 4 4 4 4 4 5 5 4 2 2 3 4 5 6 8 9 10 10 9 9 10 11 10
6 8 11 10 11 12 13 14 15 16 15 14 13 12 10 9 7 4 4 4 4 4 3 3 3 3 5 5 4 3 3 6 6 7 9 8 9 9 10 10 11 11 11
5 8 10 10 11 11 11 13 13 16 16 14 12 11 10 8 7 5 3 3 3 2 3 3 3 3 5 5 4 4 4 4 5 9 9 8 8 8 10 10 10 10 11
5 7 10 10 10 10 10 11 12 13 13 12 11 10 9 9 8 8 7 5 3 3 4 3 3 4 5 5 6 4 4 5 5 11 10 7 7 8 9 9 10 9 10
5 6 9 10 9 8 9 9 11 11 11 10 11 11 11 11 11 10 8 5 3 4 5 5 4 3 7 7 7 7 8 6 16 12 9 6 6 6 8 9 9 9 10
4 6 9 10 9 8 8 8 10 11 10 10 12 12 14 15 13 11 9 7 5 6 9 10 11 14 11 8 11 11 11 10 11 11 7 6 6 7 8 8 9 9 10
4 5 8 9 8 8 9 8 10 11 11 12 13 14 15 15 16 15 15 14 15 16 16 14 16 17 16 15 15 14 14 13 12 8 8 6 6 7 8 9 9 8 9
4 5 7 9 8 9 10 8 10 10 12 13 14 14 15 17 18 18 23 23 23 21 21 21 19 18 18 17 17 16 13 12 10 7 7 7 7 9 9 8 8 9 10
5 5 7 8 9 10 10 9 10 11 13 13 14 13 16 18 19 22 24 23 22 22 22 17 18 18 17 16 16 15 14 11 10 9 10 9 10 9 10 10 11 12 13
5 6 7 9 11 11 11 10 11 14 13 13 13 14 15 17 19 22 22 21 20 18 17 16 17 17 16 15 14 16 14 12 14 13 12 12 11 12 13 14 14 14 16
6 7 7 9 11 11 11 11 13 14 13 12 12 13 15 15 19 20 19 19 17 16 16 15 16 15 14 13 15 14 13 14 15 14 13 13 12 12 13 13 14 15 16
8 8 7 10 11 11 12 13 15 13 12 12 12 13 14 14 18 19 18 16 14 14 12 14 11 15 15 12 12 12 12 13 14 13 11 11 10 12 13 14 14 15 17
9 9 10 11 11 13 14 14 14 13 11 12 10 10 12 12 16 17 17 14 12 17 17 14 14 13 14 12 10 11 11 12 12 11 10 12 12 13 15 15 14 16 17
11 11 13 13 14 16 15 14 12 9 10 11 9 10 10 11 7 16 13 13 11 13 15 15 13 13 14 12 10 10 11 10 12 11 13 13 13 15 15 14 14 15 17
12 12 16 16 16 16 15 14 11 12 9 8 10 9 11 10 7 12 12 12 12 10 12 12 12 10 14 11 11 11 11 12 11 12 12 13 13 13 14 14 13 14 17
12 13 18 18 18 16 15 12 11 12 10 9 10 10 14 11 9 9 10 11 8 9 10 10 11 10 10 10 8 10 10 12 12 11 11 12 12 13 14 14 13 15 18
14 14 19 18 17 16 13 13 9 9 9 8 9 10 10 12 9 11 8 9 9 8 9 9 8 8 7 8 6 8 10 13 13 11 12 12 13 14 14 14 14 17 20
14 15 20 18 16 17 12 13 11 8 10 9 8 8 7 7 8 8 9 6 8 8 7 7 6 6 5 7 8 8 11 12 13 12 12 13 14 15 16 16 17 18 18
14 16 21 18 15 14 13 11 10 10 9 8 6 7 6 5 6 9 4 8 10 10 7 6 5 4 4 6 8 11 9 11 11 12 13 14 16 16 16 16 15 15 15
14 18 23 18 14 13 12 11 11 11 9 7 6 7 8 6 5 10 10 10 12 12 9 7 7 5 6 7 8 11 12 12 13 12 13 14 17 18 19 17 16 14 12
13 16 22 19 14 14 13 12 11 11 9 8 8 8 9 10 9 8 9 11 11 10 10 10 7 8 8 9 10 9 10 11 11 11 12 15 16 16 16 17 18 16 17
14 17 21 23 16 14 14 14 12 12 10 10 10 10 9 13 13 13 12 12 10 9 9 8 6 9 8 9 10 10 8 8 9 11 10 12 13 14 15 17 15 15 15
14 17 20 25 21 15 14 14 12 11 11 10 11 11 13 14 16 15 15 14 12 9 8 7 6 6 8 7 8 8 8 8 8 11 9 10 10 13 12 13 14 14 15
17 19 20 23 23 19 15 14 14 12 10 9 9 11 14 14 14 14 14 14 11 9 7 6 6 4 4 4 5 7 9 7 11 10 8 10 10 10 11 15 11 13 12
20 22 22 23 22 19 16 15 16 14 12 10 10 12 12 13 13 12 12 12 9 8 5 3 5 3 2 3 4 4 7 7 7 9 7 7 8 10 11 11 10 11 12
15 21 24 23 23 20 18 17 17 16 15 13 13 12 12 12 11 11 8 7 7 5 3 1 1 1 2 3 3 3 5 6 7 7 6 7 6 7 9 9 8 9 9

GFSSE_500_spd_063.txt.gz
Wind_Speed
13 11 13 13 13 14 14 13 13 13 13 13 12 11 8 7 7 6 7 7 7 7 7 6 6 6 6 6 5 5 6 7 9 11 14 14 13 14 13 12 13 12 13
11 10 12 13 14 13 13 13 13 14 14 13 11 10 7 6 4 4 5 5 5 5 5 5 5 5 7 7 5 5 6 7 8 12 13 12 13 13 13 12 12 13 14
9 10 11 14 13 13 13 14 14 14 13 13 11 10 8 6 5 4 2 3 3 3 3 4 4 4 8 8 8 9 8 4 12 11 11 12 13 13 12 12 12 12 13
9 9 10 13 13 12 13 13 13 13 13 12 11 10 8 7 7 6 5 4 4 4 4 5 6 10 10 10 10 9 9 12 14 11 10 11 12 12 11 11 11 11 13
8 9 9 12 12 11 12 12 12 11 12 13 13 13 12 12 10 7 4 4 6 7 8 7 8 10 11 11 10 11 10 15 14 11 11 11 11 10 10 11 11 11 12
8 7 8 11 12 11 12 12 12 12 14 15 16 18 18 15 12 9 9 10 11 12 12 12 13 16 14 12 12 14 14 16 14 10 10 10 9 9 10 11 11 11 12
7 6 7 10 12 12 13 11 13 13 16 17 20 20 18 17 17 16 17 19 19 17 17 19 20 15 15 15 15 17 17 14 13 11 11 10 9 10 10 11 11 11 12
6 6 7 10 12 11 13 13 13 15 16 19 20 20 20 20 21 23 23 24 24 22 22 22 22 19 18 17 17 16 15 13 14 12 11 10 11 10 11 13 14 14 13
6 7 7 10 12 12 12 12 13 15 16 18 19 20 19 20 21 24 25 24 25 21 22 21 19 18 18 19 19 16 14 15 14 12 13 13 14 13 14 16 16 17 17
5 6 7 10 12 12 12 13 14 17 17 17 18 17 17 19 20 21 21 21 20 20 19 20 18 16 15 18 18 19 17 15 13 14 15 15 15 15 16 18 19 19 20
5 6 7 11 12 12 12 15 15 16 16 15 16 15 17 18 19 20 18 17 18 18 17 17 15 13 16 16 17 16 19 16 15 14 15 16 16 16 17 19 21 21 24
5 5 7 12 12 12 13 15 15 14 14 14 13 14 14 17 17 18 15 18 17 17 15 12 12 12 12 15 16 15 17 15 15 15 15 17 17 16 16 18 20 21 22
5 5 10 13 13 13 14 14 15 12 10 12 14 11 12 14 15 17 16 16 20 18 17 15 9 13 3 15 17 14 16 14 17 17 17 18 17 17 17 17 19 21 23
7 6 11 13 14 14 14 14 13 10 10 9 13 9 11 10 7 14 14 15 18 15 16 15 8 12 13 14 17 12 14 17 17 16 17 18 17 18 18 17 19 21 24
7 7 11 14 15 14 13 12 8 9 8 8 10 9 10 8 9 11 11 12 11 15 15 14 16 11 12 14 14 9 15 15 14 15 15 16 16 17 17 19 21 24 25
7 9 12 15 15 14 12 10 6 7 8 8 9 7 9 11 8 7 8 9 9 10 13 12 13 12 11 11 12 12 12 13 15 14 15 17 18 18 20 22 24 25 27
7 7 13 15 13 13 11 9 7 7 7 8 6 7 7 8 7 5 7 7 7 7 9 12 12 9 9 10 12 13 12 11 14 13 13 15 18 21 23 24 24 25 24
8 8 13 13 12 13 9 8 8 6 6 6 6 5 5 4 5 5 4 5 6 6 7 8 10 10 10 9 10 11 14 12 11 13 13 13 14 18 20 19 20 21 20
8 9 14 13 11 12 7 7 5 6 5 5 4 3 4 6 6 5 1 6 5 6 4 7 9 9 10 10 10 9 11 13 12 13 16 16 18 19 19 18 19 18 18
8 10 15 13 11 9 7 7 7 6 4 4 4 5 5 3 6 4 5 7 6 6 4 7 8 9 10 11 11 10 11 12 12 15 18 21 22 22 21 21 21 18 18
8 11 15 14 11 9 7 8 9 8 7 5 6 9 8 7 5 7 6 8 8 5 7 10 9 10 11 11 11 10 11 11 12 12 14 18 18 20 19 18 20 20 19
11 13 16 17 12 12 10 11 11 10 8 7 9 9 9 11 12 11 10 9 9 7 8 8 10 9 11 11 9 12 11 10 12 11 12 15 17 17 18 18 19 20 21
12 13 17 20 14 11 12 12 11 10 8 9 9 11 12 13 14 13 12 11 9 9 9 8 9 8 9 10 7 9 11 10 12 10 10 16 14 17 14 17 18 19 20
12 15 18 20 18 12 11 12 12 11 11 9 10 12 12 14 15 15 12 11 11 10 9 8 8 6 8 7 8 6 12 10 10 11 12 12 13 17 13 17 17 17 18
13 16 17 20 20 16 12 13 13 12 12 10 11 14 14 15 14 14 12 10 9 9 8 7 6 6 5 3 7 7 9 9 7 9 10 10 11 13 14 16 16 17 16
4 13 17 18 20 19 15 14 14 14 14 13 14 14 13 14 14 13 10 8 5 6 5 5 4 4 3 3 6 8 8 9 10 9 7 7 13 10 12 13 16 16 16

GFSSE_500_spd_066.txt.gz
Wind_Speed
13 14 13 12 14 14 11 9 8 8 10 12 11 10 10 9 7 7 8 8 8 8 6 6 7 8 7 7 6 6 7 10 12 14 14 15 14 13 13 14 14 15 13
13 12 13 14 15 15 13 13 12 11 12 11 9 8 8 6 5 5 5 6 6 6 7 8 8 7 8 8 6 6 8 11 13 12 13 13 14 14 14 14 15 16 17
12 12 13 14 16 14 14 12 12 13 11 9 8 7 6 4 3 2 3 4 5 6 7 8 8 7 8 8 8 8 6 16 13 12 12 13 14 14 14 13 14 15 16
11 12 12 14 16 13 13 14 14 12 10 9 8 6 5 3 4 3 5 4 6 7 7 8 10 10 10 11 11 10 16 17 13 12 12 12 13 13 13 12 12 12 13
11 11 12 14 15 13 12 14 13 12 12 11 10 8 6 4 3 3 5 7 8 7 8 9 12 11 14 15 15 15 17 19 14 12 12 12 12 11 11 10 10 11 10
10 10 11 14 14 14 13 13 13 14 15 14 12 10 7 8 7 7 8 11 11 10 8 17 16 15 16 17 17 19 18 15 14 12 12 11 10 10 9 9 9 10 9
10 10 11 14 14 15 14 14 14 16 16 15 15 14 15 16 16 18 19 19 17 17 23 19 18 17 18 19 19 17 15 15 14 13 12 11 9 9 9 10 10 10 11
10 10 10 14 15 15 15 15 15 16 17 18 18 17 19 20 22 23 24 23 21 21 21 18 17 17 19 19 18 18 15 15 15 13 12 9 11 12 12 14 17 16 13
9 10 11 14 16 15 14 15 15 16 17 18 19 19 20 21 23 22 24 22 23 21 21 20 19 18 18 17 17 17 16 15 15 13 14 14 16 16 17 19 18 19 19
9 9 12 15 16 15 15 16 15 17 18 18 19 20 19 18 20 21 19 20 22 20 18 19 20 19 17 17 15 17 17 17 15 15 15 16 17 17 19 21 23 24 24
8 8 13 16 15 15 15 16 15 16 18 16 18 17 17 18 17 17 16 16 17 16 17 16 18 17 16 17 16 15 16 17 15 15 17 17 17 18 19 22 25 27 28
7 7 13 15 15 15 16 15 14 15 15 14 16 16 17 17 15 15 14 15 14 13 14 16 17 16 16 18 15 15 15 15 17 17 18 18 19 19 19 20 21 24 26
6 7 13 14 15 16 17 14 13 13 14 13 14 15 18 16 12 15 13 14 16 12 13 12 15 11 15 18 14 14 15 15 18 18 20 20 20 19 19 20 22 24 26
6 7 13 15 15 16 16 12 12 11 10 11 10 11 14 11 10 13 12 14 13 15 13 10 18 16 13 18 15 15 15 13 16 18 18 19 20 20 20 23 25 26 29
7 7 12 16 16 17 15 11 11 9 8 10 10 9 10 12 9 10 11 11 11 13 12 16 14 16 13 16 16 15 16 13 16 17 19 19 20 22 23 26 28 28 29
6 9 13 16 16 16 13 8 9 7 5 7 8 6 8 9 8 10 8 12 9 11 13 14 15 16 14 14 14 14 15 13 16 18 21 23 23 24 25 27 26 26 27
7 10 14 15 14 14 11 10 8 7 7 5 4 4 8 4 7 6 7 9 9 9 11 12 14 14 16 12 12 12 13 16 14 15 16 19 22 23 25 25 24 23 23
11 14 14 13 13 12 11 10 10 6 7 5 4 4 5 5 6 3 5 5 8 7 9 9 12 14 14 12 14 11 12 14 14 16 16 17 18 19 19 20 20 21 22
13 14 16 14 13 11 10 9 7 6 5 7 5 5 2 2 2 5 3 4 5 7 9 10 10 13 13 12 11 11 11 13 15 18 19 19 19 19 19 20 22 22 23
12 13 18 14 13 11 8 8 6 7 6 5 4 3 5 4 5 3 6 7 8 7 9 10 12 14 13 11 11 11 10 12 16 19 21 22 23 22 20 19 21 22 22
12 13 16 15 13 12 8 9 8 7 6 5 4 4 5 4 6 8 11 8 10 12 11 11 12 13 13 11 10 11 10 12 13 15 17 20 20 20 20 20 19 21 25
14 15 16 16 12 11 8 8 8 5 4 4 6 3 4 6 8 11 10 9 12 11 10 11 12 10 12 10 9 11 10 10 11 12 13 15 19 19 19 20 20 23 23
15 14 18 20 15 14 10 8 7 5 6 6 4 5 7 6 10 10 10 10 10 10 11 11 11 9 9 10 11 8 10 10 9 10 11 12 15 18 19 20 21 20 20
13 15 17 22 17 14 12 9 10 9 8 8 7 7 10 11 12 12 12 12 11 10 10 8 9 6 7 11 13 11 11 12 9 8 8 11 13 17 19 19 20 20 20
15 16 17 23 21 15 13 10 10 10 10 9 10 11 12 13 12 12 13 12 10 8 8 7 7 5 7 8 13 12 12 12 10 8 8 8 9 15 18 18 20 19 19
15 16 17 20 24 20 15 13 11 12 11 12 13 11 11 11 12 11 11 10 9 8 7 5 5 5 5 7 11 15 12 10 12 11 10 10 11 13 18 20 19 18 15

GFSSE_500_spd_069.txt.gz
Wind_Speed
12 11 12 12 12 12 10 10 10 11 11 11 10 9 9 8 7 6 7 6 5 6 8 8 8 8 7 8 8 8 10 13 14 14 14 14 14 14 15 15 14 13 12
13 11 13 13 14 15 14 14 13 12 11 10 8 7 6 5 5 5 6 6 6 7 7 7 7 8 7 7 8 9 11 13 13 13 14 15 15 14 15 14 15 15 16
13 12 13 14 15 16 16 15 14 12 10 7 6 6 4 3 3 4 4 5 6 6 7 7 8 8 8 8 6 7 15 14 13 13 14 14 14 13 13 12 13 15 16
13 13 13 15 15 16 14 13 12 10 8 6 5 4 4 3 3 4 6 7 7 8 8 10 10 9 10 10 7 17 20 13 12 13 13 12 11 11 10 10 12 13 13
13 14 14 14 14 14 13 11 10 10 9 9 7 6 4 1 2 4 7 8 8 9 10 12 11 13 13 14 16 17 17 13 12 11 10 11 9 9 9 10 11 11 12
13 14 15 14 14 14 13 10 11 11 12 10 9 7 6 7 7 8 11 12 10 11 13 12 14 16 16 20 18 17 15 13 12 11 10 11 10 10 9 10 11 11 11
14 13 15 15 14 14 13 12 13 14 12 12 13 14 15 15 17 18 19 16 18 22 18 18 17 18 17 17 16 16 13 13 13 13 12 11 10 11 11 12 11 10 14
15 14 14 16 15 15 13 14 13 14 14 16 19 20 21 21 22 21 20 20 21 21 22 21 19 18 18 15 14 16 14 15 15 14 14 13 14 14 14 12 12 16 19
11 14 14 16 16 15 15 14 13 15 16 19 20 21 23 22 21 19 19 20 21 21 21 21 20 18 18 16 16 15 15 16 17 17 16 15 17 15 14 14 18 22 21
10 12 14 16 16 15 16 15 15 15 16 19 19 20 20 20 18 18 18 19 19 18 19 18 18 18 18 16 16 15 15 17 17 16 16 16 17 17 18 21 23 25 27
9 10 13 15 16 15 16 16 15 15 17 18 20 19 18 15 16 16 16 15 16 16 17 16 16 15 15 15 16 15 16 17 17 16 15 16 17 18 22 25 26 28 28
8 11 12 15 16 17 16 15 14 14 16 17 18 18 19 16 13 12 12 13 14 15 14 17 14 14 13 15 15 15 15 17 17 17 17 17 18 18 19 23 24 26 30
8 11 14 14 16 17 16 15 13 14 13 17 16 16 17 16 13 14 13 13 14 14 13 11 12 12 13 15 16 16 15 16 16 17 17 17 17 20 21 22 24 28 29
8 11 15 15 15 17 15 13 11 12 12 14 13 9 11 15 14 13 14 14 14 16 14 12 13 14 12 16 15 15 15 15 14 16 17 18 19 22 25 26 28 28 27
9 13 14 17 17 17 15 12 10 10 9 12 11 7 12 13 12 12 13 13 13 15 14 12 14 15 14 15 14 13 15 11 15 17 17 20 23 25 28 28 26 25 25
11 13 15 17 19 17 15 12 11 9 9 9 10 7 7 9 11 11 11 12 12 13 15 13 14 15 14 14 13 12 12 12 17 19 20 22 25 26 26 26 24 24 23
13 14 17 18 18 17 14 13 10 10 9 7 7 6 5 4 7 9 9 11 11 12 13 14 12 15 15 13 12 11 12 13 13 19 21 22 23 23 23 22 22 21 21
13 16 17 17 15 14 13 12 11 9 7 7 9 4 3 4 4 7 7 7 11 11 12 13 10 13 14 12 11 11 13 15 15 16 19 20 18 19 19 19 20 22 21
14 17 16 17 14 14 14 11 10 11 8 4 7 4 3 3 4 5 7 7 9 10 12 14 12 10 11 11 10 12 14 15 16 16 15 17 17 18 20 21 21 21 23
15 16 17 16 16 13 11 11 9 6 8 3 2 3 2 3 3 5 7 8 10 12 12 14 13 11 11 10 11 14 16 17 18 18 19 19 19 20 20 21 20 22 22
17 18 19 18 16 13 11 9 9 5 6 4 4 4 3 4 4 5 7 9 12 13 12 11 10 11 10 10 9 13 15 15 15 15 15 18 20 20 19 19 22 20 21
21 21 21 20 18 15 11 10 10 6 5 4 5 5 4 8 8 9 10 10 10 12 10 10 9 11 10 9 7 10 12 14 13 13 12 14 16 17 17 20 20 18 19
21 21 25 23 20 16 14 12 10 8 6 6 5 6 8 9 11 11 11 11 11 10 9 8 9 9 9 10 10 9 9 11 11 11 10 11 14 16 18 20 19 18 18
23 25 26 23 21 17 16 14 12 11 10 9 8 8 10 11 11 11 11 12 12 10 10 8 9 8 8 9 12 11 9 12 11 9 8 7 11 14 16 17 18 18 17
23 24 27 23 20 17 16 14 11 10 11 10 12 11 10 13 12 12 10 10 11 9 10 8 8 7 9 8 12 12 10 12 10 9 8 8 8 12 15 16 16 15 14
21 21 23 25 20 19 16 14 11 12 13 13 14 14 12 11 13 11 9 8 8 8 7 6 6 7 10 9 13 14 11 11 10 8 9 12 11 15 16 16 14 12 10

GFSSE_500_spd_072.txt.gz
Wind_Speed
12 12 11 11 11 10 11 12 13 12 11 13 12 11 10 9 7 6 5 5 5 6 7 7 7 6 6 8 10 12 15 15 15 14 13 13 14 14 15 14 13 13 14
16 12 14 13 13 15 15 13 12 11 11 9 7 6 5 4 4 4 4 3 4 4 5 6 6 7 8 9 11 13 15 15 13 13 13 13 13 14 15 16 16 17 17
16 15 16 16 15 17 16 15 12 10 9 7 5 3 2 2 2 3 3 3 4 4 5 6 7 7 7 7 11 15 14 14 13 13 14 13 12 12 13 13 15 15 17
15 16 17 16 17 18 16 14 11 10 8 5 3 2 3 3 3 4 3 4 5 6 6 7 8 8 8 8 9 24 14 13 12 11 12 11 11 11 11 11 13 14 16
13 16 17 16 16 16 16 14 13 11 9 7 5 4 3 3 4 6 5 6 7 8 9 10 11 12 12 16 18 21 14 11 10 11 10 10 10 10 8 9 12 14 16
13 15 15 15 15 16 16 16 15 12 10 11 10 9 7 8 10 9 8 9 10 11 12 14 15 16 17 16 18 14 12 10 11 11 10 9 8 8 9 10 12 15 16
14 15 15 15 16 16 16 15 14 13 14 16 17 17 17 17 17 16 16 19 18 18 16 17 17 17 17 17 13 12 12 13 14 13 11 10 10 9 10 11 14 17 16
14 15 16 15 17 17 16 16 15 15 18 20 21 23 24 23 22 22 20 20 21 20 19 20 18 16 15 14 13 14 14 16 15 15 14 12 11 10 11 15 19 19 18
12 13 15 15 17 16 16 14 16 16 18 21 22 23 25 24 23 23 20 20 19 20 21 20 18 16 16 16 15 15 15 17 16 15 15 13 12 13 16 20 20 21 22
12 12 14 14 16 16 15 14 16 17 18 19 22 22 21 22 22 21 20 19 17 18 19 19 17 15 15 14 15 16 17 17 16 15 15 15 17 19 22 23 24 25 27
12 11 13 14 16 17 15 14 16 17 19 20 20 20 20 19 19 18 18 18 17 17 16 15 15 15 14 13 13 16 17 17 15 14 15 16 20 23 24 24 26 28 30
14 13 12 13 15 17 15 15 16 16 18 19 20 19 18 16 16 14 15 16 17 16 16 11 12 13 14 14 14 16 16 17 16 14 15 16 19 23 25 26 28 28 27
14 14 13 13 15 15 14 15 15 15 16 18 18 17 18 18 17 15 14 13 16 15 13 11 11 14 13 13 16 15 16 18 16 14 14 15 18 20 23 27 27 26 25
14 15 14 15 16 14 13 17 15 14 13 16 15 14 17 18 18 14 15 14 14 15 15 12 11 12 13 14 14 15 16 17 15 14 13 15 18 23 25 26 25 24 24
15 16 14 16 18 15 13 15 15 14 12 12 15 16 14 14 15 14 13 12 13 13 16 15 13 12 14 15 14 13 14 15 14 14 16 21 24 26 25 25 23 22 20
17 17 15 17 18 14 12 15 14 13 12 10 12 14 13 12 13 13 13 12 13 12 12 14 14 14 13 14 14 13 12 14 15 16 18 22 23 23 22 23 21 19 18
18 19 18 18 19 14 14 14 14 12 12 8 10 12 11 10 9 10 11 12 12 12 12 12 13 14 13 15 15 14 12 12 13 17 20 20 21 21 21 20 20 18 18
19 21 20 19 18 12 15 15 14 11 10 10 12 9 9 10 7 8 10 10 10 10 10 13 13 13 13 15 15 12 12 12 14 16 17 17 17 17 17 19 19 18 19
21 23 23 20 18 14 14 14 14 10 10 8 8 8 7 8 8 6 10 11 10 10 10 11 12 12 12 13 15 13 12 10 12 13 14 14 13 16 18 18 19 19 21
23 23 22 20 18 15 14 11 12 10 10 8 5 6 4 6 7 8 9 10 10 12 10 10 11 11 10 11 13 15 16 14 12 12 13 14 16 17 16 18 18 21 22
22 23 21 20 19 17 14 11 10 10 8 8 5 4 5 6 8 12 12 14 13 13 12 9 10 11 10 12 11 13 15 16 15 14 14 15 16 16 15 18 17 19 20
25 25 24 21 17 14 12 10 10 9 7 9 8 8 7 9 8 11 12 13 12 11 11 11 9 8 8 12 11 11 12 14 12 11 13 14 15 12 15 14 15 16 17
21 25 23 22 17 13 12 12 12 10 11 11 9 8 9 10 11 12 11 11 10 10 9 9 8 9 9 9 11 12 9 10 11 10 11 11 11 12 14 12 12 13 13
20 25 24 22 19 14 13 14 12 10 10 12 12 11 12 13 13 13 11 10 9 9 10 9 7 8 10 10 10 12 9 10 9 8 8 9 11 13 13 11 11 11 10
20 24 26 23 21 18 16 13 10 11 11 10 12 13 14 14 14 15 13 11 9 8 10 10 9 8 10 12 12 12 10 10 9 8 8 9 11 12 12 12 11 10 10
19 23 26 23 21 20 18 15 12 11 12 13 13 15 18 17 15 15 14 13 10 7 8 9 9 9 12 13 13 13 11 10 9 7 10 12 12 12 13 12 9 9 8

GFSSE_500_spd_075.txt.gz
Wind_Speed
14 12 12 11 12 13 13 14 14 12 12 12 12 11 10 10 10 10 8 8 7 5 4 2 4 5 7 9 11 14 14 14 12 12 12 13 13 13 12 12 12 13 13
19 14 14 13 15 14 15 15 13 11 9 8 7 7 7 7 8 8 7 5 4 4 4 4 5 5 8 10 13 15 15 14 13 12 12 13 13 14 15 16 16 15 15
18 16 16 15 16 17 16 14 12 9 8 7 7 7 6 6 6 5 5 3 3 4 4 5 5 5 6 11 16 16 16 15 13 12 13 12 12 13 14 16 16 15 15
16 17 17 16 15 15 15 13 12 10 10 9 7 6 7 6 5 6 4 4 5 6 6 6 6 5 6 12 19 20 13 11 10 10 10 11 11 11 12 13 15 15 15
16 17 16 15 14 15 15 14 13 11 9 9 6 6 6 7 8 7 6 7 8 8 9 9 8 9 18 20 23 16 11 10 8 9 10 9 9 9 11 12 14 15 15
17 17 15 14 15 16 16 15 13 14 13 11 9 9 9 9 9 8 9 11 12 11 12 12 13 15 17 18 15 11 9 8 10 9 9 7 7 9 11 13 15 15 14
19 17 16 16 16 16 15 15 16 18 17 17 17 16 17 16 14 12 14 15 15 15 16 15 18 15 15 14 12 11 10 11 12 11 10 8 7 8 11 14 16 14 12
18 17 17 18 17 17 16 17 19 21 22 23 23 23 22 21 21 20 19 18 17 18 18 18 17 16 14 13 13 13 13 15 14 14 12 9 6 8 13 16 16 13 11
17 15 17 18 18 18 18 18 20 21 23 24 24 24 24 23 22 20 19 19 18 18 18 17 15 15 14 14 14 14 14 15 15 14 11 8 8 14 19 18 16 16 15
16 15 16 17 18 19 17 18 19 21 22 23 22 21 21 22 21 19 19 18 19 17 17 17 16 15 14 14 14 14 14 15 15 14 14 13 15 20 20 20 20 23 26
15 13 14 16 18 19 18 18 20 20 20 18 20 19 18 19 20 19 19 18 17 17 17 16 15 14 13 12 13 14 13 14 15 15 16 17 20 21 22 23 25 27 27
16 14 14 15 17 18 18 18 19 20 19 16 17 18 16 17 17 17 18 16 15 16 16 16 15 13 12 12 13 14 14 15 15 15 15 19 20 22 24 27 25 25 23
18 15 15 15 16 16 16 18 19 18 19 17 16 18 18 17 17 16 14 15 14 13 16 14 14 15 14 13 14 14 14 16 15 15 15 17 20 22 25 24 23 23 21
18 17 16 16 16 17 17 17 18 20 16 17 17 18 17 16 16 17 14 13 14 14 14 14 15 15 15 14 13 12 14 15 14 14 14 18 22 23 22 22 21 20 19
18 17 16 17 16 16 17 16 15 16 14 18 18 15 15 14 13 14 13 14 15 15 14 16 16 16 15 15 13 12 14 16 14 14 16 21 22 21 21 20 19 17 17
19 17 17 17 16 15 16 17 14 16 15 12 15 16 14 13 12 11 12 12 15 15 14 16 16 16 16 15 15 14 14 15 16 15 17 19 19 18 17 17 16 16 17
19 19 18 18 15 14 13 15 15 14 14 12 12 12 12 11 11 9 11 10 11 14 15 15 14 15 16 16 16 15 13 13 14 17 17 16 16 15 15 15 15 16 17
20 20 19 18 15 14 13 12 15 12 12 14 11 11 11 10 8 8 9 9 10 11 12 14 14 14 14 15 15 15 12 12 13 13 15 15 14 13 13 14 14 16 21
21 21 21 20 15 15 14 14 13 13 13 12 11 11 11 11 8 8 8 9 10 11 11 12 13 13 14 14 13 13 12 11 10 11 12 10 11 13 13 15 16 20 20
21 21 22 20 16 16 14 13 13 13 11 10 9 9 10 7 7 9 9 9 9 11 11 12 11 12 13 14 14 12 11 10 9 10 9 10 13 14 14 16 18 19 19
22 23 21 21 19 18 14 11 10 10 9 9 8 8 10 7 7 9 10 10 10 10 11 11 12 12 13 14 16 14 13 11 10 10 11 13 13 13 14 16 16 16 18
24 24 23 20 21 16 12 10 9 9 8 10 8 7 8 10 9 10 12 12 9 9 9 9 10 11 11 12 15 13 12 9 9 11 13 12 11 13 13 14 14 15 16
24 25 25 23 20 15 13 13 13 11 10 10 10 9 9 10 11 11 12 10 10 9 8 8 10 10 10 10 12 11 10 8 8 9 12 11 11 14 12 12 13 13 13
24 26 24 22 18 16 14 14 13 11 9 10 12 12 12 12 12 11 12 11 11 9 9 7 8 10 10 12 12 11 10 9 9 9 9 10 12 13 11 12 11 11 11
23 26 26 23 19 16 16 14 12 11 11 11 13 15 14 14 13 12 11 10 10 10 8 7 9 12 12 12 12 10 10 8 8 9 10 10 12 12 11 11 10 8 8
21 22 26 23 22 19 16 14 12 13 14 14 15 16 16 15 13 12 10 9 8 9 9 7 8 13 14 13 13 12 11 9 8 8 11 13 14 12 11 10 8 6 7

GFSSE_500_spd_078.txt.gz
Wind_Speed
14 11 12 11 11 11 12 13 14 14 13 13 12 11 10 9 9 8 8 7 6 6 5 4 3 4 6 7 10 10 12 11 12 12 13 12 12 10 11 10 11 11 10
16 13 14 13 14 13 13 12 11 11 10 9 8 7 7 7 8 7 7 7 6 5 5 4 3 5 7 9 11 11 12 12 11 11 12 13 13 13 13 12 12 11 12
17 17 16 16 16 15 13 11 10 9 8 7 7 7 7 7 7 7 8 7 6 5 3 2 2 6 10 12 13 13 18 12 11 11 11 11 13 13 14 13 13 13 13
17 18 16 16 15 14 12 10 10 9 8 8 8 8 8 8 7 7 7 7 6 5 5 2 1 4 14 17 15 16 11 10 9 9 9 9 11 11 12 12 13 12 12
17 17 16 15 15 14 13 11 10 10 9 9 8 8 9 9 9 7 8 9 8 8 6 6 5 17 15 22 16 13 10 8 9 8 8 8 8 9 11 12 12 12 12
16 17 16 17 16 15 14 14 13 12 12 11 10 11 11 10 9 10 10 10 9 10 10 14 16 21 20 15 13 10 9 8 11 8 7 6 6 8 10 12 12 12 11
16 17 16 17 16 15 15 16 17 17 18 18 17 18 15 11 10 12 12 12 12 12 14 14 16 18 13 13 11 10 9 10 11 9 6 7 6 7 10 12 12 10 9
15 17 16 17 16 16 17 18 21 23 22 22 22 22 21 20 18 16 15 14 14 14 14 15 14 15 13 12 12 11 10 12 12 12 8 7 6 8 10 12 10 9 7
15 17 16 18 17 17 17 19 22 22 23 23 23 22 22 21 20 18 16 14 14 14 16 14 14 13 14 13 13 12 11 13 13 12 7 7 8 11 13 13 11 10 10
15 16 15 16 18 18 17 19 20 19 21 23 22 21 20 20 20 20 18 15 15 15 15 14 13 14 13 12 12 11 12 14 15 14 12 12 15 17 15 16 19 22 23
16 16 15 16 17 18 18 18 18 18 18 18 19 18 19 18 19 19 17 17 17 17 15 14 13 13 13 12 11 11 13 15 16 17 17 19 18 19 20 24 25 25 25
17 16 16 16 17 17 17 18 17 17 16 16 17 17 17 16 16 17 16 17 17 17 17 15 13 14 12 13 12 13 14 16 16 17 18 18 19 21 24 23 22 22 22
18 16 16 15 16 17 16 18 17 19 17 15 15 16 16 16 15 15 15 14 16 16 16 15 15 15 14 13 13 15 15 15 15 16 18 19 22 23 21 20 20 20 19
19 18 17 15 15 16 16 18 18 16 17 17 16 14 15 16 15 15 15 15 15 16 16 16 15 15 14 13 13 15 15 14 14 15 17 20 21 20 19 18 18 17 18
19 18 18 15 15 15 16 17 13 15 17 15 15 13 13 14 14 14 15 15 15 16 15 15 15 15 15 14 14 14 16 16 16 15 17 19 18 17 17 16 16 16 18
19 18 17 16 15 14 14 15 14 15 14 13 14 14 12 11 12 13 15 14 14 15 15 15 15 16 16 17 16 16 18 18 17 16 17 15 14 15 14 13 15 17 19
19 19 17 17 15 14 13 14 14 13 14 13 11 11 11 9 10 12 15 14 13 13 14 15 15 16 16 15 15 16 17 18 17 15 13 12 12 12 11 13 14 18 20
20 19 18 16 15 15 12 12 14 11 12 12 10 9 9 8 8 7 10 13 13 12 13 14 14 15 15 12 14 14 15 14 14 13 12 12 11 11 12 13 15 20 20
21 21 19 17 14 14 12 12 12 12 12 11 9 8 8 6 7 6 6 8 10 11 12 12 12 13 13 12 12 12 13 13 12 12 11 10 11 11 12 14 19 20 20
21 19 20 17 13 14 14 14 13 13 12 11 9 8 8 6 7 7 7 6 8 9 9 11 12 12 11 11 10 9 10 10 9 8 9 10 12 12 13 16 18 18 20
20 20 21 20 16 15 14 13 11 12 12 9 9 7 7 7 7 7 6 7 8 8 8 10 12 12 12 12 11 10 10 9 7 8 9 12 13 13 15 16 18 18 18
21 22 22 21 18 14 12 12 11 12 12 10 10 9 7 9 9 8 7 8 7 8 8 10 10 12 12 13 12 11 10 9 8 8 11 12 13 13 14 15 15 16 17
20 22 23 22 19 17 13 12 13 12 10 11 11 10 9 8 9 10 8 7 8 7 8 8 10 10 11 11 10 9 8 8 8 8 10 9 13 12 13 14 13 13 14
23 24 24 23 20 18 16 13 12 10 8 9 12 11 11 10 9 9 9 7 6 6 7 7 9 10 10 10 10 8 7 8 7 8 9 9 12 11 14 13 11 11 12
24 27 26 25 22 19 18 15 13 10 11 12 13 12 13 12 10 11 10 9 7 6 6 8 10 9 9 10 9 8 8 8 6 7 8 10 12 10 11 10 9 9 10
24 28 26 26 24 20 18 17 13 11 12 11 11 13 14 13 12 11 11 11 8 7 5 5 7 10 10 9 9 8 7 6 5 7 10 10 11 10 10 8 7 7 7

GFSSE_500_spd_081.txt.gz
Wind_Speed
9 8 10 10 12 13 14 14 13 13 13 13 12 11 8 7 7 6 4 3 3 5 5 3 2 2 4 7 9 9 9 11 12 11 10 10 9 10 10 10 10 9 10
12 10 10 10 11 12 13 13 12 11 11 10 9 7 6 5 5 4 3 3 4 5 2 2 2 3 5 8 9 12 11 12 11 11 11 12 12 11 11 11 10 11 11
14 14 13 12 11 11 10 9 9 8 7 7 7 6 6 6 5 4 4 4 4 4 4 2 0 5 8 8 10 15 15 12 9 10 11 11 11 12 11 10 10 11 11
14 15 14 14 12 10 8 7 6 5 5 6 7 7 6 6 5 4 4 5 5 4 5 2 3 9 11 8 15 13 9 10 9 9 8 9 9 10 9 10 11 11 11
13 15 14 13 12 10 9 8 6 6 6 8 8 8 8 8 6 6 6 7 6 7 8 9 18 7 21 21 13 9 9 8 8 9 7 6 7 8 9 9 10 10 10
14 14 14 14 12 11 12 11 10 10 10 10 10 10 10 9 8 8 9 8 8 11 12 20 21 23 15 12 10 10 8 8 8 9 7 5 5 6 7 8 9 10 9
14 14 15 14 13 14 14 17 18 18 17 16 15 13 12 11 11 10 11 10 10 12 14 19 18 16 13 12 12 10 7 5 6 5 6 6 5 6 7 8 8 7 8
13 13 14 15 16 16 18 20 20 22 21 21 21 21 19 16 14 13 13 12 12 12 15 15 14 15 14 13 11 10 9 10 9 8 7 7 7 7 8 7 6 5 6
12 11 12 15 16 17 18 20 20 22 21 21 20 21 20 19 16 15 15 14 12 13 14 15 14 14 12 12 11 11 11 11 9 6 7 9 10 10 9 7 6 6 8
13 11 12 15 16 16 17 18 19 20 21 21 19 19 19 19 18 16 16 15 14 13 13 14 12 12 12 11 13 13 13 14 14 14 15 17 16 14 11 12 14 16 18
13 12 11 14 15 16 16 16 17 18 18 19 19 18 16 17 17 17 16 16 15 15 13 12 12 12 13 11 13 13 15 16 20 21 20 19 17 17 19 21 23 24 24
12 13 11 12 15 15 14 14 15 15 15 16 16 18 16 16 16 17 16 17 16 16 15 12 13 12 13 12 13 13 14 18 20 21 21 21 23 22 21 21 21 20 19
14 13 12 12 13 14 14 14 14 15 15 14 14 14 15 15 14 14 15 15 16 16 16 14 14 13 13 13 14 13 15 18 20 22 23 24 22 20 20 20 18 17 17
15 14 13 12 12 13 13 14 14 14 15 15 14 14 14 14 15 15 14 14 15 15 15 14 14 13 13 12 13 14 15 17 20 22 22 20 19 18 18 17 16 17 19
15 14 13 11 10 12 14 13 13 13 13 14 13 13 13 14 14 14 14 14 14 14 14 14 14 13 13 13 14 15 16 18 20 19 18 17 17 16 16 16 16 18 19
16 14 13 12 11 11 11 9 11 12 11 11 11 11 12 12 12 12 13 14 13 13 12 13 13 15 15 15 17 16 17 18 18 17 16 15 14 14 15 16 16 19 19
18 16 12 11 11 10 9 8 11 9 10 10 9 9 12 11 12 11 11 12 12 12 12 13 13 14 15 17 17 17 18 18 16 15 14 13 12 13 15 15 18 19 18
17 18 16 11 10 10 9 9 8 10 9 8 7 7 8 9 11 11 9 11 11 11 10 11 12 12 14 14 15 16 15 14 13 12 12 11 11 12 15 19 19 17 19
19 18 18 14 10 10 9 10 8 8 9 7 5 5 4 6 7 9 10 10 10 8 8 10 11 11 10 11 11 12 11 12 12 11 10 11 12 13 17 20 17 18 20
19 17 17 16 12 11 10 10 9 7 7 7 6 4 5 4 4 7 9 9 9 8 6 7 8 9 10 10 9 9 8 9 8 8 9 11 13 15 19 18 16 17 19
18 18 18 18 14 12 9 9 8 9 8 6 5 4 3 4 5 6 7 7 8 8 7 6 6 7 8 8 8 8 7 7 8 8 10 10 12 16 18 16 16 16 17
19 21 20 20 15 12 11 11 10 11 10 7 6 4 3 4 6 6 7 7 7 6 7 6 5 6 7 10 11 11 9 10 10 10 11 11 12 14 15 15 15 14 14
19 22 22 21 16 14 14 12 11 9 7 7 7 6 5 5 6 9 8 8 8 6 6 6 5 6 7 8 9 8 8 8 10 12 11 11 11 12 12 13 12 12 12
19 22 22 21 19 16 15 12 10 9 10 9 9 8 7 6 7 8 8 7 7 6 6 6 6 5 6 5 5 6 6 9 7 10 10 12 10 10 9 9 9 9 10
20 21 23 22 20 18 16 13 11 10 10 9 9 9 7 6 6 7 8 8 8 7 6 7 8 7 6 6 4 3 3 6 7 6 6 12 11 11 9 8 8 8 8
21 21 23 23 22 19 18 14 13 11 10 9 10 11 10 8 7 6 7 7 8 6 6 5 7 8 7 6 5 5 3 2 4 6 8 10 8 9 8 7 7 7 7

GFSSE_500_spd_084.txt.gz
Wind_Speed
7 10 13 13 13 12 13 13 12 11 11 11 10 9 8 7 6 5 5 6 6 5 4 4 2 3 5 8 10 9 10 11 10 10 7 7 7 8 8 9 10 12 12
9 11 13 13 12 11 11 12 12 10 9 7 6 5 5 5 5 5 6 5 5 5 4 3 2 3 5 7 9 11 11 10 10 10 9 8 9 9 10 10 11 12 13
12 12 13 13 11 9 7 6 9 8 6 5 4 3 3 4 5 6 5 6 6 6 5 4 3 1 5 6 10 12 12 9 9 9 11 11 10 11 11 11 11 13 13
12 13 13 11 8 7 5 6 6 6 5 4 3 3 3 4 5 7 8 9 9 7 6 5 3 1 4 12 14 12 8 7 9 9 9 11 10 10 11 11 12 12 13
12 12 11 10 9 7 5 5 5 4 4 5 5 5 5 5 6 7 8 9 11 21 20 22 22 23 19 17 11 10 8 7 8 8 9 9 9 10 10 11 12 13 13
11 12 12 10 10 9 7 7 6 6 6 6 7 7 8 8 9 10 10 12 13 15 19 24 25 20 15 11 10 10 8 8 9 8 8 8 9 9 10 10 11 13 13
11 11 11 11 12 13 13 14 15 14 13 12 11 11 12 13 14 12 13 13 13 16 21 19 17 16 14 12 10 9 6 6 5 9 10 9 9 9 10 9 10 12 14
11 11 12 13 15 17 18 20 21 21 20 20 18 17 17 16 15 14 13 13 15 17 19 20 19 17 16 15 14 11 9 9 9 11 12 11 11 10 9 9 9 11 13
11 11 12 14 16 18 19 21 21 21 20 20 19 19 18 18 17 14 14 14 14 16 17 19 19 16 17 17 15 12 10 8 9 11 13 15 14 12 11 9 10 11 12
12 10 13 13 15 17 18 19 20 20 18 18 17 17 17 18 17 16 16 15 15 16 17 17 16 17 18 15 14 16 16 12 13 18 20 20 16 14 16 17 17 17 15
10 11 11 13 14 15 16 17 17 18 17 17 15 16 16 17 18 18 17 16 16 17 15 12 13 15 17 15 16 18 20 19 24 24 23 21 20 22 23 24 24 22 20
12 12 7 12 12 13 14 14 14 18 15 14 15 15 17 16 17 18 18 18 17 16 14 11 13 14 18 16 16 20 18 21 25 25 25 24 23 23 23 22 21 20 20
12 10 9 12 11 11 12 13 13 16 14 13 13 14 14 16 17 18 19 15 15 16 15 14 15 18 17 16 18 19 18 21 24 26 26 23 22 21 20 20 20 21 22
8 10 9 10 9 9 10 13 13 14 15 14 13 13 15 17 15 16 17 14 14 13 12 18 16 14 14 17 18 18 17 21 23 24 22 21 20 20 20 20 21 21 21
10 8 7 8 10 10 9 9 11 12 13 13 13 14 14 14 12 16 15 17 13 16 19 16 23 12 14 16 19 18 18 22 22 20 20 19 19 19 20 20 20 20 19
12 9 6 7 8 8 7 6 9 9 11 11 11 12 13 11 10 10 18 12 14 19 18 15 15 16 16 16 19 18 18 19 19 18 18 18 16 18 19 20 20 19 20
12 12 7 6 7 6 5 4 4 6 11 10 10 10 12 10 6 16 11 13 14 17 16 14 16 19 18 18 19 20 17 17 17 17 16 15 16 16 18 19 18 20 21
14 13 10 7 6 5 5 5 3 2 7 8 7 8 10 10 8 11 11 13 11 17 14 12 16 17 17 17 18 16 15 14 14 13 14 15 16 15 18 19 18 20 21
15 14 13 11 8 6 4 5 2 1 5 5 6 7 6 10 9 7 10 10 9 14 12 11 12 13 13 13 13 13 15 14 13 11 13 14 15 17 18 18 18 19 19
16 15 14 12 9 8 5 4 4 1 2 2 4 6 7 7 8 8 9 8 11 11 10 9 9 11 10 9 8 9 12 11 11 12 12 14 18 19 16 17 18 17 18
17 15 15 15 12 9 6 5 5 6 5 3 2 3 5 6 6 7 8 9 9 8 8 9 7 9 8 7 8 6 8 9 11 12 13 12 15 16 14 15 16 15 14
16 18 17 16 12 8 7 7 5 4 3 1 0 2 2 5 4 5 7 6 8 9 8 7 8 8 9 10 11 9 6 8 11 12 14 14 15 13 12 13 13 12 12
16 17 17 17 13 10 10 8 5 2 4 4 1 1 2 3 5 4 4 3 5 8 6 7 7 7 8 7 9 7 11 7 10 12 14 13 12 11 11 10 10 10 10
19 17 17 17 15 12 10 8 5 6 6 5 4 1 2 2 5 5 3 4 4 5 7 8 7 4 3 3 4 6 6 8 10 6 10 13 10 10 9 9 7 8 8
21 18 18 18 17 13 11 8 6 7 9 6 4 4 3 5 5 6 5 4 4 2 3 4 6 5 5 3 2 3 5 3 6 7 7 11 9 9 7 7 7 7 7
22 20 18 20 19 15 13 11 8 9 6 6 6 7 8 9 7 5 6 4 3 1 2 2 4 5 3 3 2 2 4 5 5 3 6 9 8 9 7 7 6 6 5

GFSSE_500_spd_087.txt.gz
Wind_Speed
13 14 17 17 15 14 13 13 13 13 12 10 9 8 8 8 7 7 8 8 7 7 8 8 7 8 8 9 9 10 12 11 11 10 9 8 9 11 11 11 12 16 17
11 13 15 14 13 12 11 11 10 9 9 8 7 6 7 7 8 8 7 7 7 7 7 6 6 6 6 8 10 12 12 12 12 12 10 10 11 12 11 12 15 17 17
14 13 13 12 11 9 7 8 6 5 5 4 5 6 6 7 7 8 9 10 8 6 4 4 5 5 5 9 12 11 12 12 12 12 12 12 13 13 13 14 16 17 17
14 14 12 11 9 6 6 6 5 4 4 4 6 6 6 7 9 10 12 13 13 9 7 6 7 9 7 7 9 8 11 11 11 12 11 13 13 14 14 16 17 17 16
12 12 12 10 9 7 6 5 5 5 5 7 8 9 9 10 11 14 14 14 21 21 21 19 21 19 16 14 13 11 10 10 10 10 10 12 13 15 16 17 16 16 15
12 11 13 12 10 10 9 9 9 9 8 10 10 12 12 12 14 16 15 17 17 18 21 24 21 16 13 12 12 11 11 13 9 10 11 12 13 15 16 17 16 16 14
12 13 14 14 15 15 15 15 15 14 13 13 13 14 15 16 17 18 17 20 20 19 17 19 18 15 14 11 11 10 11 11 10 13 13 13 15 14 15 15 16 15 14
13 14 16 17 18 18 19 20 20 20 19 18 17 16 15 17 18 18 18 20 20 19 20 20 17 17 16 16 14 13 11 14 14 15 17 15 15 14 14 15 16 14 15
13 15 16 17 19 19 20 20 20 20 20 20 18 16 15 17 18 17 17 18 18 19 19 18 18 16 17 16 13 10 11 12 13 18 19 18 16 14 15 16 15 16 18
13 15 16 17 19 18 19 20 19 19 18 18 18 18 16 16 18 16 16 17 17 18 18 18 18 18 20 17 14 11 14 17 18 23 22 20 19 20 21 21 22 22 21
13 16 15 16 15 15 17 18 17 18 17 18 17 18 17 15 16 17 16 16 15 17 18 18 18 19 21 20 21 24 22 24 24 26 26 27 26 28 29 28 26 23 21
13 14 14 14 13 13 14 15 14 15 17 16 18 16 15 15 16 18 18 15 13 18 18 20 15 19 22 22 20 24 24 25 28 30 29 28 27 28 27 26 24 24 22
12 14 13 13 13 12 12 15 14 15 14 14 17 15 16 16 17 17 17 15 15 21 21 21 16 17 21 23 21 23 26 29 30 28 27 27 26 26 25 25 25 23 22
10 10 12 12 13 11 12 13 15 13 15 15 15 15 15 17 18 16 17 18 17 23 20 18 17 15 18 23 21 25 28 28 26 26 26 25 24 24 24 25 23 21 21
8 9 10 10 12 11 11 12 14 11 11 14 16 14 15 13 14 15 17 19 20 19 19 18 19 15 20 22 25 25 24 25 25 24 22 21 22 23 22 23 21 21 21
10 9 6 7 8 9 8 12 12 10 10 11 13 13 16 14 14 19 17 16 19 21 19 21 21 22 22 22 23 23 22 23 23 22 20 19 20 21 21 21 19 20 21
10 8 8 6 7 5 7 10 8 11 9 12 13 13 13 14 14 19 15 16 19 18 21 24 25 24 22 21 21 20 20 20 18 18 20 19 21 20 20 19 19 19 20
10 10 8 7 8 6 4 7 8 10 9 10 12 11 10 11 15 14 16 16 18 19 20 22 23 23 21 18 18 17 18 16 15 16 16 19 21 20 18 19 18 19 19
10 10 9 7 8 7 6 4 6 7 9 10 10 11 10 8 12 14 13 14 15 15 18 17 18 17 15 15 15 15 14 15 15 14 14 18 20 19 16 18 19 18 17
13 11 8 6 5 5 5 3 3 5 8 9 9 11 10 9 9 12 10 11 13 14 14 15 14 14 12 13 13 10 9 15 17 13 14 18 18 18 16 15 18 15 14
14 13 11 9 6 5 3 3 4 3 5 5 6 9 7 8 8 10 10 10 10 11 13 11 11 12 11 11 10 10 6 11 15 17 16 17 16 16 14 13 16 12 9
16 15 14 12 7 5 6 6 4 4 3 4 5 5 6 7 7 7 9 7 8 10 10 11 10 10 11 12 11 11 7 9 11 13 18 16 14 15 11 11 12 10 8
16 17 15 13 10 8 7 6 5 3 2 3 2 3 5 6 7 8 7 8 8 8 10 9 9 12 11 12 9 8 9 9 10 9 14 16 14 14 11 9 8 8 7
18 17 16 13 12 10 7 7 4 2 1 1 1 1 4 5 5 5 7 7 7 7 8 8 8 9 11 10 9 8 6 6 7 10 11 13 13 11 10 8 8 5 6
19 17 18 16 14 11 8 7 4 1 1 2 1 2 3 5 5 4 3 7 7 8 6 5 7 5 4 7 8 9 8 6 6 7 6 9 12 11 9 6 6 5 3
20 19 18 17 18 15 12 9 5 3 3 3 1 3 4 3 3 4 3 4 5 6 8 6 5 5 4 5 6 8 9 8 3 7 8 5 7 9 9 8 7 6 5

GFSSE_500_spd_090.txt.gz
Wind_Speed
17 17 17 17 16 14 11 9 9 10 11 11 12 12 12 11 11 10 10 9 7 6 7 8 8 9 9 9 10 11 12 11 10 10 11 12 13 14 17 18 18 18 18
17 15 15 15 14 12 11 9 8 7 7 9 10 11 11 10 10 9 8 7 5 4 6 7 7 9 9 10 11 12 13 12 12 12 12 14 14 16 18 18 19 17 17
17 14 13 12 11 10 9 8 6 5 5 6 8 8 8 9 9 10 10 7 3 2 4 6 8 9 11 12 12 12 13 13 13 14 13 14 16 17 18 19 19 16 16
16 13 11 10 9 8 8 6 5 5 6 7 7 7 8 8 11 11 13 12 10 4 6 8 10 7 8 11 10 10 12 13 15 15 15 16 18 18 19 19 17 14 15
14 13 12 11 9 7 6 7 7 7 7 9 9 9 8 10 11 12 13 14 16 15 16 21 19 16 15 12 9 11 11 13 15 13 16 17 18 19 19 19 15 14 16
14 14 14 13 13 11 10 10 10 10 10 11 11 11 12 13 13 14 13 15 16 22 22 20 16 14 14 13 12 11 14 13 13 14 16 17 19 19 19 18 15 16 16
17 17 18 18 18 17 16 14 14 14 14 13 12 12 13 15 15 16 16 16 17 18 19 18 15 13 13 12 13 14 12 12 13 15 17 17 18 19 18 17 16 16 16
18 18 20 19 20 20 20 19 18 17 17 15 15 14 15 16 18 18 18 18 19 19 20 19 15 14 14 15 15 14 15 13 14 18 18 18 19 18 18 16 16 16 16
19 18 20 20 20 20 20 20 21 19 18 15 14 14 15 16 17 18 17 16 17 17 18 18 17 15 12 11 13 14 16 15 17 19 19 19 19 18 18 17 18 17 18
17 17 19 20 20 19 20 20 20 19 16 15 14 14 15 15 17 16 17 16 17 17 18 17 17 17 15 12 13 15 20 20 21 21 22 22 23 23 22 21 19 19 20
16 16 19 19 17 18 18 18 19 19 17 15 15 15 14 15 17 17 16 15 15 17 19 17 17 19 19 22 19 22 26 25 25 25 29 31 31 28 26 23 22 21 19
15 15 19 18 15 15 16 16 17 18 17 15 14 16 16 17 19 19 17 14 16 18 20 19 17 20 21 22 25 27 28 30 29 30 32 31 29 27 25 24 22 20 19
15 16 15 17 16 16 15 16 17 17 18 16 14 16 16 18 19 18 17 19 17 18 18 20 19 20 20 25 27 30 30 29 29 29 29 28 26 26 26 23 21 20 19
13 14 14 15 15 18 15 16 16 17 19 17 15 17 16 17 19 20 19 20 17 17 17 19 21 22 25 27 27 30 30 28 28 26 26 26 26 24 23 21 20 20 19
10 12 11 14 12 18 14 15 14 14 16 17 14 17 15 18 17 22 18 19 19 18 17 19 24 24 27 28 26 27 26 26 26 25 24 24 24 23 21 20 19 20 20
11 11 11 11 13 13 14 13 13 14 13 13 15 15 15 17 19 21 20 21 19 19 19 20 23 25 25 24 23 23 23 23 24 23 24 23 22 21 20 19 19 20 19
11 10 11 8 8 12 12 12 11 14 10 12 14 12 18 17 16 21 19 20 22 22 22 24 25 25 22 22 23 22 20 19 20 20 21 22 21 18 19 18 18 17 17
9 10 12 8 6 11 10 11 9 10 8 10 12 13 16 14 16 18 20 20 21 21 22 23 24 22 21 20 20 19 18 16 16 18 20 21 20 18 18 19 17 16 16
12 10 10 9 6 9 9 10 8 7 9 11 8 10 14 15 16 14 16 18 18 19 17 20 19 18 17 16 17 15 16 15 16 16 16 19 18 17 16 16 17 15 14
9 9 8 8 7 7 7 8 8 6 8 8 9 9 9 12 13 15 13 16 16 16 15 15 16 15 14 15 15 13 14 14 15 15 16 18 15 14 14 14 15 13 12
11 10 10 9 8 8 7 7 8 10 7 8 7 8 5 7 10 13 12 12 14 13 13 13 11 12 12 11 13 13 11 12 15 16 17 16 15 13 12 10 11 9 7
14 12 12 11 7 5 6 7 5 6 6 7 8 7 7 6 7 9 10 11 12 12 12 13 10 9 12 11 9 12 11 10 13 16 16 15 13 13 11 8 7 6 3
15 16 13 12 9 6 6 7 5 6 5 4 6 5 8 8 8 8 7 8 9 11 11 11 13 12 12 11 7 4 10 10 12 14 14 14 13 12 11 8 6 4 3
16 17 15 12 12 8 6 5 5 5 4 3 4 5 6 7 8 7 8 9 8 7 9 9 12 11 10 10 11 6 4 7 7 11 12 12 11 11 9 7 7 5 3
17 18 18 16 15 12 10 8 5 4 4 3 4 7 7 7 6 8 7 8 8 7 7 7 9 10 8 8 11 11 6 5 5 6 10 10 9 10 9 6 6 5 4
19 19 19 18 19 17 14 12 8 5 5 5 6 8 9 6 6 8 7 7 7 5 7 10 8 8 7 8 9 7 10 6 5 6 7 7 6 5 5 7 6 4 2

GFSSE_500_spd_093.txt.gz
Wind_Speed
14 15 14 13 13 14 14 14 14 15 14 13 13 11 10 9 9 8 7 7 7 6 7 9 8 9 9 9 10 10 9 11 12 14 14 17 18 19 20 19 17 17 16
15 15 13 11 12 11 11 12 12 12 12 12 12 11 11 10 9 8 7 6 4 3 5 8 9 10 9 10 11 12 12 13 15 15 17 18 18 20 19 18 18 17 17
13 12 11 10 9 8 9 9 10 10 10 9 9 10 10 9 9 9 8 6 2 1 4 7 9 11 12 12 12 13 14 14 18 17 17 19 20 19 18 18 18 17 18
11 10 9 8 7 7 7 7 7 7 8 9 9 9 9 9 9 11 12 11 6 4 6 7 9 12 13 14 13 12 14 15 17 18 18 19 21 19 17 18 17 17 19
11 10 9 8 8 7 6 6 7 7 8 9 10 9 8 10 11 12 12 14 13 14 17 18 18 14 11 9 11 12 12 15 17 18 19 20 20 18 17 17 17 18 20
14 13 12 11 10 9 8 9 8 8 9 8 9 9 10 11 11 10 13 19 22 20 18 15 15 15 13 14 14 13 13 15 16 18 20 20 20 18 18 18 18 18 19
19 17 18 18 16 15 13 11 11 10 9 9 9 9 10 11 13 14 15 18 18 17 15 16 13 12 13 16 14 13 14 16 16 18 20 20 20 18 19 19 17 18 18
20 19 20 21 21 19 17 15 14 12 10 10 10 10 13 14 13 15 17 18 17 16 16 15 13 13 13 13 14 14 16 15 18 19 20 20 20 19 19 19 17 17 19
20 20 22 23 22 21 20 19 16 14 12 13 12 14 14 13 13 15 16 16 15 15 14 13 12 12 11 15 15 14 17 17 18 19 19 21 21 20 19 18 17 19 19
20 20 22 22 21 20 20 19 17 16 16 15 14 14 12 12 13 14 14 16 16 15 14 13 15 11 14 16 14 14 20 20 19 20 21 23 24 22 20 18 19 20 20
18 18 20 21 19 19 19 18 18 17 17 17 16 15 14 11 13 13 14 15 16 14 16 16 18 20 21 19 19 22 22 23 24 26 26 27 26 23 20 21 20 21 20
17 18 19 19 18 18 17 17 17 17 15 15 16 17 13 13 15 14 15 16 15 15 17 18 19 21 23 25 24 26 28 28 29 30 30 28 26 23 22 21 20 21 20
15 16 18 18 19 16 16 16 17 16 16 16 17 17 15 12 14 17 17 18 19 15 15 18 21 22 25 27 30 28 27 27 26 28 28 26 25 23 22 20 21 20 20
15 13 16 17 19 16 15 16 16 16 15 17 17 17 15 15 17 15 16 17 19 18 15 18 21 24 27 28 27 28 26 24 24 25 27 26 24 22 21 21 20 20 20
14 13 14 16 17 17 14 15 15 15 16 15 17 18 16 16 17 17 17 18 18 19 16 20 23 27 25 25 25 25 24 23 24 26 25 24 22 21 20 20 20 20 20
13 12 14 15 14 16 13 14 14 16 15 15 16 18 16 14 19 18 18 17 18 20 21 24 25 23 22 22 21 22 20 20 22 24 24 22 21 20 20 20 19 19 19
11 12 11 12 12 14 12 14 11 15 15 14 15 13 15 15 16 19 18 19 20 21 22 24 23 21 20 19 18 18 16 16 19 22 22 21 19 18 20 20 18 18 18
8 9 11 11 10 12 11 14 11 12 14 12 14 14 15 16 15 19 19 19 21 23 22 21 20 19 18 16 14 15 14 14 16 20 21 20 19 18 17 18 17 16 17
10 8 9 10 8 8 10 13 11 11 10 11 13 13 14 15 15 16 19 18 20 22 21 20 19 17 17 13 12 14 12 12 12 16 18 18 17 15 16 16 14 14 15
11 9 9 9 10 9 9 9 10 11 7 8 11 11 11 12 15 15 15 16 16 17 16 16 16 17 16 14 11 12 12 11 12 13 14 16 16 14 13 13 12 10 11
14 13 10 9 7 6 7 8 8 8 8 7 8 10 9 10 10 13 14 12 14 13 12 13 14 14 12 11 12 11 9 10 11 13 13 12 13 12 11 10 8 7 7
16 16 13 11 7 5 4 7 6 4 7 6 7 8 10 11 9 9 12 11 11 12 10 10 13 12 10 10 8 10 10 9 10 11 11 9 9 9 8 6 4 2 3
17 16 13 12 11 8 8 9 9 7 5 6 7 8 9 9 10 10 9 9 9 10 10 9 13 11 8 9 7 7 8 7 8 10 9 9 8 6 6 5 3 1 1
16 17 16 14 14 12 10 9 8 8 6 6 6 8 9 9 8 7 8 10 8 8 8 10 11 10 8 7 10 8 7 6 6 8 8 8 7 6 5 4 3 2 2
18 17 17 15 13 12 10 10 8 7 8 7 6 8 8 10 10 9 8 7 9 8 8 9 9 9 9 8 8 10 8 6 5 6 6 6 5 4 3 5 2 3 3
14 17 17 17 17 15 12 11 9 5 5 6 7 8 9 8 10 9 9 9 8 8 7 7 10 9 9 9 5 8 11 7 5 6 7 6 4 3 5 4 2 3 4

GFSSE_500_spd_096.txt.gz
Wind_Speed
15 14 15 13 16 17 18 19 19 17 15 13 11 10 10 9 9 8 7 7 9 8 8 8 9 10 11 12 12 12 13 14 15 15 17 19 20 21 20 18 17 17 17
15 15 15 13 14 14 15 16 14 13 11 11 10 10 10 9 10 8 7 7 7 7 9 10 10 11 11 12 13 13 13 16 16 17 19 20 22 21 19 18 17 20 22
11 13 12 12 12 12 13 12 12 11 10 10 10 10 11 11 13 12 9 6 4 7 9 10 11 12 13 13 13 15 15 18 19 18 20 21 22 21 19 20 21 22 20
10 11 10 11 11 10 11 11 12 11 11 9 10 11 11 12 12 12 10 8 7 8 8 9 13 15 14 14 14 16 17 19 19 19 20 21 22 20 20 22 22 21 21
9 10 10 11 11 11 11 11 11 10 10 9 11 12 13 13 15 16 15 15 17 18 18 15 12 14 14 13 14 16 17 19 19 19 21 22 22 21 21 22 21 21 22
12 12 13 13 12 11 11 11 11 11 10 10 12 13 13 13 15 17 20 21 20 17 15 14 15 15 13 15 14 15 17 19 19 19 21 21 22 21 21 22 21 22 22
17 18 17 16 14 12 11 12 11 11 12 13 13 13 14 16 16 15 16 16 15 14 13 12 11 14 16 16 12 15 16 18 19 20 20 21 22 22 21 21 21 22 22
17 20 20 18 17 14 13 13 14 13 13 13 13 15 14 16 17 16 15 15 14 12 13 14 13 13 15 17 11 15 16 17 18 19 20 21 23 21 22 21 22 22 21
18 20 20 20 20 18 14 15 16 14 14 15 14 14 15 15 15 14 13 14 14 14 13 11 11 14 15 14 12 16 17 17 17 18 19 22 23 22 22 22 22 21 21
19 19 20 21 20 18 15 15 17 17 18 16 15 13 14 15 13 13 12 14 16 15 14 12 11 14 17 14 14 16 17 17 17 19 21 23 23 22 23 21 22 21 23
19 19 19 19 19 18 17 16 16 18 19 18 15 16 15 13 13 13 13 15 16 16 17 20 23 20 15 16 17 17 17 19 21 23 24 24 23 24 22 22 22 22 22
17 18 18 19 18 18 17 15 16 18 18 17 16 16 14 13 15 14 13 16 17 17 20 20 21 20 22 21 20 20 21 24 26 26 26 25 25 24 22 22 22 22 23
17 17 18 19 18 18 17 16 16 17 17 17 16 16 16 15 15 15 14 18 19 17 19 23 22 22 24 24 24 24 25 26 26 26 26 26 24 23 22 22 23 24 24
17 17 17 17 18 19 17 18 17 15 16 17 16 17 15 15 16 15 15 17 20 19 19 22 26 26 25 24 23 24 24 24 24 25 25 25 23 22 23 23 24 24 24
15 17 17 15 15 18 17 18 18 15 13 14 15 19 15 16 16 17 17 16 20 22 23 25 25 23 23 22 21 20 19 21 23 24 23 23 23 22 22 24 24 23 23
15 16 15 15 13 16 16 16 16 17 14 12 14 16 17 15 14 17 15 16 20 24 25 25 24 21 20 20 19 18 17 19 21 22 21 21 21 22 22 23 22 23 22
14 14 14 14 14 13 15 15 14 16 15 12 10 13 16 17 16 15 16 17 21 23 21 22 21 19 18 17 16 15 14 17 19 19 19 21 20 21 21 21 21 22 21
13 12 12 14 12 11 13 14 14 12 14 13 13 12 13 15 16 17 17 19 20 21 20 19 19 17 15 14 14 12 12 13 16 18 18 18 19 19 18 17 18 19 19
13 12 12 13 13 12 12 13 13 13 11 12 11 11 12 14 14 16 19 19 18 17 18 17 16 15 14 13 12 11 11 11 12 14 15 16 16 16 15 14 14 15 16
11 12 12 13 12 12 11 12 13 13 11 10 9 9 10 11 14 14 15 15 15 15 14 14 12 11 10 12 11 10 11 12 12 11 12 13 13 13 12 11 10 12 11
11 10 10 12 13 11 11 10 12 11 11 8 8 9 9 9 10 11 11 12 12 12 12 11 11 11 9 9 11 10 9 11 12 11 10 10 10 10 9 6 6 7 8
14 13 11 9 10 10 10 11 10 8 6 7 9 9 10 9 8 9 8 9 9 10 11 11 10 10 9 7 9 10 10 10 11 10 8 7 7 6 5 3 3 4 6
18 15 11 10 9 9 10 10 10 9 4 5 8 9 10 10 10 8 7 7 7 7 8 10 9 8 7 6 6 8 8 8 10 10 7 6 4 3 1 1 3 6 6
20 17 15 13 11 8 7 8 8 8 7 6 6 9 12 12 11 10 10 9 8 6 6 8 8 7 6 6 6 8 7 7 9 9 7 5 3 2 3 3 4 5 6
18 18 17 17 15 11 10 9 9 9 7 7 7 9 10 11 12 11 12 10 9 8 7 7 6 4 3 5 5 6 8 7 6 7 6 4 3 2 3 5 7 6 6
16 15 17 18 18 16 14 13 10 10 9 9 10 9 10 10 10 10 10 10 11 10 9 9 8 7 5 5 5 7 8 8 6 7 7 5 4 4 3 3 4 5 5

GFSSE_500_spd_099.txt.gz
Wind_Speed
15 15 19 20 20 19 19 18 17 16 16 14 13 12 10 7 5 6 6 6 7 8 9 11 12 12 12 12 12 14 14 13 13 14 17 19 20 21 19 17 17 18 19
16 16 17 15 15 16 16 16 15 15 13 13 12 10 9 7 7 7 7 8 8 8 9 10 12 13 13 13 13 12 14 14 14 16 18 21 22 20 18 19 21 21 20
14 14 14 14 13 13 13 14 14 13 13 12 12 12 11 11 11 10 8 7 9 9 10 11 12 13 14 14 15 15 16 16 18 20 21 23 22 19 20 22 21 20 20
11 11 12 12 11 11 12 13 13 12 13 13 13 13 13 14 13 10 10 11 11 11 12 13 13 14 15 14 15 16 18 18 20 21 22 22 21 20 21 22 20 20 18
10 10 10 11 11 11 11 12 13 13 14 14 14 13 14 16 17 16 17 17 17 14 12 14 14 13 16 15 16 17 18 19 21 22 23 22 22 22 22 21 20 19 19
10 10 10 10 11 12 12 13 14 14 15 14 15 15 16 18 19 19 19 18 17 17 17 14 12 13 13 14 16 17 17 19 21 21 23 23 23 22 21 21 19 20 20
15 14 13 13 13 14 14 12 14 14 14 14 16 18 17 16 18 17 14 14 13 13 13 15 15 14 14 13 14 17 18 19 20 21 22 22 23 21 21 20 20 21 21
17 17 16 14 15 15 15 13 13 15 15 16 17 18 18 17 16 15 13 14 14 14 14 13 15 14 18 13 15 17 18 19 20 21 21 21 22 21 21 21 21 21 21
17 18 17 16 16 17 16 14 13 15 16 17 16 17 17 16 14 14 12 13 12 11 12 14 15 14 14 12 15 17 19 19 20 21 21 20 21 21 20 21 22 21 21
17 18 18 17 16 17 17 16 17 17 17 16 15 16 15 14 15 15 14 15 13 12 8 13 13 17 14 13 16 18 19 20 21 21 21 20 21 21 20 21 21 22 20
17 17 17 17 17 19 18 18 17 18 19 18 16 15 13 13 14 15 16 16 14 14 16 17 18 16 15 17 18 18 19 21 22 21 22 21 21 20 20 22 21 21 21
17 18 17 17 18 20 19 19 18 18 19 17 16 15 14 13 14 14 16 17 16 18 19 19 16 16 18 17 18 20 22 24 23 23 23 22 21 21 21 22 21 21 21
17 18 19 18 19 20 19 18 18 18 19 17 17 18 16 15 16 16 15 19 19 18 17 18 19 18 18 18 21 24 25 25 24 24 23 22 21 21 22 22 22 22 21
16 17 18 18 18 19 19 18 18 17 17 18 19 18 16 16 16 16 17 18 20 21 20 20 22 22 21 21 23 24 24 23 23 22 22 21 21 22 23 23 23 21 21
15 16 17 16 17 18 19 17 17 15 15 17 17 19 17 16 16 16 17 19 21 23 24 23 22 21 21 21 21 22 22 22 21 20 20 20 20 22 23 22 21 21 21
15 15 15 16 16 15 17 18 16 16 15 15 15 15 16 15 15 16 17 20 23 23 22 21 21 20 19 18 18 20 21 20 20 20 20 19 20 21 22 21 20 21 21
15 14 15 15 14 14 17 17 14 13 12 14 15 14 14 15 15 16 18 21 22 21 19 19 18 17 16 16 16 17 18 17 16 17 18 18 19 19 20 20 20 19 20
15 14 13 14 13 13 14 16 14 13 14 13 14 14 13 13 16 16 18 20 18 17 17 16 16 16 14 14 14 15 15 14 13 14 15 15 15 17 18 17 17 17 18
14 14 13 12 13 11 13 14 15 13 12 13 14 14 14 14 16 16 16 16 15 15 14 14 13 13 12 12 12 13 14 12 12 12 13 13 12 13 14 14 14 15 16
14 14 13 12 13 13 11 13 12 12 12 12 12 11 12 13 15 15 14 13 13 12 12 12 12 11 10 10 10 10 12 13 12 12 12 12 11 10 10 10 11 12 14
12 12 11 12 12 12 12 11 11 11 11 12 12 11 10 10 11 11 10 10 10 9 9 9 9 10 10 9 9 9 11 13 12 11 10 10 9 7 7 7 9 8 8
16 13 13 12 12 11 12 12 10 9 8 9 10 10 12 10 10 10 9 7 7 7 6 6 6 5 7 7 8 8 10 12 13 10 9 8 7 5 4 5 7 7 6
19 17 14 13 12 10 10 10 10 9 8 6 8 9 10 11 10 9 8 7 7 7 6 5 5 4 3 5 6 7 9 11 12 10 9 7 5 2 2 3 5 6 5
19 18 17 15 13 11 11 10 9 7 8 8 8 9 9 10 9 9 9 8 7 6 6 6 5 4 3 3 5 7 7 8 9 9 8 6 3 2 2 3 5 5 6
21 18 18 17 15 13 13 12 11 8 6 6 8 9 8 10 11 10 11 10 9 8 7 9 7 4 1 2 4 7 8 8 7 9 7 5 3 1 1 3 5 6 6
20 20 18 17 16 14 14 14 12 10 9 8 9 9 11 12 10 10 9 9 10 9 8 8 7 5 3 3 4 5 8 9 9 8 8 7 5 4 2 1 1 2 4

GFSSE_500_spd_102.txt.gz
Wind_Speed
18 19 20 21 20 19 19 15 17 16 14 13 11 10 10 9 8 7 7 8 8 9 10 10 11 11 11 10 10 12 12 12 12 15 17 18 19 17 16 15 15 17 17
18 17 17 16 16 16 16 14 14 14 13 11 11 10 9 7 6 5 5 7 8 9 11 11 11 11 11 12 11 12 13 13 14 16 18 19 18 16 18 19 18 17 15
13 14 13 14 14 12 12 12 13 13 12 11 12 11 10 9 8 7 8 8 9 9 11 12 12 12 12 12 13 12 12 14 17 18 19 19 18 19 19 17 16 16 15
10 10 11 12 11 11 12 13 14 13 13 13 13 12 11 9 8 9 8 9 11 10 11 12 14 14 13 13 14 14 14 16 19 20 20 18 20 19 17 16 16 15 14
10 9 9 9 9 10 12 13 14 13 13 13 13 12 14 13 13 13 13 12 10 11 12 13 14 15 14 14 14 15 17 18 20 20 18 19 19 18 17 16 15 15 17
10 10 11 10 11 12 13 13 14 14 14 14 15 15 18 18 19 19 18 16 14 12 14 14 15 15 14 15 15 16 18 20 21 19 18 19 19 17 16 15 17 18 18
12 12 13 13 13 13 15 16 16 15 16 17 18 17 18 17 17 15 14 13 12 12 13 13 14 14 14 15 16 17 20 21 21 19 18 18 18 17 16 17 19 18 18
15 14 15 15 15 14 15 15 14 16 17 16 18 18 18 16 15 14 12 11 12 11 13 13 16 17 16 16 17 18 21 22 21 19 18 17 18 16 17 19 18 17 17
16 16 16 16 16 15 13 14 15 16 16 15 19 16 16 15 14 13 11 9 10 11 14 15 15 17 16 17 18 19 21 22 20 19 18 17 17 17 19 19 18 17 18
15 16 16 15 15 16 14 15 16 17 16 17 17 15 16 14 13 12 11 9 9 12 14 15 15 13 15 17 18 20 21 22 20 19 18 17 17 19 19 18 19 17 19
14 16 17 16 16 16 16 17 18 18 17 15 14 14 14 14 14 14 14 12 13 15 15 15 15 11 16 17 20 21 22 21 19 18 18 17 18 19 19 19 18 18 17
15 17 18 18 17 17 18 19 18 17 17 15 14 14 13 13 15 14 14 15 18 17 18 18 13 15 16 17 20 22 22 21 20 18 18 17 19 20 19 19 17 17 18
17 17 19 19 19 18 19 19 18 17 17 17 15 15 15 15 15 15 15 18 19 17 17 16 17 17 17 18 21 22 21 21 20 19 17 18 19 20 19 18 17 18 18
17 17 18 18 18 20 20 18 18 18 17 17 16 16 16 15 16 16 16 18 19 18 18 19 19 20 21 22 23 23 22 21 19 18 18 19 20 20 19 18 18 18 18
16 17 17 17 17 18 19 17 17 17 18 17 16 16 16 16 17 16 18 18 19 20 21 20 20 21 23 24 24 23 22 20 19 18 18 20 21 20 19 18 18 19 22
15 16 16 14 16 16 18 18 18 16 16 16 15 14 16 16 17 18 19 20 20 19 18 19 19 19 20 21 21 21 19 18 17 17 18 19 19 18 19 19 19 20 23
13 15 15 14 14 15 15 15 15 15 16 16 15 14 15 16 16 19 20 20 19 18 17 17 17 17 17 18 19 18 17 16 15 15 16 17 17 17 17 18 20 20 22
11 12 13 12 12 13 14 15 15 14 13 15 15 15 14 14 16 17 18 17 17 16 15 14 15 15 16 17 18 16 15 14 14 14 15 14 14 15 16 16 18 19 20
11 10 12 11 11 11 11 13 15 14 14 13 14 15 15 14 15 15 14 13 13 13 12 12 12 12 13 14 16 16 14 13 13 13 13 13 13 13 13 14 14 15 16
11 10 11 11 12 11 10 11 12 13 14 14 14 13 14 13 13 12 12 12 11 10 10 9 9 10 12 12 12 14 13 12 12 12 11 11 11 11 11 10 10 10 11
12 11 10 11 11 11 10 10 10 11 11 11 12 12 14 13 12 10 10 9 8 8 7 8 8 9 10 10 10 11 13 12 11 11 10 8 7 7 8 7 7 7 7
14 13 11 11 11 11 10 9 9 9 9 10 10 10 9 10 9 8 7 6 5 5 5 6 7 7 7 8 8 10 11 12 12 11 10 7 5 4 4 4 4 5 6
16 14 13 11 10 10 10 8 9 8 10 10 9 9 9 7 8 7 6 5 5 3 3 3 3 5 6 6 7 7 9 11 11 10 9 7 5 4 2 1 2 4 5
18 16 15 13 12 11 10 10 9 7 7 9 9 7 10 10 8 6 6 5 5 4 2 2 2 3 3 4 5 6 7 9 9 9 8 6 5 4 2 0 2 2 3
20 19 18 16 13 12 12 10 9 7 5 5 7 7 8 9 8 8 7 7 6 4 3 4 2 1 2 3 3 6 6 7 7 7 5 6 5 4 3 2 1 1 2
22 21 21 19 16 13 12 11 10 8 7 7 6 6 6 8 8 7 8 10 9 7 5 4 4 2 2 2 2 3 5 5 6 7 7 5 5 4 4 3 3 4 5

GFSSE_500_spd_105.txt.gz
Wind_Speed
17 16 17 17 18 15 16 15 17 16 14 12 11 9 7 6 5 6 6 6 6 6 6 6 7 8 8 9 9 10 11 12 12 13 14 15 15 13 11 10 10 12 13
15 15 14 15 14 13 12 14 11 13 12 11 9 7 7 6 6 6 7 8 8 9 9 8 8 8 8 8 9 9 10 12 14 14 15 15 13 13 13 14 13 13 12
12 12 13 13 12 11 11 11 10 11 12 11 9 7 6 6 5 6 7 8 8 8 8 9 9 9 9 10 10 10 11 13 15 15 13 13 14 14 13 12 12 11 10
8 9 10 11 10 10 10 10 9 10 11 10 8 7 5 6 5 5 5 5 7 8 9 10 11 10 11 12 11 11 13 14 16 15 13 13 15 13 12 13 12 11 11
9 8 9 9 10 10 12 11 12 12 12 11 10 7 7 8 7 7 7 7 8 9 11 12 12 11 12 14 13 12 14 17 16 15 14 15 13 13 12 11 12 14 14
8 7 8 9 10 11 11 12 12 12 11 12 13 13 15 15 16 14 13 10 9 11 12 12 13 12 13 14 14 14 17 18 17 15 15 14 13 12 11 12 15 15 15
9 9 9 10 12 12 13 14 14 13 13 13 14 16 16 15 13 12 11 12 11 11 12 15 15 12 14 15 15 17 19 18 16 16 15 14 14 12 13 15 16 15 14
13 12 12 13 14 14 13 14 15 14 15 16 16 17 14 13 12 12 11 10 10 10 11 13 13 13 14 15 17 19 20 18 16 16 15 14 13 14 15 16 16 15 14
16 15 15 13 13 13 12 14 14 12 15 18 16 15 14 12 12 10 9 8 9 10 10 15 13 13 14 16 18 20 19 17 16 16 16 14 14 15 16 17 17 15 15
16 15 15 13 12 11 13 12 13 16 17 17 15 14 14 11 10 8 8 7 8 11 11 18 12 12 15 17 19 19 18 17 16 16 16 15 15 17 17 17 16 15 16
14 15 15 14 14 15 15 13 14 15 15 15 14 15 14 11 11 10 12 11 12 13 15 18 10 14 14 16 19 19 18 16 17 16 16 16 17 18 17 17 17 17 20
14 15 16 17 17 17 17 16 15 15 14 14 15 14 12 13 13 14 18 18 20 21 17 14 20 18 16 15 19 19 18 17 17 16 17 17 18 18 17 18 18 19 22
15 15 16 19 18 18 18 16 17 17 16 16 16 14 14 14 15 18 21 20 20 17 15 17 17 17 17 18 19 20 18 18 17 17 18 18 18 19 18 18 18 19 21
14 13 15 18 19 18 18 17 17 18 17 15 14 15 15 16 15 18 19 19 20 18 17 18 17 18 20 20 20 20 19 18 18 19 20 19 19 19 19 19 20 22 24
14 13 13 15 16 17 18 18 17 17 17 15 15 15 14 15 17 17 18 20 20 21 21 21 20 21 22 21 21 20 19 18 18 19 20 20 19 19 20 21 23 23 23
12 13 12 12 13 15 17 16 17 16 16 16 16 16 15 15 16 19 21 21 20 20 20 21 22 22 21 21 20 19 18 18 18 18 18 18 18 19 20 21 22 22 22
12 12 13 11 13 14 16 16 16 16 15 15 16 15 17 17 18 19 19 19 19 18 18 19 18 18 18 19 18 18 17 17 17 17 16 16 16 17 18 19 19 18 19
10 11 11 12 11 11 12 13 13 14 13 14 15 16 17 18 17 16 16 16 16 16 16 16 16 16 16 18 17 17 16 16 16 17 16 15 16 16 16 15 15 15 16
9 9 8 10 10 10 11 12 12 12 13 12 13 15 16 15 15 14 14 13 12 13 13 12 13 12 13 13 16 15 15 15 15 15 15 14 13 13 12 11 10 10 11
10 8 8 8 8 9 10 12 11 12 11 11 11 12 15 13 12 11 11 11 10 10 9 9 10 11 12 12 11 14 13 13 13 12 12 11 10 9 8 6 6 6 8
10 9 8 8 8 7 8 9 10 11 10 10 10 11 11 11 10 9 8 7 7 8 7 7 7 9 10 10 9 12 13 12 11 10 10 8 8 6 3 4 5 5 5
11 10 9 8 7 7 6 8 8 10 10 9 9 9 8 8 6 6 5 4 4 4 6 5 5 6 8 8 8 8 10 11 10 9 8 6 5 3 0 3 5 6 5
14 12 11 10 9 6 6 7 7 7 8 8 8 8 8 7 5 4 3 2 2 2 3 6 5 4 5 7 6 6 6 10 9 8 7 5 5 4 2 3 4 5 6
15 15 13 11 10 8 8 7 7 6 5 5 6 8 8 7 6 4 2 1 1 0 2 3 4 4 3 5 6 6 8 8 8 6 6 7 6 4 4 4 4 5 6
18 17 15 13 11 11 11 9 7 6 5 16 6 7 8 8 7 5 4 3 1 2 1 1 3 3 3 3 5 5 6 7 7 7 7 6 5 4 5 4 4 6 5
19 18 17 15 13 11 11 11 10 8 7 4 4 5 3 4 5 5 4 5 5 5 3 1 1 2 3 2 1 4 5 3 4 5 6 5 5 4 6 6 7 8 8

GFSSE_500_spd_108.txt.gz
Wind_Speed
18 21 18 17 16 13 12 13 15 15 12 10 9 8 5 4 3 3 2 1 3 4 6 6 8 10 10 11 11 12 11 12 13 14 14 15 15 14 14 14 14 13 13
14 16 15 16 14 13 12 11 13 9 9 7 5 4 3 1 2 2 2 2 3 5 5 6 8 9 9 9 10 10 11 13 14 14 14 14 14 15 14 13 12 12 11
11 13 13 13 12 11 9 9 9 9 6 7 7 5 5 5 4 4 4 4 5 6 6 6 7 8 8 8 9 10 12 14 13 14 13 14 15 14 12 11 10 11 12
10 10 10 11 11 9 8 8 7 8 7 8 7 5 5 5 4 5 5 5 6 7 7 8 8 9 9 8 10 10 13 14 13 12 12 14 13 12 12 10 13 16 16
8 8 9 10 10 10 8 7 7 6 8 8 7 6 6 5 5 5 6 7 7 7 8 8 9 10 10 10 11 12 14 15 13 12 14 12 13 13 11 13 16 17 18
9 9 10 11 11 9 8 8 7 8 9 9 11 12 13 13 12 11 9 7 8 9 9 10 10 11 12 12 13 15 16 14 13 13 13 13 13 12 13 16 17 17 16
9 9 10 11 10 9 9 8 8 10 12 12 14 14 13 12 11 11 12 12 10 11 11 11 11 12 14 13 15 17 15 14 14 13 13 14 13 14 16 18 17 17 18
11 10 10 11 10 12 12 11 11 13 14 13 14 13 11 11 10 10 11 11 10 11 11 12 12 12 14 15 17 17 15 15 14 14 16 14 15 16 17 18 19 19 20
10 11 11 11 10 12 12 12 10 13 16 12 12 12 11 10 10 9 10 11 11 12 13 12 12 14 15 16 17 17 15 16 15 17 16 16 18 18 19 19 19 20 21
9 11 12 10 10 11 13 14 18 17 14 14 13 12 11 11 10 9 10 11 13 13 16 12 14 16 17 17 17 17 16 16 16 17 18 19 18 19 20 21 21 21 22
11 11 11 12 11 12 13 14 15 14 13 13 13 13 14 12 14 11 11 14 15 13 15 12 15 17 18 17 17 18 19 16 18 18 19 19 19 21 22 22 22 22 22
12 12 13 14 14 15 14 15 14 14 13 13 8 20 15 15 21 21 19 18 15 18 16 21 19 16 18 17 17 19 18 17 18 19 19 20 20 21 22 21 20 20 21
12 13 15 16 14 15 15 16 15 16 15 16 15 20 18 22 21 24 24 19 13 13 21 24 20 18 18 16 17 19 18 18 18 20 20 20 21 22 22 21 21 21 23
12 13 15 16 16 15 15 17 16 17 14 17 19 18 17 16 14 5 22 12 16 12 17 21 20 16 17 18 18 19 18 18 20 21 22 21 22 22 22 21 20 20 20
12 12 13 15 16 16 17 15 15 17 12 16 19 18 18 16 21 20 19 22 18 13 19 21 19 19 20 19 18 18 20 19 20 21 21 21 22 21 20 20 19 19 20
12 12 12 13 13 15 17 16 17 17 13 14 19 16 17 19 22 22 26 20 22 19 21 19 20 19 20 21 20 18 19 22 20 19 19 19 19 19 19 17 17 18 18
12 12 12 12 13 16 16 16 15 16 15 13 16 23 23 22 20 18 24 22 20 19 19 17 19 18 18 18 18 19 20 20 20 18 17 17 16 16 16 15 15 16 17
11 11 12 10 9 10 13 14 14 16 17 14 14 20 22 20 19 18 18 19 18 18 15 17 13 17 19 21 19 18 18 18 18 17 16 15 14 12 11 11 11 12 13
9 11 10 10 8 9 10 11 12 16 17 16 17 16 18 17 17 15 15 15 16 15 14 14 13 11 14 16 18 19 17 16 16 15 14 12 11 8 7 6 6 9 9
7 9 10 9 9 8 9 9 10 13 15 16 16 16 16 15 14 13 10 10 14 15 11 12 11 11 10 10 10 17 14 14 14 12 11 9 8 5 3 3 5 5 6
7 7 7 8 9 8 7 7 8 9 12 13 13 13 13 13 11 10 6 5 16 14 9 9 9 6 9 6 8 10 14 12 11 10 8 7 4 2 1 2 2 3 5
10 7 7 7 7 8 7 7 7 6 7 9 10 10 10 9 8 8 6 8 12 7 7 7 6 6 6 7 5 1 10 12 11 9 7 5 4 4 3 4 5 4 4
11 10 7 6 7 8 8 6 7 7 6 7 6 6 5 5 5 5 6 6 6 4 5 4 6 4 3 5 7 7 3 8 10 11 10 7 5 5 6 5 7 8 8
13 12 10 8 7 6 6 6 5 6 7 6 5 5 4 3 3 2 2 4 4 5 4 4 4 4 3 3 4 6 6 14 7 5 5 9 5 5 6 3 4 5 7
14 13 12 9 8 7 4 6 7 5 5 13 10 4 3 5 4 2 2 1 3 3 3 4 4 4 4 4 3 3 6 5 8 11 6 12 4 8 6 3 3 3 7
19 16 14 12 9 9 9 8 7 6 8 6 8 7 3 5 5 4 2 2 2 1 1 3 3 3 4 5 3 4 4 3 5 9 15 5 8 14 9 7 9 3 8

GFSSE_500_spd_111.txt.gz
Wind_Speed
18 17 17 17 12 11 8 13 16 13 12 11 9 7 6 5 4 4 4 5 6 7 8 9 11 13 12 12 12 13 16 18 18 18 17 17 18 17 17 18 16 14 13
16 17 16 14 14 14 10 10 12 12 2 5 4 4 3 4 4 4 3 3 4 6 7 9 9 11 12 13 14 15 17 18 18 16 16 18 19 18 18 15 15 15 15
14 15 14 13 13 12 10 9 6 8 6 3 1 3 3 2 4 4 5 4 3 5 6 7 9 10 12 13 15 17 18 17 19 17 17 18 17 16 14 15 18 19 20
12 12 12 12 11 10 8 6 6 6 6 5 4 3 5 3 5 4 4 4 5 5 6 7 8 10 12 13 15 16 17 17 16 18 17 17 16 15 16 19 21 21 21
11 11 11 11 11 9 8 8 8 8 7 6 5 5 6 5 5 5 5 5 5 6 7 8 9 11 11 13 15 17 16 16 17 17 17 17 17 17 18 20 21 21 20
11 11 10 11 10 10 8 8 8 10 9 11 12 13 12 12 11 9 7 7 8 9 9 9 10 11 12 14 18 18 16 17 17 16 18 16 19 18 18 21 21 20 20
11 11 10 10 9 8 8 8 9 11 12 12 13 14 13 13 13 12 11 11 11 10 10 10 11 12 14 16 18 17 15 18 17 17 17 18 20 18 20 22 22 21 21
8 9 11 9 9 9 9 9 11 12 13 13 12 12 12 12 12 11 11 12 13 13 11 11 13 14 16 17 18 17 17 17 18 17 19 20 20 20 22 23 22 21 20
9 10 11 11 11 12 11 11 11 12 13 13 12 12 12 11 12 11 11 13 13 14 14 14 15 16 18 18 18 17 18 18 15 19 20 21 21 22 23 22 21 20 19
11 9 12 11 12 12 15 16 14 12 12 12 12 14 12 10 11 12 13 14 13 14 13 17 19 20 20 18 18 20 19 17 16 20 21 22 22 23 23 22 21 20 19
11 11 13 12 12 13 14 16 15 14 13 12 12 12 13 11 14 16 15 14 17 16 12 15 20 23 23 19 18 20 21 17 17 20 22 22 22 22 21 20 19 19 20
13 13 15 14 14 13 13 14 14 14 12 10 14 15 14 18 23 20 22 24 22 17 18 16 17 22 23 20 17 20 20 18 18 21 21 21 20 20 19 19 19 20 20
15 15 15 15 15 14 14 16 16 16 15 19 16 13 17 23 25 23 17 20 17 20 21 17 23 23 23 20 17 20 18 19 20 21 20 20 19 19 18 17 19 19 20
14 13 17 15 16 16 15 15 16 16 18 18 16 15 11 21 27 23 10 18 18 18 20 23 20 24 21 21 21 19 17 19 19 19 19 19 17 17 17 17 18 18 20
15 13 14 16 17 17 16 14 16 16 20 17 18 17 14 20 22 21 19 21 17 18 20 21 19 23 25 21 18 19 20 17 17 18 17 16 15 15 15 16 17 18 19
15 13 14 15 15 16 17 16 15 16 13 13 16 22 20 22 24 22 26 25 20 20 22 22 19 20 22 23 21 17 21 20 17 15 15 14 13 12 13 13 14 15 17
13 13 16 16 14 13 16 16 17 17 16 12 19 22 20 22 22 22 23 24 22 21 21 20 18 18 19 21 20 18 18 18 17 14 13 13 11 10 9 10 11 12 13
13 12 13 14 13 12 14 16 17 18 17 19 20 19 20 21 21 20 19 18 20 19 17 16 15 13 13 17 20 18 17 16 14 15 12 11 11 8 7 8 9 10 12
11 12 11 11 11 12 11 13 15 18 20 19 20 19 19 17 18 18 17 15 16 15 16 14 13 10 12 15 19 19 19 15 15 14 12 11 9 6 5 5 6 6 7
8 11 11 9 10 11 11 12 13 14 17 18 16 17 16 16 16 17 15 13 12 13 14 15 9 11 9 11 14 16 18 17 16 14 11 9 5 5 2 2 4 4 6
9 10 11 10 9 10 9 11 11 11 14 17 16 16 13 13 15 13 11 9 10 10 10 10 13 9 8 10 8 7 11 15 15 15 13 10 6 3 2 1 3 5 6
9 9 8 9 10 9 9 9 10 11 10 12 13 12 13 12 12 10 11 11 9 10 9 7 9 10 7 7 8 5 6 10 14 15 12 10 6 5 6 4 2 3 3
11 11 9 7 8 8 8 8 5 7 8 7 8 7 7 7 10 9 9 9 10 9 8 7 7 6 6 4 3 8 7 7 9 10 14 18 15 11 9 7 8 3 3
12 12 12 9 8 6 5 6 6 5 6 4 5 5 4 3 5 6 7 7 7 8 7 7 7 5 3 2 2 5 3 8 13 13 12 12 10 6 6 10 10 2 5
15 14 12 11 10 7 5 6 5 4 3 7 6 8 7 5 3 3 4 5 5 6 5 7 6 3 3 1 1 3 3 10 5 9 12 16 9 6 8 3 7 6 10
18 17 15 13 12 10 9 7 5 5 4 4 3 14 5 5 5 4 5 4 4 4 4 5 6 4 3 2 2 3 6 5 4 3 11 1 1 6 17 12 3 12 5

GFSSE_500_spd_114.txt.gz
Wind_Speed
12 16 11 11 13 12 15 16 13 13 13 9 8 7 7 7 7 7 7 8 9 8 9 10 12 12 13 13 13 17 19 18 17 14 17 20 20 19 17 14 13 13 15
15 14 15 15 14 11 12 15 12 9 7 6 4 5 5 4 6 6 6 8 8 7 8 9 11 13 14 15 15 18 19 18 17 18 20 21 19 17 14 14 18 20 21
16 15 14 12 11 11 11 10 8 5 6 4 4 3 5 4 7 7 6 7 9 10 10 10 10 13 14 16 17 19 19 19 21 19 19 19 17 16 18 20 22 21 22
12 13 13 12 11 9 8 8 8 6 5 4 3 4 6 5 7 8 8 8 8 10 11 11 11 12 14 15 16 19 20 18 20 17 17 18 19 18 20 21 21 20 19
11 11 11 11 10 9 8 8 8 8 7 6 5 6 5 5 6 8 8 9 8 9 11 11 12 13 15 16 17 18 18 19 19 17 19 19 20 18 19 19 20 19 19
11 11 10 9 9 9 9 9 8 8 9 9 10 11 10 9 10 10 10 10 9 10 11 12 13 15 16 17 18 18 20 19 18 18 19 20 20 19 19 19 20 19 19
11 11 10 9 8 9 10 10 11 12 12 13 15 14 14 13 13 12 12 11 11 11 11 13 15 17 19 19 19 16 21 18 17 19 20 21 21 20 20 20 20 18 17
11 11 10 9 10 10 12 12 12 12 12 12 12 11 11 12 12 13 14 14 13 13 12 13 16 18 21 20 20 20 22 18 18 20 20 21 21 20 20 19 17 16 15
10 10 11 12 12 11 12 12 12 12 10 9 9 9 9 11 12 12 14 15 15 14 15 16 17 19 20 20 21 22 22 20 19 20 21 21 21 20 19 17 16 15 14
13 12 13 13 14 12 12 12 12 11 9 8 8 7 8 10 10 12 15 16 16 17 17 17 17 19 21 20 20 23 23 20 20 20 21 21 21 20 19 17 16 15 15
13 13 14 14 16 16 16 14 11 11 10 9 9 8 6 8 11 13 14 20 18 21 21 21 21 20 18 18 20 23 22 22 20 20 21 20 20 18 17 17 17 18 18
13 15 14 15 16 15 14 13 12 12 13 12 13 13 12 15 14 13 15 18 16 20 23 23 23 22 18 16 19 22 23 21 20 19 20 20 18 18 17 18 17 19 20
15 15 16 16 16 17 15 16 17 19 18 19 14 15 19 20 15 24 21 19 18 19 22 26 25 22 19 17 20 21 21 20 19 19 19 19 18 18 17 17 17 19 20
15 14 16 17 17 18 16 17 18 17 19 18 14 15 22 20 17 18 21 20 18 14 25 28 28 25 20 20 20 20 19 17 19 19 19 18 17 16 16 16 17 18 18
15 16 14 15 16 19 17 16 13 18 22 15 18 24 22 20 17 20 20 21 20 21 23 26 27 26 23 21 22 23 20 16 18 19 18 16 15 15 15 14 15 16 16
16 15 13 12 14 16 17 16 11 15 19 18 19 24 25 21 20 22 24 23 21 17 18 19 21 23 23 22 24 23 22 18 16 16 16 14 13 12 12 12 12 13 14
16 17 12 12 11 14 15 14 14 12 17 19 19 22 23 22 24 26 26 24 23 20 21 20 17 17 19 20 21 20 21 21 18 15 14 12 10 8 9 10 11 12 12
17 17 14 15 13 13 12 11 14 18 19 21 19 19 22 20 22 22 21 19 20 21 18 20 19 17 17 17 19 19 19 18 18 16 13 11 7 5 5 5 6 7 9
14 13 13 15 13 12 13 10 14 16 18 16 18 18 19 20 19 17 20 19 14 17 16 14 13 15 14 15 18 18 15 16 15 13 9 6 4 2 2 3 2 2 3
13 14 14 16 14 12 12 12 12 14 16 13 14 15 15 15 15 17 16 17 18 16 16 15 11 11 13 11 11 12 13 15 13 12 9 10 10 9 5 4 8 7 7
12 12 13 14 14 13 12 13 13 11 13 12 12 13 11 12 12 11 15 14 13 13 16 15 11 11 10 9 10 11 12 13 13 13 11 11 8 5 6 8 10 10 8
12 11 11 13 12 13 12 13 13 14 10 10 9 9 9 9 10 11 11 11 10 11 12 13 12 9 10 8 7 8 10 11 9 9 8 10 9 8 8 8 10 13 10
10 12 12 12 11 11 12 11 10 12 10 9 8 6 4 6 8 8 8 7 8 8 9 11 9 8 9 8 6 6 5 8 7 9 10 12 12 13 12 13 14 11 10
11 12 13 12 12 11 11 9 11 10 10 9 6 5 4 3 4 5 8 6 7 6 5 8 9 7 5 8 5 5 4 7 7 9 12 13 11 15 20 12 14 7 10
16 13 13 12 12 13 12 10 10 8 7 7 5 4 4 5 5 1 1 5 6 5 5 5 5 5 3 6 6 4 4 4 5 9 10 10 12 13 10 13 18 3 1
16 15 12 13 11 11 11 9 8 7 8 4 3 7 5 6 6 6 5 4 5 5 5 5 3 3 2 3 6 4 1 2 2 9 12 4 4 6 8 13 7 8 3

GFSSE_500_spd_117.txt.gz
Wind_Speed
13 11 11 17 13 10 11 12 12 15 13 13 9 9 8 8 8 9 10 12 12 11 12 13 13 15 14 13 14 16 15 16 15 15 17 17 15 14 12 12 14 15 17
15 13 13 12 15 13 16 13 11 11 9 9 6 7 5 5 7 7 9 11 12 12 13 14 15 15 16 15 15 15 16 15 18 18 17 16 16 17 16 18 20 19 17
13 10 10 10 11 12 11 11 8 8 6 7 5 7 8 8 8 9 10 11 12 12 13 13 15 15 15 16 17 17 17 19 19 17 16 18 20 19 18 19 19 18 18
12 10 9 9 8 8 8 7 6 5 5 5 8 8 7 8 10 10 11 12 13 13 13 13 16 16 17 17 18 17 17 18 18 16 18 19 20 18 17 17 18 17 18
10 10 9 8 7 8 8 7 6 5 4 3 5 6 7 8 9 10 11 12 13 14 14 15 16 18 18 18 18 18 17 18 17 16 19 18 17 16 17 17 18 18 17
11 11 9 8 9 8 8 7 7 6 6 6 6 6 6 7 9 10 10 12 12 14 15 16 16 18 19 19 19 20 20 17 17 18 18 18 18 18 18 17 17 17 16
12 12 10 10 11 11 11 10 10 10 10 11 11 11 11 11 11 11 12 13 13 14 14 15 16 18 20 20 19 21 21 18 18 18 20 20 20 18 18 16 16 15 14
12 14 12 12 13 13 14 13 12 11 10 10 10 9 9 11 13 13 13 14 14 14 15 17 18 19 19 20 21 23 22 20 19 19 20 20 20 18 16 14 13 12 12
11 13 13 14 15 15 15 14 12 10 10 9 8 8 7 10 13 15 16 16 15 15 17 20 20 20 19 18 21 22 22 21 20 20 20 20 19 17 16 13 13 13 13
12 13 14 14 12 14 13 12 12 12 12 10 8 7 9 10 12 13 16 17 17 19 20 21 23 21 21 19 22 22 22 21 21 21 20 19 18 17 16 14 15 16 17
14 13 15 17 17 13 14 12 12 12 11 9 8 7 11 11 12 15 14 15 17 17 21 25 24 21 22 22 22 22 22 21 20 20 19 18 18 18 16 16 18 18 16
14 15 15 15 15 14 12 11 11 11 11 12 13 17 16 14 15 17 15 15 17 19 20 24 23 21 20 22 23 22 22 20 19 18 18 17 18 17 16 17 17 17 17
15 16 16 15 15 14 12 16 15 14 16 16 21 20 18 16 18 19 15 17 19 20 22 23 24 23 21 22 23 21 20 18 17 17 17 17 17 16 16 17 16 16 17
16 16 17 15 15 17 15 18 17 15 15 18 20 19 19 19 17 15 18 19 21 24 22 23 22 22 22 22 22 20 18 16 15 15 15 16 16 14 14 15 14 15 16
16 16 16 15 16 16 17 17 17 16 17 17 17 18 17 15 16 15 16 16 22 22 21 23 21 21 21 21 22 20 17 14 11 12 12 13 11 11 10 10 10 12 14
16 18 17 14 14 14 20 15 17 18 22 20 19 20 20 19 18 16 19 18 22 19 19 18 18 16 17 19 19 19 17 12 10 11 10 9 7 6 5 5 7 9 11
15 18 17 15 13 13 14 14 13 16 23 21 22 23 24 23 22 20 19 18 20 19 18 16 15 16 16 15 17 16 16 14 13 11 9 6 3 1 4 8 9 12 14
15 16 18 15 14 13 15 16 17 16 20 20 20 20 21 22 22 20 19 18 19 19 17 15 14 15 16 14 13 13 11 10 10 8 5 3 2 6 9 11 14 14 15
15 15 16 15 13 14 16 16 15 17 18 16 16 17 17 18 19 18 15 15 18 16 14 14 13 13 12 12 13 12 10 8 5 1 2 4 5 8 10 13 15 17 16
13 11 13 14 14 12 15 15 16 16 16 14 12 12 13 16 17 16 15 15 15 15 14 12 10 9 8 8 9 8 6 3 4 5 6 5 10 11 12 14 15 16 18
13 13 13 14 16 12 13 15 14 13 14 13 11 11 10 11 14 14 14 14 12 13 13 15 14 10 10 9 9 7 6 5 6 9 11 10 11 13 16 17 16 18 17
12 13 13 13 16 15 15 14 16 15 13 12 9 10 8 9 11 12 12 13 11 11 9 12 13 12 12 10 8 6 5 4 6 8 10 11 12 14 16 19 21 18 20
12 12 13 13 14 14 14 14 13 13 12 11 9 9 7 6 7 9 8 9 8 8 9 9 10 11 8 8 8 8 7 6 5 6 10 12 14 16 17 23 25 16 19
12 10 10 12 12 13 12 13 14 13 12 9 7 6 6 5 5 5 5 5 6 6 6 6 6 8 8 8 7 6 5 5 7 6 6 10 11 14 18 21 24 13 14
10 11 10 9 10 10 12 10 8 10 10 8 7 6 4 3 3 5 3 3 2 3 4 5 4 5 5 5 5 4 3 1 4 4 5 8 8 11 11 14 11 2 1
10 11 12 11 10 10 10 11 8 8 8 8 7 7 6 6 5 4 4 5 3 2 2 4 3 4 4 5 5 4 4 4 5 4 5 7 4 5 4 12 5 2 3

GFSSE_500_spd_120.txt.gz
Wind_Speed
14 12 13 8 5 8 5 6 11 14 15 14 14 12 11 11 12 12 13 12 13 13 14 14 15 16 15 15 17 17 18 17 17 17 17 14 13 12 12 13 15 16 16
11 11 15 15 15 16 16 16 14 12 13 13 12 10 9 8 11 12 12 14 14 14 15 15 15 15 17 18 17 17 18 20 18 16 14 15 17 18 18 17 16 16 16
13 12 12 12 12 12 13 14 13 12 11 9 8 8 8 8 10 11 11 13 15 15 16 15 15 16 18 18 17 18 19 18 17 15 17 19 20 19 17 15 16 17 18
11 11 11 10 10 10 10 11 9 9 10 10 10 8 9 10 12 12 13 14 14 15 16 16 17 17 16 19 20 19 19 18 17 18 17 18 18 18 16 15 17 18 17
9 10 9 9 10 11 11 10 8 8 8 9 8 8 8 10 12 13 13 14 14 15 16 16 17 18 17 18 19 19 18 17 18 17 15 16 17 16 16 16 17 16 15
8 9 10 10 10 10 11 11 11 11 10 8 7 7 7 10 11 12 13 13 12 14 15 15 16 17 16 18 19 19 18 18 17 16 15 16 17 17 17 15 14 13 13
7 10 11 11 11 12 13 14 15 14 13 12 12 11 11 12 14 14 14 14 13 13 14 15 16 17 18 18 18 18 19 18 17 16 16 17 17 17 15 13 12 12 11
7 10 12 13 14 15 16 15 14 13 12 12 11 11 12 13 15 15 15 15 16 17 17 17 19 18 19 19 18 18 19 18 17 16 17 17 16 16 13 11 12 11 12
9 11 13 16 17 16 16 14 13 12 11 10 10 11 13 15 16 16 17 15 16 17 19 20 20 20 20 19 19 20 19 17 15 16 17 17 16 15 14 12 13 13 13
13 14 14 18 17 16 15 14 12 11 11 10 10 12 14 17 17 17 17 16 17 17 19 21 20 21 20 20 20 20 19 16 15 15 16 16 16 15 15 15 15 14 13
16 16 18 18 18 16 14 12 10 9 10 10 10 14 16 16 18 16 17 17 19 20 21 21 19 19 20 19 20 20 18 16 15 14 15 15 16 16 15 16 16 16 15
16 16 18 18 17 15 12 10 9 11 12 9 11 14 15 14 16 17 16 16 19 22 21 19 19 19 19 19 19 18 18 16 14 13 14 13 14 13 15 16 17 18 18
17 16 17 17 17 17 15 14 16 14 13 15 17 14 13 14 13 16 16 18 20 21 23 20 19 19 18 19 18 17 16 14 12 11 11 10 11 12 15 16 17 18 20
18 17 18 18 20 19 17 16 16 17 15 18 18 18 19 17 15 17 18 20 23 23 21 20 20 18 18 18 18 16 14 12 10 9 8 9 10 12 13 15 16 18 21
17 17 17 17 19 18 17 17 17 15 14 15 15 14 15 16 19 15 18 22 22 19 19 19 19 17 17 18 17 16 15 11 8 5 6 8 9 11 14 15 15 18 20
19 18 18 18 18 19 19 20 19 19 18 19 16 18 18 21 20 19 22 20 20 19 18 17 16 16 17 16 15 14 13 9 6 3 4 8 11 13 15 14 15 16 17
18 18 18 19 17 12 14 20 21 22 24 23 18 17 19 18 19 21 24 21 16 17 16 14 15 15 13 13 12 11 9 6 4 2 7 9 12 15 15 16 16 17 18
16 17 17 19 18 14 14 19 20 22 22 21 19 18 19 17 18 19 20 19 18 16 14 13 13 13 13 12 11 8 5 4 5 7 8 11 13 14 16 18 18 19 20
16 16 17 18 16 17 19 20 21 19 18 18 18 17 16 16 17 19 18 17 17 15 13 12 10 10 9 9 7 4 3 3 6 7 8 10 12 13 15 17 20 19 19
13 15 16 17 17 15 16 20 19 18 16 15 15 14 16 14 13 15 15 15 15 15 13 11 9 8 7 6 4 0 3 4 6 8 9 12 12 13 15 17 19 22 21
11 12 13 14 18 17 15 18 17 13 14 13 13 13 12 12 13 13 14 11 11 12 13 11 10 7 5 6 2 0 2 3 5 6 9 11 11 13 16 19 25 25 22
12 12 13 12 16 19 17 15 15 14 11 10 12 12 11 12 12 13 12 12 10 9 9 10 11 11 9 7 5 4 4 2 4 7 9 12 12 14 17 19 22 27 21
13 12 11 11 14 16 18 16 14 14 12 11 11 10 10 9 9 10 9 9 8 8 7 6 6 8 9 8 7 7 6 4 5 6 9 13 16 17 18 18 19 22 12
12 13 12 10 11 13 14 15 14 13 11 10 8 8 9 9 8 8 7 6 5 5 4 5 4 5 6 6 7 7 7 7 7 7 9 11 16 15 18 16 16 12 6
13 11 11 12 10 9 11 11 9 8 8 8 6 3 3 5 5 5 7 6 7 5 5 4 4 5 5 5 4 2 3 3 4 3 4 8 8 10 12 15 9 8 6
14 14 11 10 10 10 9 10 9 8 8 7 7 6 5 3 3 2 2 4 5 6 7 6 4 4 4 5 5 4 3 3 4 4 6 8 9 9 13 11 8 7 2